GFSNGP_sfc_thetae_000.txt.gz
Theta_e
296 297 296 295 294 296 294 295 289 292 294 298 301 301 302 303 303 303 302 303 303 303 303 303 304 304 301 300 299 298 296 295 296 296 296 295 294 293 293 292 291 291 289 288
290 295 296 292 294 296 295 295 295 296 295 302 302 303 302 302 302 302 302 302 302 302 301 302 303 303 298 298 298 297 295 297 297 296 295 293 293 292 291 291 289 288 287 287
286 292 290 285 291 294 296 297 296 291 296 301 299 300 300 301 302 301 301 301 302 300 301 302 302 299 297 298 299 298 297 296 295 295 293 292 292 291 289 287 287 286 286 286
285 286 281 294 300 298 296 298 299 298 298 300 300 302 302 303 301 300 300 301 301 301 302 302 299 297 298 299 298 296 295 295 295 293 291 291 290 288 286 286 285 284 284 285
285 286 289 292 296 296 293 293 299 298 300 301 302 301 299 303 302 301 301 301 301 302 301 298 297 297 297 297 296 295 294 292 292 291 290 289 287 285 285 284 284 284 284 283
289 283 280 292 297 301 301 288 300 300 299 299 298 290 294 302 302 302 301 301 300 300 298 297 296 297 296 296 295 292 292 291 290 290 289 287 285 284 284 284 283 283 282 283
287 285 288 297 300 303 287 289 299 300 300 299 296 297 300 302 303 302 301 299 300 298 295 296 297 297 294 292 291 290 290 290 289 289 287 286 285 284 283 282 282 281 279 281
286 284 283 302 301 290 297 302 301 301 300 299 300 300 301 301 300 300 299 298 297 295 295 296 296 295 291 288 288 289 289 288 288 287 286 286 284 282 282 282 280 279 278 279
292 291 300 303 301 304 303 302 302 301 301 300 299 299 300 300 299 298 296 295 295 295 295 295 294 291 289 288 288 288 287 287 286 286 285 284 282 281 281 281 280 279 279 278
292 296 298 301 303 304 304 302 302 302 301 301 298 297 297 298 298 296 294 293 295 294 292 291 292 289 288 288 288 287 285 285 284 283 283 282 282 282 280 279 279 279 277 277
292 297 299 301 303 303 303 303 301 302 301 297 296 295 296 297 295 293 291 293 294 292 292 290 289 288 288 287 287 285 284 283 283 283 281 281 281 281 280 280 280 278 278 278
290 298 298 299 303 304 301 300 301 298 296 297 296 296 296 294 293 291 291 293 292 292 290 289 288 288 288 287 285 283 282 283 282 281 281 281 281 280 283 282 283 283 282 280
298 302 302 303 302 302 300 300 299 296 296 296 296 294 293 292 292 291 293 293 291 289 289 288 287 286 287 284 283 281 280 281 281 280 281 280 279 278 277 280 282 282 282 281
303 302 297 299 298 300 299 298 297 297 297 296 295 294 292 292 293 292 291 290 289 289 288 287 286 285 285 285 284 281 282 280 280 279 279 279 278 278 278 277 276 277 281 279
300 301 300 298 297 296 297 296 295 294 294 293 293 292 292 291 290 290 290 288 288 288 287 286 283 284 286 285 283 282 282 281 279 279 279 278 279 278 278 276 277 277 278 277
298 297 296 294 294 294 294 294 293 293 292 292 291 289 291 291 290 289 288 285 283 284 284 280 279 284 285 285 284 283 284 279 277 279 279 279 278 277 277 276 277 277 276 274
293 291 292 292 293 293 293 294 294 291 290 290 288 284 285 284 284 284 285 282 282 282 281 280 282 286 284 284 284 283 283 282 279 281 279 278 278 276 276 276 276 276 275 276
295 294 294 294 293 292 292 292 290 289 288 286 282 280 281 281 282 282 282 282 281 281 281 282 282 284 282 284 281 281 282 281 280 279 279 279 277 277 276 275 276 275 275 275
294 293 293 293 294 291 291 291 288 287 284 282 281 280 281 281 282 281 281 279 279 280 283 281 283 280 282 282 279 281 282 281 280 279 278 275 277 276 275 276 275 275 275 274
291 292 293 293 292 287 287 287 286 285 285 282 281 282 283 284 281 280 280 280 282 283 283 283 282 282 282 282 278 280 281 279 279 278 278 277 277 274 274 274 274 274 274 274
289 290 289 288 286 286 286 284 284 283 284 282 281 281 280 282 282 284 282 281 284 284 282 283 283 283 284 282 280 283 280 279 279 278 277 276 276 275 276 275 275 274 273 273
290 289 287 286 286 286 286 285 285 284 283 283 281 281 282 284 284 283 281 283 283 284 284 283 283 284 283 281 282 282 281 280 278 278 278 276 274 273 274 274 273 273 273 272
290 290 289 287 286 287 287 285 285 284 284 283 284 284 283 283 284 282 281 284 283 284 283 283 284 283 280 281 282 282 281 279 278 278 277 277 274 272 273 273 273 272 271 272
290 289 289 288 287 285 284 285 285 285 284 285 284 283 283 285 284 287 286 284 284 284 284 284 283 281 280 281 282 282 281 280 279 279 277 269 274 272 273 273 272 272 271 270
287 287 287 286 285 285 285 285 285 285 284 285 285 284 284 285 283 284 284 284 284 284 284 284 281 280 280 281 281 281 281 280 279 278 278 276 273 272 274 273 271 271 270 270
289 288 286 286 286 287 286 287 285 287 287 286 286 285 286 285 284 285 285 285 284 284 284 284 283 282 281 281 282 281 280 280 277 276 276 275 273 271 272 272 272 272 271 269
288 286 286 285 287 287 287 288 287 287 285 285 284 284 285 284 285 283 284 284 283 284 284 284 284 283 282 282 282 281 280 280 277 277 277 276 274 273 272 271 272 271 270 269

GFSNGP_sfc_thetae_003.txt.gz
Theta_e
293 295 295 294 293 293 291 290 285 289 290 294 295 296 297 299 300 300 299 299 300 300 300 298 300 300 296 295 296 296 293 290 291 291 292 291 290 290 290 290 290 290 289 287
288 294 294 290 291 292 291 291 291 291 290 296 296 299 298 298 299 298 299 299 300 300 300 300 300 297 296 296 297 297 296 295 295 294 293 292 291 291 290 288 287 286 285 285
286 290 288 281 287 290 291 293 291 285 290 297 296 297 297 298 298 298 299 299 299 299 299 300 298 296 294 296 297 297 296 295 295 295 294 293 292 289 287 285 284 283 282 282
284 282 279 289 296 295 292 294 294 295 296 297 297 300 300 300 297 298 298 299 297 298 298 296 294 294 295 296 298 296 295 295 295 294 292 289 288 287 284 282 281 281 281 281
284 282 285 289 293 290 289 289 296 295 297 299 300 298 297 300 299 298 299 298 298 297 295 293 293 294 295 294 295 295 293 293 289 289 287 286 285 282 281 280 280 280 281 281
281 278 278 285 294 299 297 285 296 298 297 297 296 288 292 298 300 299 299 298 296 296 293 292 293 294 294 294 293 287 287 287 288 287 286 284 282 280 280 280 280 280 280 281
273 280 283 292 297 300 283 287 295 298 299 297 294 294 299 300 298 298 297 295 294 293 294 294 294 293 289 284 284 287 288 288 287 286 284 283 281 280 279 279 279 274 273 276
281 283 279 297 295 286 292 295 299 296 296 297 298 298 297 297 297 296 292 292 292 292 292 292 292 290 283 284 287 288 287 286 285 284 284 283 279 278 279 278 274 272 270 272
285 284 294 297 296 298 300 298 297 297 298 298 297 296 294 292 294 291 291 290 292 291 293 293 288 286 286 286 287 286 285 284 283 283 283 280 278 278 278 276 273 271 275 274
287 293 295 297 299 300 300 298 301 301 300 298 296 294 291 292 290 289 289 289 291 291 290 289 287 286 286 286 286 285 283 282 282 280 280 278 279 279 277 272 271 275 274 275
290 294 296 297 297 299 300 302 301 300 298 298 294 292 291 291 290 288 289 289 291 289 289 287 286 285 286 285 284 282 281 281 280 279 278 278 279 278 276 275 274 277 277 278
288 295 295 296 298 301 300 299 300 297 294 294 293 291 291 290 289 288 288 290 291 291 286 286 285 284 285 284 282 281 281 280 277 276 276 277 277 278 281 281 282 281 282 280
296 299 299 299 299 299 298 298 296 295 294 294 293 291 289 288 290 290 292 291 288 287 286 285 284 284 284 281 281 278 277 279 277 277 275 274 274 274 272 275 280 280 281 280
300 300 298 298 295 297 296 296 296 295 295 294 292 291 290 289 290 289 288 286 287 287 286 284 283 282 283 282 279 276 275 276 273 272 272 272 271 274 268 271 268 270 278 278
299 300 297 295 294 293 294 294 293 292 292 291 291 289 289 288 287 287 287 285 284 285 284 283 281 281 284 283 281 280 279 277 272 271 269 270 273 269 268 268 268 271 275 275
295 295 293 292 292 292 292 292 291 292 290 290 289 286 286 285 284 284 284 282 280 280 282 278 275 280 283 282 281 279 278 276 274 273 271 272 270 269 268 268 267 273 273 273
289 288 289 288 290 290 290 291 290 288 288 286 282 280 282 278 277 278 281 278 276 275 276 274 277 282 283 282 280 276 275 278 279 279 277 274 270 268 271 267 266 272 273 274
292 292 291 290 290 289 286 286 284 283 284 284 277 275 273 272 275 276 276 276 275 274 274 276 281 280 278 282 280 277 274 278 278 274 274 269 268 271 268 267 265 271 273 273
289 288 289 290 289 286 285 284 282 283 282 280 277 277 275 276 276 276 274 270 269 273 281 281 282 281 281 280 279 272 272 276 274 272 272 271 269 268 268 265 265 269 272 271
288 288 289 288 288 282 282 280 285 284 281 278 277 275 280 278 274 273 280 277 280 281 280 280 280 279 279 279 276 274 271 270 271 273 272 269 268 268 268 267 269 268 269 271
285 285 283 281 282 280 277 284 284 280 282 280 276 278 276 275 277 282 272 277 281 281 281 281 281 280 282 280 277 273 272 274 274 270 271 270 265 265 266 264 268 267 267 269
285 282 281 280 285 286 286 285 283 282 282 278 278 275 278 277 273 273 269 280 282 282 281 280 280 281 279 275 274 279 279 277 271 272 271 268 265 265 264 266 268 266 266 267
285 284 284 280 284 286 286 285 285 283 281 280 278 282 282 276 275 272 276 280 282 282 281 281 282 281 280 279 280 280 279 277 271 270 272 269 266 263 264 266 268 266 265 266
284 284 284 281 281 284 284 284 283 281 281 280 284 284 276 274 275 280 281 282 282 282 282 282 280 280 279 279 280 279 279 277 273 272 272 269 268 264 265 267 267 266 265 267
283 283 282 277 281 282 284 284 281 281 280 282 283 283 282 282 281 282 278 281 282 282 282 282 280 279 279 279 280 279 277 275 272 272 273 270 268 263 266 267 266 266 267 266
283 284 282 283 285 286 285 282 282 282 281 281 284 284 283 280 282 279 271 280 281 281 281 282 281 280 279 280 280 279 273 271 271 270 272 271 268 265 263 265 266 268 267 265
284 280 281 283 284 285 285 284 284 284 284 282 280 282 282 281 282 281 281 281 280 280 281 282 282 281 280 280 275 276 277 272 274 271 271 271 271 268 265 264 265 267 265 265

GFSNGP_sfc_thetae_006.txt.gz
Theta_e
291 292 293 293 292 292 290 289 282 286 287 291 293 293 295 297 298 298 298 298 298 297 297 298 298 298 295 295 295 294 291 289 289 290 290 290 289 289 291 290 289 289 288 286
288 292 292 289 292 291 290 290 289 289 288 295 297 297 297 297 298 297 297 298 298 299 299 298 298 296 295 294 294 295 294 295 295 294 293 292 293 293 292 289 288 286 284 283
283 287 286 284 287 288 289 291 289 284 288 295 295 296 297 297 298 297 297 297 297 298 298 297 295 294 293 293 295 296 296 295 295 295 294 293 292 291 287 284 283 282 281 281
279 283 278 289 293 293 290 291 292 293 294 295 296 298 299 299 298 296 297 298 298 297 296 295 294 293 293 293 294 294 294 294 293 292 290 288 286 284 282 281 280 280 280 280
280 281 285 289 291 288 286 288 294 293 295 296 297 296 294 298 299 299 299 298 298 295 294 293 291 292 292 291 292 290 286 286 286 286 286 285 282 280 280 279 279 279 280 279
282 279 278 284 291 296 295 283 295 295 295 295 295 289 293 298 299 298 298 296 293 293 292 291 291 291 285 284 285 285 287 287 287 287 285 282 281 280 279 278 278 279 280 279
273 278 280 289 294 296 279 283 292 295 296 296 295 296 298 299 297 296 292 292 292 292 291 291 293 289 284 284 284 287 287 287 286 285 283 282 280 279 278 278 277 272 271 274
280 279 279 294 295 287 290 292 296 296 295 296 297 296 296 296 295 293 291 291 291 290 290 293 287 285 284 283 286 287 286 285 284 283 283 282 279 278 278 276 273 272 269 271
283 283 291 294 296 296 298 296 295 297 299 297 295 294 295 291 290 290 290 289 290 289 291 290 286 286 284 284 285 284 283 282 282 282 281 280 278 277 277 275 272 271 274 272
287 291 293 295 298 299 297 295 300 300 297 298 294 295 292 292 290 290 288 288 289 291 289 287 285 284 284 285 284 282 281 281 281 280 279 278 278 278 276 271 270 275 273 274
290 294 295 296 296 297 300 300 298 298 297 295 294 293 291 289 289 288 288 288 290 290 289 287 285 284 284 284 283 282 281 281 280 279 277 278 278 277 276 275 274 273 273 277
288 295 294 295 299 298 296 295 294 293 293 293 293 292 291 289 288 288 287 290 290 290 286 285 284 283 284 283 282 281 281 280 276 275 274 277 277 277 281 280 281 281 281 278
296 299 298 299 298 298 295 295 296 295 294 292 292 291 290 288 288 289 290 289 289 287 286 284 284 283 283 282 279 278 277 278 276 276 275 274 272 273 269 273 279 279 280 279
300 298 295 295 293 295 294 294 294 293 294 293 291 290 289 288 288 287 287 287 286 285 284 283 283 282 283 281 278 274 273 274 274 274 273 273 268 268 268 266 265 268 275 277
298 296 295 295 294 292 293 293 292 290 291 291 290 288 288 286 285 284 284 284 283 283 284 283 281 280 282 282 280 279 278 274 270 272 272 270 268 268 266 265 266 266 267 274
293 293 293 291 290 292 292 290 290 289 289 288 287 285 285 283 283 283 284 283 280 280 280 276 273 279 281 281 281 279 278 276 274 274 274 272 271 267 268 266 266 265 266 272
288 287 288 287 287 287 288 289 287 286 287 286 283 279 281 278 280 280 280 279 276 274 273 276 278 282 282 282 280 277 278 276 278 277 270 272 268 266 266 264 264 264 269 271
290 289 287 287 286 286 285 285 282 282 282 282 278 275 277 274 277 278 278 276 275 274 280 280 280 281 278 281 279 276 272 277 276 271 271 267 266 268 264 264 263 264 269 270
288 288 288 287 287 285 284 283 281 280 281 284 280 279 276 274 279 277 276 274 276 275 279 275 281 280 279 281 279 271 269 271 271 272 269 266 264 264 264 262 262 265 267 268
289 289 288 286 285 281 282 281 278 280 283 282 279 279 277 279 278 277 279 277 279 280 279 280 280 279 279 278 278 273 271 270 273 268 264 264 264 263 264 265 266 265 264 266
285 285 283 281 281 281 286 285 284 284 284 282 282 278 279 275 277 278 272 277 278 281 281 280 279 279 281 277 276 273 277 277 273 266 264 264 263 261 259 264 267 264 264 265
285 282 281 280 279 280 283 285 282 283 284 282 276 278 276 278 274 272 273 279 281 281 280 279 279 280 279 278 277 278 278 277 273 264 265 266 265 261 260 263 265 264 264 264
285 284 283 281 282 282 284 286 282 285 284 282 277 279 280 278 275 273 275 279 281 281 280 280 280 280 279 279 279 279 278 278 270 268 268 267 265 261 259 264 265 264 264 265
284 283 283 283 279 282 282 282 280 283 284 278 281 282 281 278 273 279 280 281 281 281 281 281 280 279 278 278 278 279 279 278 271 269 270 268 267 263 260 264 265 264 264 264
283 282 282 280 280 282 281 281 281 282 281 281 282 282 282 282 281 275 280 279 280 281 280 280 281 280 278 278 279 279 279 271 268 268 268 267 267 264 261 263 263 264 263 263
284 284 284 283 283 284 284 280 282 282 282 281 281 283 283 280 280 280 280 280 279 280 279 280 280 280 280 279 277 278 278 275 269 266 265 264 265 265 263 261 261 263 263 262
283 278 280 282 282 283 283 283 284 282 283 283 283 284 282 281 280 280 280 280 279 279 279 280 280 280 280 280 278 278 273 276 272 267 267 268 264 266 265 263 263 263 263 262

GFSNGP_sfc_thetae_009.txt.gz
Theta_e
288 290 290 291 290 291 289 288 284 286 286 291 292 293 294 296 296 297 298 298 298 298 298 298 297 296 296 294 294 294 294 289 288 290 290 289 291 292 292 292 291 289 287 285
285 290 290 288 290 290 290 290 288 288 286 292 295 296 296 296 297 296 296 298 298 297 298 297 297 295 294 293 293 294 293 293 294 295 295 294 294 293 291 290 287 285 283 282
278 286 284 280 285 287 288 289 288 283 287 292 293 294 295 296 296 296 296 297 296 296 297 297 295 294 292 292 293 293 293 293 293 294 294 293 293 291 286 283 283 281 281 281
276 284 275 287 291 292 289 290 290 290 292 294 294 296 297 298 296 295 296 297 297 297 296 295 294 292 291 291 291 291 289 286 288 288 287 285 284 282 281 280 280 279 279 280
280 280 282 288 290 287 285 286 292 292 293 295 296 294 293 297 296 295 295 296 296 295 294 292 291 290 286 285 285 286 286 286 286 287 286 283 281 280 279 278 279 279 280 280
281 279 277 284 289 293 293 283 293 294 293 294 293 288 292 298 296 295 295 296 293 293 292 290 291 285 286 285 286 284 287 286 285 284 283 281 280 279 279 279 279 279 279 278
278 278 280 288 291 293 281 284 291 294 295 293 291 294 297 296 295 295 294 293 293 290 289 290 290 286 284 283 284 285 285 285 284 284 283 281 279 279 278 277 277 272 271 273
279 279 276 292 293 286 291 291 294 294 293 293 294 295 294 294 295 293 291 290 290 289 289 290 285 284 282 281 283 284 284 283 282 282 281 280 278 278 277 276 274 272 268 271
283 283 290 292 294 295 296 293 292 293 298 297 294 293 292 292 293 291 289 288 288 288 289 291 286 284 283 283 284 283 282 281 281 281 280 279 278 277 276 275 272 271 274 273
287 291 292 295 298 299 297 294 299 297 295 292 290 291 291 293 290 289 288 286 287 288 288 287 287 285 285 284 284 282 281 281 281 279 279 278 278 278 276 273 271 274 273 273
290 294 295 296 297 297 299 297 294 294 293 293 292 291 291 290 289 288 287 287 288 288 287 287 286 283 284 284 283 282 281 280 279 279 277 278 278 277 277 276 273 273 272 275
289 295 294 296 298 297 294 293 294 293 293 293 292 290 291 289 288 286 286 287 288 288 286 284 283 282 283 283 282 281 281 280 276 275 274 277 276 277 280 279 280 280 280 277
295 299 299 299 295 295 294 294 295 295 294 292 291 290 289 288 287 288 289 288 286 286 285 283 282 282 281 280 278 277 275 277 275 275 275 275 273 272 268 272 278 278 279 278
299 299 295 294 291 294 294 293 293 292 292 292 291 289 288 288 287 285 284 284 284 283 282 281 281 280 281 281 277 273 272 272 270 270 270 273 270 271 266 265 264 267 273 276
295 295 294 293 293 292 291 291 291 289 290 289 289 287 286 285 284 283 283 283 282 282 281 280 279 280 280 281 280 278 279 276 272 268 268 268 270 269 265 265 263 265 267 270
291 292 293 289 290 289 288 287 287 286 285 285 285 284 284 283 283 283 282 281 279 277 278 277 273 279 282 283 282 280 279 276 272 274 273 269 269 265 266 263 264 264 263 267
286 287 286 284 284 284 284 286 285 284 283 283 281 281 282 281 280 278 278 275 270 270 279 279 279 282 281 282 282 278 275 275 277 277 270 269 266 266 265 266 262 264 262 267
287 287 286 286 285 284 283 284 283 282 282 282 282 283 282 280 277 275 275 272 270 278 278 275 276 281 279 281 280 275 271 273 275 269 268 265 265 265 263 264 263 262 261 267
289 288 289 288 287 285 284 283 281 280 280 278 279 282 280 279 276 278 275 274 271 274 276 276 280 280 280 280 280 276 270 271 269 270 267 265 263 263 262 262 262 261 262 265
286 288 288 287 286 282 282 283 284 283 284 283 280 279 280 278 276 276 276 274 276 277 279 280 279 278 275 278 277 274 271 273 275 270 262 262 259 259 258 262 265 262 260 262
283 283 282 281 281 280 277 282 282 282 283 280 283 282 281 276 273 273 275 278 277 279 281 280 279 278 280 279 278 277 276 277 276 266 263 262 259 260 258 257 261 261 260 262
283 282 281 280 280 281 281 279 281 285 283 285 285 283 277 277 277 278 278 277 279 281 279 278 279 279 278 278 278 278 278 278 276 266 265 264 259 259 258 257 260 260 260 262
283 282 282 279 280 282 280 279 281 283 282 284 284 280 280 279 279 277 277 277 279 280 279 279 280 280 279 278 278 278 278 277 277 267 267 266 264 259 258 258 259 260 260 263
283 282 282 282 279 276 278 282 280 279 277 279 279 282 281 280 278 279 278 279 279 280 280 281 280 279 279 277 278 278 278 278 273 266 267 267 263 262 257 257 259 258 259 262
281 281 281 279 279 281 281 282 279 278 278 280 279 282 282 282 280 276 274 276 277 279 279 279 274 273 275 278 276 277 277 277 271 265 264 264 265 264 258 257 257 257 258 260
282 283 283 283 282 283 283 283 282 283 281 281 280 281 282 282 282 280 280 279 277 279 279 279 278 276 276 274 274 275 272 273 272 267 265 264 263 265 263 258 257 257 258 259
280 276 282 283 282 282 283 284 284 284 283 281 278 281 283 282 281 280 279 279 278 278 278 279 278 278 274 269 269 270 274 272 270 271 268 267 267 268 267 265 261 259 257 258

GFSNGP_sfc_thetae_012.txt.gz
Theta_e
287 289 288 289 288 289 286 286 284 287 285 290 292 291 294 295 296 298 297 297 297 296 298 298 298 298 296 295 293 293 293 291 289 290 290 291 291 291 292 291 291 289 286 285
283 286 287 284 288 289 288 288 288 288 287 293 291 294 294 295 296 296 296 295 296 296 295 296 297 295 294 294 293 293 292 292 295 295 294 292 293 292 292 292 291 286 282 281
277 283 283 277 283 286 287 289 287 283 288 289 291 293 294 295 295 295 294 295 293 294 295 297 295 294 293 292 291 292 290 290 291 291 290 289 290 288 284 282 281 280 280 280
276 283 272 286 290 291 288 289 290 289 289 292 293 293 294 296 295 293 292 294 294 294 296 293 293 291 289 287 287 286 286 287 288 288 287 286 283 281 281 281 280 279 279 280
281 281 281 288 288 286 284 285 290 289 292 293 294 292 292 294 294 294 294 294 294 293 293 291 290 286 284 284 284 285 286 287 286 283 283 282 281 280 280 279 279 279 280 279
281 278 275 284 288 290 292 282 291 294 293 293 291 286 291 294 295 294 295 295 293 292 291 290 290 285 287 286 285 283 284 283 283 282 281 280 279 278 279 278 279 280 278 278
279 279 282 288 290 292 281 284 290 294 293 291 288 292 292 293 292 293 294 293 292 289 288 289 290 287 284 282 282 283 284 283 282 282 280 279 278 278 277 277 277 273 271 273
278 279 276 290 290 286 291 291 293 291 290 294 293 292 291 291 291 291 291 291 290 288 288 290 290 285 282 280 284 284 283 281 280 280 280 279 278 277 277 276 274 272 269 271
286 282 289 293 294 294 294 292 292 291 295 293 290 290 291 290 291 291 290 288 288 287 288 289 288 284 286 287 286 283 281 280 280 280 280 279 277 276 276 275 272 271 274 273
287 290 292 296 297 297 295 295 295 294 293 293 291 291 290 290 290 289 289 287 286 286 287 286 287 286 283 283 283 281 280 280 280 279 279 278 278 278 276 273 271 274 273 273
288 294 294 295 294 295 295 295 294 294 293 292 291 290 290 289 288 288 287 286 287 287 286 286 286 285 283 283 282 281 281 280 279 279 278 278 278 277 276 275 273 274 272 272
289 295 295 296 296 297 294 293 294 293 291 292 291 289 289 288 288 287 286 286 286 286 285 286 284 282 282 282 281 280 280 280 275 275 274 276 276 276 280 279 280 279 279 276
295 299 299 296 295 295 294 294 294 291 291 291 290 289 287 286 286 288 286 286 284 283 283 282 282 281 281 279 277 276 274 276 273 274 274 272 272 272 270 273 277 278 278 277
299 298 294 294 291 294 293 291 290 290 291 290 288 287 286 285 285 284 283 283 284 282 281 280 280 280 280 280 277 272 271 271 271 273 269 269 265 269 268 265 264 266 272 275
294 293 292 293 292 290 289 288 286 285 286 286 286 284 284 283 283 284 284 282 283 282 280 280 278 279 280 281 280 277 277 274 272 267 266 266 265 266 264 263 262 264 266 269
290 291 290 286 286 285 285 284 284 284 284 283 283 283 283 282 283 284 284 281 277 278 279 279 278 278 282 283 282 281 278 275 271 269 271 267 266 265 266 264 263 264 266 264
286 284 284 283 284 284 283 284 284 283 283 283 282 282 283 282 279 280 278 274 270 272 277 279 275 281 281 282 281 278 274 273 273 274 270 268 264 264 263 267 265 264 262 260
286 286 286 286 285 284 283 283 282 282 281 282 281 280 282 281 279 280 273 272 269 275 278 275 275 280 279 281 281 278 275 271 270 268 268 264 264 264 262 262 264 263 261 264
287 286 286 286 286 285 284 283 282 280 283 284 283 281 281 282 279 276 276 278 276 273 276 274 280 280 279 277 279 277 276 271 270 274 266 263 261 261 259 258 261 259 259 263
284 284 284 283 282 280 281 282 279 281 282 281 284 283 282 283 282 275 277 276 278 278 278 279 279 278 277 278 277 276 273 274 274 269 260 261 258 257 257 258 262 260 256 260
282 282 281 280 280 280 278 279 277 279 281 277 283 284 283 283 278 277 273 277 279 276 280 280 278 278 279 278 278 278 277 276 276 267 262 262 260 259 256 254 255 257 257 259
282 280 278 278 278 280 281 279 278 277 278 283 285 284 284 281 277 277 279 280 280 280 279 278 278 278 278 279 277 278 278 278 277 268 262 262 262 261 258 255 256 257 257 258
282 281 281 278 278 281 281 280 279 279 279 281 284 283 283 279 278 275 275 278 277 279 278 277 278 279 280 277 277 277 277 277 276 273 263 265 265 264 259 258 255 257 256 257
281 280 281 280 277 276 277 282 281 280 277 279 277 282 281 276 275 276 276 278 277 276 272 277 280 278 279 277 276 277 277 277 277 267 267 262 259 262 260 256 256 255 254 255
279 279 279 276 278 282 281 281 281 281 279 278 279 280 279 280 278 274 273 273 274 273 273 277 277 275 275 277 277 276 275 274 277 271 263 262 262 261 261 257 258 258 255 255
281 281 282 281 281 283 282 281 282 284 284 283 277 277 278 277 277 278 280 280 274 275 276 278 278 276 274 271 275 277 277 272 272 271 268 268 265 267 266 263 260 262 261 260
278 276 279 281 281 279 281 284 284 284 285 285 284 276 278 281 280 280 279 279 277 277 272 276 276 277 277 272 267 267 269 273 271 271 270 269 266 267 268 267 266 265 261 260

GFSNGP_sfc_thetae_015.txt.gz
Theta_e
290 291 290 290 290 290 289 290 286 289 290 293 296 296 297 300 300 299 300 301 300 298 297 298 299 299 299 299 298 298 298 297 296 295 295 295 295 294 295 294 294 295 292 288
286 288 288 286 289 290 290 291 290 291 290 297 297 298 298 298 298 298 298 297 296 296 296 297 298 296 296 296 296 296 295 294 292 292 292 293 293 294 294 292 288 287 286 285
283 285 285 283 287 289 290 292 291 287 292 295 295 296 297 297 298 296 294 294 293 294 296 297 296 295 295 294 294 292 292 291 291 292 292 291 289 288 287 286 286 285 285 285
284 283 279 289 293 293 291 292 292 292 293 294 297 298 298 297 295 293 293 292 294 295 297 296 295 295 292 291 291 290 290 291 292 289 287 287 287 286 285 285 285 284 284 285
282 282 285 289 291 291 290 289 294 293 295 297 298 298 296 295 295 294 293 295 295 298 296 294 294 294 289 289 289 290 289 288 287 287 286 286 285 284 284 284 284 284 284 283
283 280 279 288 291 294 295 286 295 296 296 296 296 288 294 293 294 294 295 295 296 296 294 293 295 295 291 290 290 287 287 287 287 286 285 284 284 284 284 284 283 283 282 282
283 281 285 292 293 295 285 288 294 296 296 295 292 292 292 293 294 295 294 294 297 294 292 293 294 294 291 288 286 288 288 286 286 285 285 285 284 284 283 283 282 281 281 281
282 280 279 293 293 290 295 297 296 297 296 296 293 293 292 294 294 293 293 294 295 292 292 293 294 291 288 288 290 290 287 286 285 285 284 283 283 283 283 282 281 281 280 281
287 288 294 295 297 298 297 295 296 296 293 293 292 292 293 293 293 294 293 294 293 291 291 293 293 292 289 291 291 290 286 285 285 285 284 284 283 283 282 282 281 280 279 279
289 294 295 297 300 298 298 295 295 295 295 295 293 293 292 293 293 292 293 292 292 291 290 291 293 291 291 290 288 287 285 285 285 284 284 284 284 283 282 281 280 279 278 277
290 295 296 297 297 298 295 295 295 296 295 294 293 293 293 293 292 291 291 291 291 290 290 291 292 290 290 288 287 285 285 284 284 284 283 282 282 282 282 282 280 279 278 278
290 297 296 296 297 297 294 294 295 294 293 293 293 292 292 290 290 290 289 290 289 290 289 287 287 286 286 286 286 285 284 284 284 283 283 281 281 281 281 279 279 279 279 278
297 299 298 296 295 295 294 294 292 291 291 290 291 291 290 288 289 288 289 289 288 287 285 286 285 284 284 284 283 282 282 282 283 280 282 281 280 279 278 279 278 277 277 277
298 298 293 294 291 293 290 290 290 290 290 289 289 289 288 288 288 288 287 288 287 285 285 284 283 283 284 285 283 281 281 276 282 282 281 280 280 279 278 276 275 276 276 275
292 293 291 290 290 289 289 289 287 287 287 287 289 288 288 287 287 287 287 287 286 285 284 283 281 282 284 284 283 281 282 282 282 282 281 279 279 278 278 277 276 275 275 274
288 289 289 288 288 288 288 288 286 286 287 287 287 287 287 285 284 285 286 285 281 282 281 280 280 282 283 284 283 283 283 280 278 281 281 279 279 278 277 276 275 274 273 272
288 286 287 286 286 287 287 287 287 286 286 286 285 283 283 283 283 282 283 281 278 277 279 280 281 282 282 283 283 282 282 282 277 281 280 279 278 277 276 276 275 274 273 272
289 288 288 287 286 286 286 287 286 285 284 286 284 284 284 281 282 282 282 281 278 279 280 282 280 281 281 283 282 282 280 279 281 280 279 279 277 277 276 275 274 273 273 273
287 286 286 285 286 285 285 285 284 284 283 282 281 282 284 284 284 284 283 279 279 279 281 281 281 282 281 281 281 281 280 280 280 280 279 275 277 277 275 275 274 274 273 272
285 286 286 285 284 282 282 283 282 282 283 282 280 280 283 285 285 284 282 279 282 282 282 282 282 281 281 280 281 281 280 280 280 280 278 277 276 276 275 271 272 274 273 272
283 284 282 281 281 281 279 280 279 280 283 281 278 280 282 285 285 284 279 280 283 282 282 282 282 282 282 282 281 281 280 281 281 281 279 278 276 276 275 274 274 273 274 273
284 282 280 280 280 281 282 282 282 280 279 279 279 281 284 284 285 282 280 282 284 282 283 283 283 282 282 282 282 281 281 281 281 281 279 278 277 276 276 275 274 274 274 273
283 282 282 280 279 282 282 281 280 280 280 281 281 281 282 284 285 282 281 283 283 281 283 284 281 282 283 283 282 281 281 281 281 281 280 278 277 276 276 275 275 273 273 273
283 283 282 282 280 279 280 284 284 283 282 282 283 281 281 283 284 283 283 281 277 279 282 282 283 282 279 283 282 282 281 281 281 281 280 274 276 275 275 274 273 274 272 270
282 281 281 279 281 282 283 283 283 283 284 284 285 285 283 284 283 284 282 282 280 280 282 277 281 281 281 282 282 281 280 280 280 281 279 278 277 276 276 275 273 273 273 272
283 283 283 282 282 283 283 283 282 283 284 283 285 286 285 283 283 283 282 282 282 280 282 282 283 282 282 281 280 279 279 280 280 279 278 278 278 277 276 275 274 273 272 272
281 278 281 282 283 284 283 283 283 283 284 284 284 286 284 283 284 283 282 283 283 282 282 282 282 282 282 281 280 279 278 279 277 277 278 278 278 277 276 276 276 275 273 271

GFSNGP_sfc_thetae_018.txt.gz
Theta_e
295 295 295 294 293 294 292 294 289 292 293 297 299 300 301 303 303 303 303 303 303 302 299 300 301 302 301 300 300 301 300 299 298 297 296 297 297 297 297 296 295 294 292 291
290 294 294 292 294 294 294 295 295 295 294 300 301 302 301 301 302 301 301 300 300 298 297 298 300 300 298 298 299 299 297 297 296 296 296 296 295 294 293 292 292 291 290 290
288 291 291 288 292 293 295 296 295 291 296 299 299 299 300 301 301 300 298 298 298 297 297 300 300 298 298 297 298 297 296 295 295 295 293 293 292 291 290 290 290 290 289 289
288 288 284 292 298 297 295 296 297 297 298 299 300 302 303 302 299 296 295 296 297 298 299 300 299 298 298 297 296 296 295 294 293 292 291 291 290 289 289 290 289 289 288 288
285 286 290 293 294 294 293 293 299 297 299 301 302 302 300 298 295 295 298 297 298 299 300 300 298 298 298 297 296 295 293 293 292 292 290 289 288 288 289 288 288 288 287 287
287 283 282 292 296 298 298 289 299 300 299 297 298 293 295 294 296 298 298 298 297 298 300 299 298 298 296 295 295 293 293 293 293 291 289 288 289 288 289 289 287 287 286 286
287 285 289 297 297 299 287 291 299 299 296 296 294 293 294 296 297 298 298 298 298 298 298 298 298 297 295 294 292 293 293 293 292 290 289 289 289 289 289 288 287 285 284 284
286 282 282 298 297 291 298 301 301 300 297 294 294 295 295 296 296 297 297 297 297 296 296 297 298 297 295 293 294 294 294 293 291 290 289 288 289 289 288 287 285 284 284 284
292 293 301 302 301 303 304 301 298 296 295 297 296 295 295 295 296 296 296 296 297 295 295 296 297 297 294 294 295 294 293 292 290 289 289 289 288 288 286 285 283 282 281 281
294 297 299 302 304 304 302 296 296 297 297 296 294 294 294 294 295 295 296 295 295 294 293 293 295 295 295 294 294 293 291 290 290 289 288 289 288 286 285 283 281 280 280 279
296 299 300 301 301 300 297 297 296 296 296 294 293 293 293 293 293 293 293 294 293 292 291 291 293 292 293 292 291 289 290 289 289 288 288 287 286 285 284 283 281 280 280 280
292 300 298 296 298 297 295 294 295 293 292 293 293 291 292 291 292 292 292 293 292 291 291 291 290 290 290 289 289 288 287 288 288 288 287 285 284 284 282 280 279 279 278 278
296 300 299 297 296 296 295 293 292 292 293 292 292 292 291 291 291 291 292 291 291 291 290 290 290 289 289 288 287 285 286 286 287 285 285 284 283 282 280 282 280 278 277 277
299 300 295 294 293 293 292 293 294 293 292 292 292 292 292 291 291 291 291 292 292 291 290 289 288 287 288 288 285 285 285 282 284 284 284 283 282 281 281 279 279 280 279 276
294 296 294 293 293 293 293 292 290 290 291 291 292 292 292 291 291 290 291 291 291 289 288 288 286 285 287 285 284 284 284 284 284 284 283 282 282 281 280 279 279 279 279 277
292 293 292 290 290 290 289 289 288 289 290 290 290 290 290 291 290 290 288 287 284 284 285 284 283 285 284 285 285 284 283 282 282 282 282 282 281 280 279 279 279 278 278 276
290 288 288 288 287 288 288 289 289 289 289 289 288 289 288 287 286 286 287 286 285 284 283 283 284 285 284 285 284 283 283 283 281 283 282 281 280 280 279 279 279 278 278 276
290 290 289 289 288 288 288 289 289 288 288 288 286 285 284 284 285 286 286 286 285 284 284 284 284 284 283 284 284 283 284 283 283 282 281 281 281 280 279 279 279 278 278 277
289 289 289 289 290 289 288 288 288 287 286 286 285 284 285 284 285 287 286 285 284 283 285 284 282 283 283 283 283 283 282 283 283 282 282 280 281 280 279 279 279 278 277 277
288 289 290 290 289 287 286 287 286 287 287 286 285 284 284 284 286 286 286 285 286 286 286 284 284 284 284 283 282 282 282 282 282 282 282 281 280 280 280 278 278 278 278 277
287 288 288 287 286 286 285 285 284 284 286 285 284 283 283 284 285 286 285 285 287 285 285 284 284 285 285 283 283 284 283 283 283 283 282 282 280 280 280 279 278 278 278 277
287 287 286 286 285 286 287 288 287 285 285 284 284 284 283 284 286 286 286 286 288 284 286 285 286 284 284 283 284 284 283 283 283 283 282 282 281 280 279 279 278 278 278 277
287 287 287 286 285 286 287 286 285 285 284 284 284 284 284 285 286 285 284 288 288 286 287 287 285 283 283 285 285 284 284 283 283 283 283 282 281 280 280 279 279 278 278 278
287 288 287 287 287 285 285 287 286 286 286 286 285 286 286 286 286 289 288 285 283 283 286 287 284 283 283 285 284 284 283 283 283 283 283 281 282 281 280 279 279 279 278 276
287 287 287 285 286 288 287 287 286 286 287 286 286 287 288 288 285 287 287 286 283 284 286 284 282 283 284 284 284 283 282 282 283 282 282 282 282 281 281 280 279 279 278 278
288 288 289 288 288 288 288 287 285 286 286 285 285 286 286 287 287 286 286 285 286 285 286 286 285 285 284 284 283 283 282 282 281 281 281 281 282 282 281 281 280 279 279 278
288 286 287 288 290 289 288 286 284 284 285 285 284 286 286 286 286 285 285 285 285 285 285 286 285 284 284 284 283 283 282 282 281 280 280 280 281 281 280 281 281 280 279 278

GFSNGP_sfc_thetae_021.txt.gz
Theta_e
297 297 296 295 295 296 294 295 291 294 295 299 301 301 303 305 305 304 304 304 305 303 303 302 301 302 303 301 301 300 299 299 299 298 297 297 297 296 295 295 294 293 292 292
293 296 296 293 295 296 296 296 296 296 295 302 303 304 303 303 303 302 303 303 301 300 300 299 300 301 300 300 299 299 298 298 298 297 296 295 295 294 293 292 292 292 291 291
289 295 293 289 294 295 296 297 296 292 297 302 301 301 300 300 301 302 301 299 297 298 299 300 301 301 299 299 299 298 297 297 296 295 294 294 293 292 291 291 291 290 290 290
289 289 284 296 300 299 297 297 299 299 300 301 301 302 303 302 300 300 299 299 300 299 299 300 301 301 300 299 298 297 297 296 296 294 293 293 291 291 290 291 290 290 290 289
287 288 292 295 296 296 294 294 300 299 301 302 302 302 301 301 301 301 301 300 300 300 299 299 300 301 299 298 298 296 295 295 295 293 293 292 290 290 290 290 290 289 289 288
289 285 283 294 299 300 300 290 302 301 300 300 300 293 296 298 300 300 300 300 299 299 299 299 299 299 298 297 297 295 294 294 294 293 292 291 290 290 290 290 289 289 288 287
288 286 291 298 300 302 289 292 302 301 299 297 294 296 298 299 299 300 299 299 299 299 298 298 298 298 296 295 295 295 295 295 294 294 292 291 290 291 290 289 289 288 287 287
289 285 283 301 299 293 300 303 301 301 298 295 297 298 298 298 297 297 297 297 298 297 297 297 297 296 294 294 295 297 296 295 295 293 292 291 290 290 289 288 287 286 285 285
294 294 303 303 301 305 304 303 301 299 298 298 297 296 296 296 296 296 296 296 297 295 295 295 295 294 292 294 295 295 294 294 293 293 291 291 290 289 287 287 286 283 282 282
297 299 300 302 304 304 304 301 299 298 299 298 296 295 294 295 294 294 294 293 294 294 293 292 293 293 293 293 293 291 290 291 292 291 290 290 289 288 287 286 283 282 281 280
298 301 301 303 301 300 300 300 300 298 297 296 294 294 293 292 292 292 292 293 293 292 292 292 293 292 293 292 291 289 289 289 289 290 289 288 288 287 286 285 283 281 280 279
294 301 298 298 299 300 299 297 297 295 294 295 295 293 293 292 293 292 292 292 292 292 292 292 292 292 291 291 290 288 287 287 288 289 288 286 285 285 283 282 280 279 278 278
301 303 302 299 299 300 298 296 295 295 295 293 293 293 293 292 293 291 293 292 292 291 292 292 291 289 289 290 289 286 285 285 286 285 285 284 284 283 281 283 281 281 278 277
302 301 295 297 297 297 295 296 296 294 294 293 293 293 292 291 291 291 291 292 292 292 292 290 289 288 290 289 287 286 285 283 284 284 284 284 283 282 282 281 280 281 280 278
298 299 298 298 296 295 295 293 291 291 292 291 292 291 291 290 290 291 292 292 291 289 289 289 288 288 288 287 285 285 284 284 285 284 284 283 283 283 282 281 280 281 281 281
297 296 295 293 292 292 291 291 290 290 290 290 290 290 291 291 291 291 291 291 287 286 285 285 284 286 287 287 286 286 285 283 283 283 283 283 282 281 281 280 280 280 280 279
293 292 291 289 290 290 290 291 290 289 290 290 289 290 288 288 287 289 289 289 288 286 286 285 284 287 286 286 285 284 284 284 283 283 283 282 282 282 281 280 280 280 280 278
294 292 291 290 290 290 290 290 290 289 289 290 288 286 285 285 285 286 286 287 287 286 287 286 285 286 285 286 285 284 283 283 283 283 283 283 282 281 281 280 280 280 280 280
291 290 291 291 291 291 290 289 289 289 287 287 287 285 286 285 286 287 287 286 285 285 288 288 284 283 284 284 283 284 283 283 283 283 284 283 282 282 281 281 280 280 280 279
289 290 291 291 291 289 289 289 288 288 289 288 286 285 285 285 285 284 285 285 286 289 288 287 285 284 285 284 282 283 283 283 282 283 284 283 283 282 281 281 281 280 280 279
288 289 289 290 289 289 287 287 286 286 288 287 285 284 284 284 285 285 285 286 288 287 287 286 285 286 286 285 284 285 284 283 283 283 283 284 283 282 282 281 282 281 280 280
289 289 288 288 288 288 289 289 289 287 286 286 285 285 285 285 286 286 287 286 290 285 287 287 287 286 286 283 285 286 284 284 283 284 284 284 283 282 281 281 281 281 280 280
288 288 289 288 287 289 290 288 286 286 285 286 285 285 286 286 287 285 285 289 289 288 287 288 286 284 283 284 285 285 284 284 284 284 284 284 283 282 281 280 281 280 280 280
289 289 289 290 289 288 286 290 290 289 287 286 286 287 287 285 287 288 290 288 285 284 285 287 285 284 283 284 284 285 285 284 284 284 284 283 284 283 282 281 280 280 280 280
289 289 289 288 288 289 290 290 290 290 289 288 289 289 288 288 286 286 287 287 285 285 287 285 284 283 284 285 284 285 285 285 284 283 282 282 283 284 284 283 282 281 280 280
289 289 290 290 290 291 291 291 290 289 287 287 289 288 288 288 288 287 287 286 287 286 287 286 284 284 284 285 285 285 284 284 283 282 282 281 281 282 283 283 283 282 281 280
290 288 290 291 291 291 291 290 287 286 286 286 285 287 288 287 287 286 286 286 286 286 286 285 285 285 285 285 285 285 284 284 283 282 281 280 280 281 281 281 281 282 282 281

GFSNGP_sfc_thetae_024.txt.gz
Theta_e
297 296 296 295 294 295 293 294 289 293 293 297 300 301 302 303 303 303 303 304 303 302 302 301 301 301 301 302 300 300 298 297 297 298 297 296 296 295 295 294 292 291 290 290
293 296 295 292 294 295 295 295 295 295 294 301 303 303 302 302 302 302 302 302 301 300 300 300 300 300 301 300 299 300 298 297 297 297 296 295 295 294 293 291 290 290 289 289
289 293 292 290 295 295 296 297 296 292 297 301 300 300 300 300 301 300 300 299 299 300 300 299 299 299 298 299 300 298 297 297 297 297 295 294 293 293 290 289 289 288 288 288
288 289 283 295 299 299 296 297 298 298 299 300 300 301 301 302 300 299 299 299 300 300 299 299 298 298 299 299 299 298 297 296 296 296 294 293 293 291 289 288 288 287 287 287
288 288 291 294 297 296 294 293 300 299 300 300 301 300 299 301 300 299 300 300 299 299 299 299 298 298 297 296 296 296 296 295 295 295 293 293 291 289 288 288 287 287 287 286
289 283 282 295 299 302 300 289 301 301 299 298 297 290 294 299 299 299 299 299 298 299 298 298 297 297 295 294 294 294 295 295 295 295 293 292 291 289 288 288 288 287 285 285
288 285 290 298 301 302 288 291 301 300 299 297 294 295 298 299 299 298 297 297 297 296 296 295 296 295 292 292 291 293 294 295 295 295 293 292 291 290 289 287 285 284 283 283
288 286 283 301 300 292 299 303 301 300 299 297 297 298 298 296 296 296 295 294 294 293 293 294 294 293 291 290 292 293 293 293 293 294 293 292 289 288 288 285 284 282 279 280
293 293 302 303 302 304 304 300 299 299 299 298 297 295 295 294 294 293 293 293 293 292 292 293 293 293 291 291 292 292 291 290 290 292 292 291 289 287 284 284 281 280 280 279
298 299 300 302 304 303 301 299 300 300 299 297 295 294 294 293 292 292 292 292 292 291 291 291 293 293 292 292 292 290 289 288 289 289 289 289 288 286 283 282 280 282 279 277
298 301 302 302 302 301 301 301 300 299 297 295 294 293 292 292 292 292 292 292 292 292 291 291 292 292 292 291 291 289 288 287 286 287 287 286 285 284 283 282 280 278 277 277
295 302 301 300 301 301 299 298 297 295 294 295 293 292 292 291 292 291 290 291 291 291 291 291 291 291 291 291 290 287 284 284 284 284 285 284 283 283 284 282 281 281 280 276
301 303 302 302 301 301 298 297 295 295 294 292 293 292 291 290 290 289 291 291 291 291 291 291 290 290 290 289 287 285 284 284 283 283 283 283 283 282 280 283 283 283 281 279
304 302 297 298 297 299 296 296 296 293 293 293 292 291 290 290 290 290 290 291 291 291 291 289 289 288 289 289 286 284 284 283 284 284 283 283 282 281 281 280 279 279 281 280
301 302 300 300 298 296 295 293 291 290 291 290 290 290 290 289 288 289 290 291 291 290 289 289 287 286 287 286 285 284 283 282 284 283 283 282 282 282 281 281 280 280 279 278
299 298 297 295 293 292 291 291 290 289 289 289 289 289 289 289 288 288 289 288 285 284 287 286 285 285 286 286 285 284 284 282 282 282 282 282 282 281 280 280 280 279 278 276
295 293 293 291 290 290 290 291 290 289 289 289 288 287 287 286 286 286 286 286 286 286 286 286 285 286 286 286 284 284 283 283 283 282 282 282 281 281 280 280 279 279 278 274
296 294 292 291 290 290 291 291 289 289 288 289 285 282 281 281 283 284 285 285 285 285 286 287 286 285 284 285 284 283 282 282 283 282 283 282 282 281 280 280 280 279 279 276
292 291 291 291 291 291 290 289 288 287 285 285 284 284 283 283 284 284 284 284 284 284 286 286 284 283 284 284 283 282 283 283 282 281 282 283 281 281 281 281 281 278 278 278
290 290 291 290 290 288 287 288 286 287 288 286 282 283 284 284 284 284 284 283 284 286 287 286 284 283 283 283 280 282 282 282 282 282 282 282 282 282 282 281 280 280 280 279
289 289 288 288 288 287 286 285 283 285 287 283 283 283 283 284 285 285 284 283 286 285 287 286 285 284 285 284 284 283 282 283 282 282 282 282 282 282 282 282 281 281 280 280
289 287 285 285 286 287 287 288 288 285 284 283 282 283 283 284 285 285 286 285 288 287 286 286 285 284 285 280 283 283 282 283 283 282 282 282 282 282 281 281 280 280 280 279
288 288 287 286 285 287 288 287 285 286 285 285 284 284 285 285 285 284 283 287 288 287 286 286 286 285 284 283 283 282 282 282 282 282 282 283 282 282 281 281 281 280 279 279
289 288 288 288 287 287 286 288 288 288 286 285 285 286 286 285 286 287 288 286 286 286 285 285 285 285 284 284 283 282 282 282 283 283 283 282 282 283 282 281 278 281 280 280
287 288 287 286 287 287 288 289 289 288 287 288 287 287 287 287 286 286 287 286 286 285 285 285 284 283 284 283 283 283 282 283 283 283 282 282 281 281 282 282 282 281 279 279
288 288 289 289 289 289 290 290 289 289 288 286 286 286 287 287 287 287 287 286 286 286 286 285 285 285 284 283 283 283 283 283 282 282 282 281 281 280 280 280 281 282 282 280
289 287 289 290 291 290 290 290 289 288 287 286 285 286 286 286 286 286 286 286 286 285 285 285 285 285 284 284 283 284 284 284 283 282 282 281 279 280 280 280 280 280 280 281

GFSNGP_sfc_thetae_027.txt.gz
Theta_e
294 293 293 292 291 291 290 290 283 287 290 295 296 296 298 299 300 299 299 298 298 296 296 297 296 295 296 297 297 296 295 295 293 294 293 293 293 292 292 291 289 288 288 287
286 293 292 289 291 292 292 292 291 291 290 298 299 299 297 298 298 297 297 298 297 297 298 297 295 295 295 295 296 296 295 294 295 294 294 293 292 291 291 288 287 287 286 286
281 289 287 281 289 293 293 294 292 285 292 297 295 295 295 295 296 296 297 296 296 297 297 295 294 294 292 293 295 295 295 295 294 295 294 294 294 292 289 286 285 285 285 286
277 280 272 292 296 296 294 294 295 295 296 296 295 295 297 296 294 294 295 296 296 296 295 294 294 293 292 292 292 292 293 293 294 294 293 293 293 291 287 286 284 284 284 285
280 279 285 291 295 293 289 290 297 296 296 295 295 295 295 297 295 294 295 296 295 293 293 292 292 292 291 290 289 290 291 292 293 293 293 293 289 288 288 286 285 284 285 283
277 276 272 287 296 299 297 282 297 297 295 294 293 283 288 295 296 297 295 293 291 290 290 290 290 290 289 287 288 288 291 291 292 293 291 289 288 289 288 286 285 285 283 282
276 275 282 294 298 299 282 284 297 296 295 293 289 290 294 296 294 293 292 290 290 289 288 288 289 289 288 286 286 289 290 290 290 291 291 291 289 287 285 284 283 280 279 280
283 281 276 298 297 287 292 297 296 295 295 293 294 296 295 292 292 291 288 289 289 287 287 288 289 289 287 286 288 290 289 289 288 288 290 290 288 286 286 282 280 278 271 273
286 284 294 298 297 299 299 296 295 295 296 296 295 292 291 291 290 289 289 288 289 287 288 289 289 289 288 288 289 288 287 286 286 287 287 288 287 286 281 279 275 275 277 271
290 295 297 298 299 299 298 297 298 298 299 296 291 291 290 288 288 288 288 287 288 287 287 287 288 289 288 288 288 287 285 284 285 284 285 285 285 282 279 275 274 277 274 272
290 295 298 300 299 298 298 299 299 299 294 292 291 289 288 287 287 287 286 287 287 287 287 287 288 288 288 288 287 285 284 283 282 281 281 282 282 280 279 277 276 274 273 272
285 297 296 296 298 299 297 298 296 292 292 292 289 288 287 286 286 286 286 287 287 288 288 287 287 287 288 287 286 284 282 281 279 278 277 280 280 280 284 282 283 283 281 273
296 300 299 298 299 301 299 295 294 292 291 288 288 287 287 286 286 287 287 287 287 287 288 287 286 287 288 285 284 283 281 281 278 282 280 277 278 279 278 279 283 284 283 281
301 299 295 298 295 298 295 294 293 290 289 288 287 287 287 286 286 286 286 287 288 287 287 286 286 286 286 284 285 283 280 278 277 280 281 281 279 279 280 279 271 275 279 281
300 301 298 298 298 294 292 290 288 287 287 286 287 287 287 286 285 285 286 287 286 285 284 285 285 285 287 285 284 282 281 278 277 279 280 280 280 279 279 278 277 276 275 276
298 299 299 297 291 289 289 288 287 286 286 286 285 284 286 285 285 285 285 284 282 282 284 284 284 286 285 285 284 282 280 279 278 276 280 280 280 278 278 278 278 277 271 270
293 291 291 289 288 287 288 288 287 286 286 284 284 284 283 282 281 282 282 284 283 284 284 284 285 288 285 285 284 279 277 279 280 281 280 279 279 278 278 278 277 274 272 270
292 291 291 289 287 287 287 285 284 284 284 284 280 274 273 272 279 281 280 279 279 282 284 285 285 286 284 284 283 278 277 277 277 279 277 276 279 279 277 276 277 276 273 271
291 290 289 289 288 286 285 284 284 284 279 278 275 276 276 276 280 280 279 282 283 282 282 283 286 284 283 281 279 277 273 272 279 279 279 274 278 278 279 273 277 278 274 270
288 289 288 288 287 284 282 284 280 283 284 279 274 274 277 276 277 276 278 283 284 284 283 286 286 283 282 280 278 276 272 272 278 279 278 276 275 277 277 278 276 273 275 275
284 285 284 283 283 282 281 280 277 281 283 277 276 279 278 278 277 278 282 282 283 280 285 285 285 283 283 279 279 276 273 271 273 280 274 275 277 276 277 277 276 274 271 275
285 283 280 280 281 283 283 283 283 281 281 278 277 277 275 278 278 283 284 283 284 280 285 284 284 284 284 282 280 276 276 274 275 278 279 279 277 276 276 278 278 278 275 274
285 285 283 280 279 284 283 282 281 281 280 278 283 282 276 281 281 282 282 281 283 285 285 285 285 285 284 285 282 280 276 277 272 273 275 280 277 277 276 276 276 278 278 278
285 284 284 284 281 281 282 285 284 284 280 281 282 278 279 279 282 285 285 285 285 285 285 286 285 284 284 284 280 280 281 281 279 275 277 279 280 278 274 274 277 275 275 276
283 284 284 280 283 283 284 285 284 283 282 282 281 281 279 279 281 284 285 285 285 285 285 286 285 284 283 282 282 282 282 282 279 276 281 281 280 279 278 275 275 277 278 277
284 283 283 285 284 284 284 283 283 282 278 276 278 274 274 276 280 280 283 285 285 285 285 285 285 285 285 284 282 282 281 281 280 280 281 280 279 278 276 276 275 277 277 278
284 281 282 283 283 283 282 280 277 279 281 284 281 277 279 284 277 277 278 283 284 284 285 285 285 285 285 285 284 283 282 282 282 281 280 279 276 276 275 275 275 276 276 276

GFSNGP_sfc_thetae_030.txt.gz
Theta_e
291 291 290 289 288 289 288 288 283 286 287 292 294 294 295 297 297 297 296 296 296 296 295 295 295 294 293 293 294 294 293 293 292 293 292 293 291 292 293 294 293 290 288 287
285 291 290 286 289 290 290 290 289 289 289 295 296 296 296 296 295 295 295 295 295 295 296 296 294 292 292 292 292 293 293 293 294 294 294 292 292 293 293 292 292 288 286 286
279 286 285 280 288 290 290 291 290 285 290 293 293 294 294 293 294 293 294 295 294 294 294 293 291 291 290 290 291 291 292 292 293 292 292 292 292 292 292 291 287 286 285 285
276 277 270 287 294 294 292 293 294 293 293 293 293 294 294 294 293 292 293 294 294 292 291 290 290 289 289 289 289 289 290 291 292 291 291 291 291 290 288 287 287 286 285 284
274 277 282 288 293 291 289 290 295 294 293 293 294 294 292 295 294 293 293 293 289 288 289 288 288 289 288 287 287 288 289 289 290 290 290 290 288 288 287 288 287 285 284 282
278 272 270 284 293 297 294 283 296 295 293 292 291 281 286 293 294 294 290 288 287 287 287 287 287 287 286 285 285 287 288 289 289 290 289 288 287 289 288 288 284 284 282 281
271 270 280 289 296 297 282 284 295 295 293 292 288 288 291 294 292 290 287 287 288 286 286 286 287 287 285 285 286 288 288 288 288 288 288 288 288 286 286 283 282 279 278 278
277 271 275 294 295 287 290 294 295 294 294 292 292 293 293 291 289 288 287 287 287 286 286 286 287 287 285 285 287 288 287 286 285 285 286 288 287 286 283 280 279 277 268 272
285 284 291 296 295 296 298 294 294 294 294 295 294 291 289 287 287 287 286 285 286 285 286 287 287 287 286 286 287 287 285 284 283 284 285 284 284 281 280 279 274 275 276 270
288 293 294 296 297 297 297 295 298 298 297 295 290 289 286 286 285 285 285 285 285 285 285 285 287 287 286 287 287 285 283 283 283 281 282 282 281 281 279 274 272 276 273 272
288 293 296 296 295 296 296 297 299 299 295 290 288 286 286 285 284 284 285 285 285 285 285 286 287 286 287 286 286 284 283 283 281 280 280 280 280 279 278 277 276 273 272 272
286 294 294 294 296 297 297 298 298 292 289 288 287 286 285 284 284 284 284 285 285 285 285 286 286 286 286 287 286 283 283 282 279 278 277 279 279 279 282 282 283 284 283 272
295 299 298 297 297 300 299 296 293 289 288 286 286 286 285 284 285 285 285 285 285 285 285 284 284 284 285 284 282 282 283 282 278 278 279 277 280 278 275 278 282 282 283 282
300 298 294 295 295 299 295 292 291 289 287 287 286 286 285 285 285 284 284 285 285 285 284 283 283 284 286 287 285 283 283 277 277 280 278 276 275 279 279 275 268 271 278 281
298 297 297 298 297 293 290 290 288 286 286 286 286 285 285 284 283 283 285 285 283 283 284 285 284 284 286 286 284 283 282 276 273 278 277 279 279 279 278 277 273 275 270 274
297 298 298 296 291 289 289 288 286 285 285 285 284 283 285 284 283 283 283 283 281 281 282 281 283 284 286 286 284 284 282 278 276 277 274 278 278 277 278 275 276 275 272 268
294 290 288 287 287 288 287 287 286 285 285 283 283 283 283 282 280 281 282 281 278 278 280 280 283 286 286 286 284 283 281 278 280 280 279 277 275 278 277 277 274 274 274 270
292 291 290 289 288 287 286 285 284 283 283 283 279 273 272 273 278 279 279 278 276 279 281 281 282 285 286 286 284 281 277 275 276 272 277 273 276 277 278 273 274 273 271 269
291 290 289 288 288 285 284 283 283 283 279 276 274 275 275 275 279 279 278 274 276 278 281 279 282 284 285 284 280 275 272 270 271 275 277 277 271 274 278 278 274 278 273 270
288 288 287 287 285 283 282 283 279 282 283 279 272 270 276 277 277 276 274 275 280 282 282 281 283 284 284 283 279 275 270 267 271 272 273 273 268 270 276 275 276 272 274 273
284 285 284 283 282 281 278 278 276 280 282 276 274 278 278 279 275 273 274 279 282 278 281 279 284 284 284 283 280 279 279 274 272 273 273 272 271 272 275 274 273 274 271 265
284 282 279 279 280 281 282 282 282 279 278 279 282 277 277 278 276 274 275 279 284 278 280 283 284 285 285 284 282 281 280 279 277 277 276 275 278 275 271 275 276 275 274 270
284 284 283 278 277 283 283 281 279 279 279 279 279 279 282 279 277 277 279 281 281 280 283 284 285 285 285 285 284 282 281 280 276 276 276 275 274 277 278 277 275 278 277 276
284 284 283 283 279 279 280 284 283 283 281 281 280 279 280 278 275 278 280 279 280 282 284 285 285 285 285 284 283 283 281 280 280 279 277 274 276 279 278 274 273 275 275 274
282 283 283 279 282 283 284 284 283 282 281 283 282 282 283 283 281 279 275 276 280 284 284 285 285 285 285 284 283 282 281 281 281 281 280 278 280 279 279 276 274 274 276 275
284 283 283 284 283 283 282 281 280 280 279 280 277 278 284 283 280 277 275 275 277 278 283 283 283 284 285 284 285 284 283 282 282 282 281 280 280 280 278 275 274 274 274 275
283 278 281 282 282 283 282 281 282 284 282 284 284 282 280 281 279 274 275 275 280 277 275 278 280 281 282 283 284 284 284 284 283 282 282 281 281 280 278 276 275 274 273 274

GFSNGP_sfc_thetae_033.txt.gz
Theta_e
288 289 288 287 287 288 287 286 282 284 286 289 292 292 293 295 295 295 294 294 295 295 295 294 293 291 290 290 291 291 291 291 291 292 291 291 290 290 291 291 291 291 291 290
284 289 288 285 287 287 287 287 288 287 287 293 294 295 294 294 294 293 294 295 295 294 293 291 290 289 290 289 289 290 291 290 292 291 291 291 291 290 290 290 291 291 285 284
277 284 282 278 284 289 289 290 289 285 289 292 292 293 292 293 293 292 293 292 292 290 289 289 289 289 288 288 289 288 289 290 291 290 290 290 290 290 289 288 290 285 285 285
275 277 271 285 291 292 290 291 291 291 292 293 292 293 294 294 291 291 292 291 289 288 288 287 287 287 288 287 287 288 288 289 289 289 289 289 288 287 285 285 287 288 284 283
274 276 280 286 290 290 288 287 293 291 292 292 293 292 290 294 293 291 293 290 287 287 287 286 286 286 286 285 285 287 287 287 287 288 288 287 286 287 288 288 287 283 283 281
277 270 270 283 291 294 293 283 294 293 291 291 291 282 287 293 294 291 288 286 286 285 286 285 285 285 284 284 285 286 287 287 287 287 287 286 285 285 288 287 283 282 281 280
270 271 279 287 294 295 283 282 294 294 293 291 288 289 290 294 292 287 286 286 286 285 284 284 285 286 284 284 284 286 287 287 286 285 284 285 287 287 287 283 281 278 277 278
275 272 276 292 292 287 290 292 295 294 293 292 293 293 293 290 287 286 285 285 285 284 284 285 285 285 284 283 285 286 286 285 284 284 284 285 287 286 281 280 279 278 267 271
285 284 291 292 292 294 295 294 293 294 294 295 294 293 290 286 285 285 284 284 285 284 284 285 285 285 284 285 286 285 284 284 283 282 283 282 283 282 280 279 275 274 275 269
286 290 291 293 295 296 296 294 295 296 297 296 293 289 286 284 284 283 284 284 284 283 283 284 285 286 285 286 285 284 284 284 284 282 281 282 283 282 278 274 271 275 273 272
286 291 293 296 296 295 295 296 297 298 295 292 289 286 285 284 283 283 284 284 284 284 284 284 285 285 285 285 285 284 284 285 283 281 279 280 282 279 279 278 276 274 273 272
285 293 293 293 296 296 295 296 296 292 289 289 287 286 285 284 284 284 283 284 284 284 283 284 284 283 284 286 286 284 282 284 283 279 277 279 279 279 282 281 283 283 283 272
293 295 295 295 295 297 297 297 293 290 288 286 286 285 285 284 284 285 284 283 283 283 284 283 282 282 283 284 285 284 283 284 282 280 279 280 279 280 277 280 281 281 282 283
298 297 292 294 294 298 295 291 291 289 288 287 286 286 285 284 284 283 282 283 284 283 282 282 282 282 284 284 285 284 283 281 280 281 281 279 273 278 278 275 268 270 277 280
297 296 297 296 292 289 290 289 287 286 286 286 286 284 284 283 283 282 283 283 283 282 282 282 282 282 284 285 285 284 283 281 280 273 273 277 276 276 276 276 271 272 269 272
296 296 295 291 289 290 289 288 286 285 285 284 283 283 284 283 283 282 283 283 280 280 281 279 278 282 284 285 285 285 284 281 279 279 279 275 277 274 275 275 275 275 268 268
291 287 288 287 287 288 289 288 286 285 284 283 283 283 283 281 279 281 282 280 276 276 278 279 279 282 284 285 285 285 283 282 280 280 279 276 274 273 274 277 275 271 271 267
291 290 290 289 287 287 286 286 285 284 283 283 279 273 273 276 279 279 278 277 275 276 278 280 279 282 284 285 285 284 281 280 276 274 273 271 272 273 274 274 276 273 272 270
291 291 291 290 289 285 284 283 283 283 280 277 275 277 275 275 277 278 276 272 274 276 280 279 280 280 283 285 284 282 279 274 272 273 272 271 268 271 272 273 275 274 275 273
290 289 287 286 285 284 283 283 280 282 283 279 273 271 276 277 275 275 272 275 279 281 281 281 279 281 283 284 283 282 278 274 271 271 268 270 269 268 268 271 273 274 269 271
284 284 283 282 282 280 278 278 277 280 282 275 272 276 277 279 275 274 275 276 280 278 280 278 279 283 283 283 284 282 280 279 278 274 272 272 272 271 270 271 272 271 272 270
283 282 279 279 279 281 281 281 282 277 277 277 276 279 281 280 280 274 274 277 281 276 278 278 281 283 284 284 284 283 282 280 279 279 277 275 276 276 274 272 271 275 275 274
284 284 283 279 278 283 282 280 277 276 276 277 278 278 278 280 281 278 279 279 280 277 279 282 278 282 283 285 285 284 283 282 281 280 278 278 277 277 277 276 277 276 275 274
284 284 283 283 278 278 279 284 283 282 278 279 278 278 278 279 280 279 282 281 276 273 277 283 283 283 284 282 283 283 283 283 282 280 279 279 279 277 277 278 277 276 275 273
282 283 283 278 281 282 283 283 281 281 281 281 280 280 279 279 282 280 278 277 275 274 274 274 278 276 281 282 283 283 283 283 282 281 281 280 279 279 279 279 279 277 275 275
283 281 281 282 281 282 282 282 281 281 280 281 280 277 279 282 284 282 276 275 275 275 273 273 275 276 273 274 274 275 278 281 283 283 282 282 282 280 280 280 279 277 275 275
280 277 280 281 282 281 281 280 280 281 283 284 283 283 283 284 281 279 278 275 275 275 270 273 270 269 270 270 271 272 273 275 276 280 282 282 281 281 281 281 279 277 276 275

GFSNGP_sfc_thetae_036.txt.gz
Theta_e
286 287 287 285 285 288 286 285 282 283 284 287 292 291 292 293 293 293 293 293 294 293 293 294 290 289 289 289 289 289 290 290 289 290 289 289 289 289 289 290 290 291 292 291
284 286 286 284 286 286 286 285 286 285 285 292 292 293 293 293 293 292 293 293 293 293 291 290 289 288 288 288 288 288 289 289 290 290 290 289 288 288 288 288 288 291 286 285
279 282 281 277 284 285 286 288 287 283 287 291 290 292 292 292 292 292 292 292 293 290 288 288 287 288 286 287 287 286 288 289 289 289 288 288 288 287 285 284 285 287 285 285
274 276 270 283 289 289 288 289 289 289 290 292 292 292 293 293 292 291 291 291 289 287 287 287 286 285 286 286 285 286 287 287 287 287 286 287 286 286 284 287 288 288 284 281
274 275 280 284 288 289 287 287 292 290 290 291 292 292 291 294 292 290 291 291 287 287 286 285 285 285 285 284 284 285 286 286 286 286 285 285 284 284 287 287 286 281 281 280
274 271 269 282 289 293 291 282 291 292 290 290 291 283 289 292 293 292 290 286 285 285 285 284 284 284 284 283 283 284 285 285 286 285 284 283 283 286 287 287 284 282 281 280
269 270 278 286 291 293 282 283 292 292 291 290 289 290 290 292 293 288 287 286 285 284 284 284 285 284 283 283 283 285 285 285 285 284 283 283 285 287 286 284 282 279 277 278
275 270 276 290 292 286 290 289 293 292 292 292 290 290 292 289 286 286 285 285 285 284 284 284 285 284 283 282 284 285 285 284 284 285 283 283 284 286 283 280 279 278 268 271
283 283 289 290 291 293 293 292 293 293 293 293 292 293 290 286 287 285 285 284 284 284 284 285 285 284 283 284 285 284 283 283 284 285 283 282 282 282 281 279 275 273 274 270
285 288 290 292 293 296 295 294 294 295 295 295 294 290 288 286 284 284 284 284 284 284 283 283 284 285 284 284 284 283 283 285 285 284 283 281 281 282 281 276 272 274 272 272
285 290 290 295 295 295 295 295 296 296 295 293 290 288 286 284 284 284 284 284 284 283 283 283 284 283 283 283 283 283 285 284 284 283 282 279 280 280 280 279 277 274 273 272
284 291 291 291 294 295 295 295 295 291 289 289 288 286 286 284 285 284 283 284 284 284 283 283 283 282 282 283 283 283 283 283 284 283 281 279 279 279 282 281 282 283 283 274
291 293 294 294 294 295 295 295 291 290 289 286 286 286 285 284 284 285 283 283 283 283 283 282 282 281 282 282 282 284 283 283 283 282 281 279 277 279 277 279 282 282 282 283
296 294 292 292 293 296 292 289 289 288 288 288 286 286 286 284 284 283 283 284 284 283 282 281 282 281 283 282 282 283 284 282 282 281 281 280 277 275 277 277 273 270 277 280
295 295 294 291 288 287 289 289 289 288 287 286 286 285 284 284 283 283 283 284 283 282 282 282 281 281 282 282 283 284 284 284 282 278 278 276 276 275 274 276 277 273 270 272
293 290 289 288 289 290 290 289 287 286 285 285 284 283 284 284 284 283 283 283 280 280 281 278 277 280 282 282 283 284 285 284 281 278 279 279 277 274 275 275 275 275 274 271
287 286 287 287 288 288 288 287 287 286 285 284 283 283 284 282 280 281 282 280 276 276 277 277 278 281 282 282 282 284 285 284 281 280 279 275 278 274 273 273 274 276 273 271
290 290 290 288 287 286 285 285 284 284 283 283 280 277 275 275 279 279 278 277 274 275 277 280 279 281 281 281 282 284 283 282 281 278 275 272 272 273 273 271 272 272 273 273
291 290 290 290 289 286 283 283 283 282 280 279 277 279 278 277 278 278 277 273 275 275 280 278 280 279 280 281 283 283 282 282 279 277 276 271 269 270 269 268 270 272 273 271
289 289 287 285 285 283 282 283 280 282 283 280 276 278 278 278 277 275 272 275 279 281 280 279 279 278 278 282 283 282 282 281 279 275 273 273 272 272 272 270 270 271 271 271
283 283 283 282 282 280 279 278 277 280 282 276 273 276 276 277 277 274 277 278 281 278 279 277 278 279 280 280 283 283 283 282 278 277 276 276 275 274 275 274 274 274 273 270
282 282 278 278 279 280 280 280 281 275 276 275 275 273 272 278 277 277 279 278 282 277 278 278 279 278 281 282 283 283 283 283 281 279 278 278 278 277 277 277 277 276 274 274
283 283 282 278 277 282 281 279 275 274 274 276 277 277 276 279 279 277 280 280 277 277 278 279 282 282 282 283 283 283 282 282 282 282 281 280 279 279 279 279 278 277 277 277
283 283 283 282 278 279 280 283 282 281 278 278 278 277 276 278 280 278 280 278 277 279 276 280 277 273 272 277 281 281 282 282 282 282 280 279 279 279 279 279 278 278 279 277
281 282 281 279 280 280 280 281 280 280 280 280 281 280 278 279 279 281 280 282 281 278 276 276 273 272 271 271 271 271 271 272 274 275 278 281 281 280 278 278 279 279 279 278
280 279 279 280 280 279 277 278 277 278 278 278 280 282 284 282 282 281 283 279 275 274 275 270 267 264 266 268 268 268 269 271 272 272 273 276 278 281 281 281 280 280 279 278
277 275 276 276 277 275 274 275 275 275 276 276 277 278 281 283 283 283 280 274 271 272 271 267 264 267 267 265 264 264 265 265 265 266 267 268 269 270 276 281 281 280 278 277

GFSNGP_sfc_thetae_039.txt.gz
Theta_e
289 290 290 289 289 291 290 290 288 289 289 293 295 298 297 298 297 297 297 297 298 297 297 297 295 294 295 295 295 295 294 295 295 296 296 295 294 295 294 294 293 294 294 293
288 289 288 288 289 289 290 290 290 289 289 295 296 298 296 296 296 296 297 297 297 296 295 293 293 293 293 293 293 293 293 294 295 295 294 293 293 293 293 292 291 291 289 289
284 284 284 283 288 290 289 291 292 288 294 296 295 296 297 296 297 297 297 296 296 294 293 293 293 292 292 292 292 291 291 293 293 293 292 292 292 291 291 291 291 289 289 288
282 280 279 289 292 292 290 291 292 293 294 296 296 296 298 299 298 297 296 296 295 293 292 292 292 291 291 291 291 290 291 291 291 291 291 290 290 289 290 290 288 289 287 286
283 281 284 287 288 291 290 291 294 294 294 294 295 297 297 298 299 298 296 296 294 293 292 291 290 290 290 290 289 289 290 290 290 290 289 289 288 289 288 288 288 287 287 285
281 281 279 287 291 296 295 288 295 296 294 293 295 292 297 298 297 295 296 292 290 290 290 290 289 290 289 289 288 289 289 290 290 290 288 288 288 288 288 288 287 287 285 285
276 283 284 289 292 296 286 289 294 296 295 294 295 298 296 297 296 295 291 289 289 289 289 289 289 289 288 288 288 289 290 290 289 289 288 288 288 288 289 287 286 285 283 284
279 280 281 292 295 291 296 295 296 296 296 296 295 294 295 295 290 288 288 288 289 289 288 289 289 289 288 288 289 289 289 289 289 289 288 286 287 287 287 285 284 283 282 282
287 289 294 294 296 298 297 296 297 297 298 298 295 295 292 289 288 288 287 287 288 288 287 288 288 289 287 289 288 288 288 288 288 288 287 286 285 285 285 285 283 283 282 282
289 293 292 294 297 297 299 298 299 299 298 297 296 294 289 287 286 285 287 288 287 287 286 286 287 287 288 287 287 287 287 287 288 286 286 286 285 285 284 284 283 282 281 281
289 293 294 295 297 299 298 299 299 298 298 297 293 289 287 285 286 286 287 287 287 286 286 286 287 287 287 287 287 286 286 287 287 286 285 285 285 284 284 285 284 282 282 282
289 294 294 295 297 299 298 298 298 295 291 291 289 287 288 287 288 287 286 286 286 286 286 286 286 285 286 287 286 286 285 286 286 286 286 285 284 284 284 283 282 283 283 283
294 298 297 298 299 299 298 295 292 290 289 288 290 290 288 286 287 286 286 286 286 286 286 286 285 285 286 286 286 285 285 286 286 285 285 285 284 283 282 284 284 284 283 283
298 298 296 295 293 291 290 290 291 291 291 289 287 287 288 287 286 286 285 286 286 286 286 285 285 285 287 286 285 285 285 284 285 285 286 285 284 284 283 282 281 282 282 281
295 293 291 290 290 290 291 290 288 286 286 286 288 287 286 286 286 286 286 286 286 286 285 285 285 285 286 285 284 285 286 286 286 285 285 284 283 283 283 282 282 281 282 280
289 290 291 290 289 289 288 287 286 285 287 288 287 286 286 286 286 286 286 286 283 284 285 282 281 284 285 285 285 286 286 284 285 285 284 284 283 282 282 282 281 281 281 281
288 287 287 287 287 287 287 288 288 287 287 286 285 285 285 284 282 283 284 284 282 281 282 281 282 286 285 285 285 286 285 284 285 285 284 284 283 282 282 282 281 281 281 283
291 290 290 289 288 287 287 287 287 287 285 285 283 282 281 281 281 282 282 282 280 280 282 284 283 284 284 285 286 286 285 284 284 283 284 283 283 283 282 281 281 280 281 282
291 290 290 290 290 289 286 285 284 284 283 282 281 282 282 281 281 282 281 279 279 281 285 285 283 283 284 284 284 286 284 284 284 284 283 282 282 281 281 281 280 281 281 281
289 289 287 286 285 285 284 285 283 284 285 283 281 280 281 282 282 280 280 279 282 285 286 284 284 283 283 284 282 284 283 282 282 283 283 282 281 282 282 279 279 280 281 281
284 285 283 283 283 281 279 279 277 283 283 279 279 280 279 280 280 280 280 281 286 284 284 282 282 284 284 283 284 284 284 283 283 283 283 282 282 281 281 281 281 281 281 281
285 283 280 280 281 282 283 283 282 280 280 279 279 277 278 280 282 281 280 282 286 282 282 284 284 283 284 283 284 284 284 283 283 283 284 283 282 282 282 282 281 282 282 282
284 284 283 280 280 282 282 282 280 280 278 279 279 280 281 281 282 280 280 286 284 284 281 283 283 283 282 282 282 282 282 282 283 283 283 283 283 283 283 283 283 283 283 282
284 283 282 282 281 280 278 278 279 280 278 279 280 279 280 280 282 284 284 283 282 282 283 283 282 278 276 278 277 276 275 275 275 276 276 276 279 281 283 283 283 283 283 282
281 281 280 279 278 277 277 277 277 277 277 278 278 279 280 281 280 282 284 284 284 284 282 279 276 273 274 274 273 272 272 273 272 272 272 272 274 275 277 279 282 283 283 283
278 278 278 278 276 275 274 274 274 275 274 273 276 277 277 277 278 281 281 283 284 281 280 276 274 272 271 270 270 269 269 269 268 268 268 269 270 270 271 272 274 280 284 284
274 273 274 274 273 272 271 270 270 270 271 272 271 273 274 275 276 277 277 280 281 277 273 272 271 269 269 269 268 267 267 267 265 265 266 266 267 268 268 269 271 272 274 276

GFSNGP_sfc_thetae_042.txt.gz
Theta_e
295 295 295 296 296 297 295 296 292 294 293 297 299 301 304 307 308 307 305 305 305 305 305 304 302 301 301 301 299 299 297 297 297 298 299 298 297 297 297 296 296 295 295 294
293 294 294 293 296 296 297 297 297 297 296 302 303 303 304 305 305 304 304 304 305 304 303 301 300 300 299 297 298 298 296 295 297 298 297 297 296 296 296 295 295 295 292 292
290 291 291 289 294 296 296 298 298 294 299 301 300 301 303 304 305 304 304 304 303 302 300 299 298 298 296 297 297 296 295 295 296 296 295 295 295 294 294 294 294 292 292 291
291 287 285 293 297 296 297 299 300 298 299 300 301 304 305 307 305 304 304 304 303 300 297 296 297 296 296 296 295 294 293 294 294 294 294 294 294 293 293 293 291 292 291 290
290 287 290 293 293 292 293 294 299 299 300 300 301 302 304 305 306 306 305 304 303 299 296 296 295 296 295 294 293 292 292 293 293 294 293 292 292 292 292 290 290 289 290 290
288 289 286 293 296 300 299 291 300 301 300 301 301 298 299 305 306 306 304 303 299 296 294 294 293 295 293 292 291 291 292 292 293 293 292 292 292 291 291 290 289 289 288 289
290 290 292 296 296 300 289 292 300 302 302 302 300 303 303 307 305 304 302 298 296 295 294 294 294 293 291 291 291 292 293 293 293 293 292 292 291 291 289 289 289 288 286 288
289 288 286 298 299 294 300 303 301 303 303 304 304 301 302 304 301 298 295 293 294 292 292 293 293 292 290 290 292 292 293 292 291 292 292 291 291 290 288 288 287 286 286 286
295 296 299 301 303 304 304 303 304 303 304 303 303 301 301 299 297 295 293 290 291 291 291 292 292 291 289 291 291 291 291 290 291 292 291 290 289 288 286 287 285 285 284 284
294 298 299 301 303 304 305 303 304 304 305 305 303 302 299 295 292 290 291 291 291 291 290 290 290 290 291 291 291 290 289 290 291 290 289 290 288 287 286 286 285 284 283 283
296 299 300 300 302 303 304 305 304 304 304 303 303 299 294 292 292 292 292 290 290 290 289 289 290 290 291 290 290 289 289 289 289 290 289 289 288 287 286 287 286 284 284 284
296 298 299 300 303 304 303 303 303 300 298 299 298 293 292 290 291 291 292 291 289 289 288 289 289 290 290 290 290 289 288 288 289 289 288 287 287 286 286 284 284 284 284 283
299 303 303 303 300 301 299 298 297 296 296 294 293 291 290 289 290 288 289 289 288 288 289 289 289 289 290 290 289 288 288 288 289 287 287 286 286 286 284 286 284 284 284 284
302 302 299 295 293 296 296 295 293 291 290 290 289 290 290 290 289 289 288 289 289 289 289 289 288 289 290 290 289 288 288 286 288 289 287 286 286 286 286 284 284 285 284 283
295 297 295 295 294 292 291 291 289 288 289 288 290 291 290 288 288 288 289 289 289 289 289 289 289 289 291 291 289 288 288 289 288 288 287 286 286 286 286 285 284 283 285 284
295 294 292 290 289 290 289 289 288 288 290 291 291 290 289 289 289 289 289 289 287 287 289 288 287 288 290 291 290 290 290 286 285 287 286 286 286 285 285 285 284 283 283 283
289 287 288 288 289 289 290 291 291 291 292 290 288 287 288 287 287 288 289 289 288 286 287 287 287 291 290 291 290 290 290 289 286 286 284 286 286 285 286 285 284 283 284 286
292 291 291 291 291 291 291 291 290 289 288 288 287 285 285 285 286 286 287 288 285 285 287 288 289 290 290 290 290 289 288 287 286 286 286 285 284 285 285 285 284 284 285 285
294 293 293 292 291 289 288 287 288 287 286 286 285 285 286 285 286 287 286 285 284 285 289 291 286 286 288 288 287 287 287 286 285 284 285 285 285 284 284 285 285 285 284 284
290 289 289 288 288 288 287 287 288 288 288 286 284 285 285 285 285 285 285 284 286 288 289 289 288 288 288 288 285 287 286 286 285 284 284 284 285 284 285 284 285 285 284 284
288 288 286 286 286 285 285 285 285 285 285 284 282 282 281 283 284 284 284 284 286 288 288 286 287 288 288 287 286 286 286 285 285 285 284 284 284 284 285 284 284 284 284 284
288 286 285 285 286 286 286 284 283 282 281 281 281 281 281 282 283 283 284 283 286 285 287 287 287 286 287 284 286 285 285 284 284 285 285 284 284 284 284 284 284 284 284 284
288 287 285 284 284 284 283 281 281 281 279 279 280 280 280 281 282 281 280 284 286 286 286 286 285 284 284 285 285 284 283 281 281 281 280 281 280 281 281 282 284 285 285 285
286 285 284 283 282 281 279 279 280 280 279 279 280 279 279 279 280 281 282 282 282 282 283 285 285 282 279 282 281 280 279 279 278 277 277 276 277 277 277 277 278 281 282 284
283 282 281 280 280 279 278 278 278 278 277 277 278 278 278 279 278 279 280 281 280 281 284 281 277 277 278 278 277 276 276 276 274 274 274 274 274 274 275 275 275 276 277 279
281 280 280 278 277 277 276 276 275 276 275 275 276 276 276 276 277 277 278 278 279 279 278 277 275 275 275 274 274 272 273 273 272 271 271 272 271 272 272 272 272 273 275 275
277 276 277 277 276 275 274 273 273 272 273 273 272 274 274 275 275 275 274 274 274 274 274 273 272 270 270 270 270 269 269 270 268 267 268 269 269 269 268 268 270 271 272 272

GFSNGP_sfc_thetae_045.txt.gz
Theta_e
300 300 300 299 299 299 298 298 295 296 296 299 301 302 305 307 308 309 311 312 312 311 310 310 309 307 305 305 304 303 300 299 299 299 300 300 299 298 298 298 297 297 296 296
296 299 299 297 299 299 299 299 298 298 297 304 305 305 304 305 306 307 310 310 311 310 310 308 306 304 304 303 302 300 299 298 297 298 298 298 297 297 297 296 296 296 295 294
292 295 295 291 296 298 299 300 300 296 301 304 303 302 303 305 306 307 308 310 310 309 309 308 306 303 302 301 300 298 297 296 296 297 296 296 296 296 295 295 295 295 293 291
293 289 285 296 299 299 298 300 301 301 302 302 302 305 306 308 308 308 309 309 309 309 308 305 304 301 301 299 298 297 295 295 295 295 295 295 295 294 294 295 294 293 292 291
291 290 293 295 297 296 295 295 301 300 301 302 304 305 305 308 308 309 310 310 310 309 305 303 300 299 299 298 296 295 293 293 294 294 294 294 293 294 294 293 292 290 290 290
291 289 285 295 299 302 301 292 301 301 301 302 303 298 302 307 308 308 310 310 308 305 302 300 299 298 297 296 294 292 293 293 294 294 294 293 293 294 293 293 290 290 289 289
293 292 295 300 300 302 291 294 302 303 303 303 301 305 307 308 308 309 309 307 305 301 298 297 298 297 294 293 292 293 294 294 294 294 293 294 294 293 293 291 289 289 288 288
295 288 287 301 301 295 303 304 304 304 305 306 306 307 305 307 307 306 304 301 299 297 296 297 295 293 292 291 292 294 293 293 292 293 293 293 293 292 292 289 288 288 287 288
298 298 303 303 302 305 306 304 305 305 307 306 306 305 305 305 304 301 298 296 296 295 293 293 293 292 290 291 293 292 291 291 292 293 293 292 291 291 288 287 287 287 286 286
297 299 301 302 305 306 307 307 307 308 307 307 306 307 304 302 299 297 295 295 295 292 291 292 292 291 292 292 292 291 290 290 291 291 291 291 291 290 288 287 287 286 286 285
299 301 301 303 305 306 306 308 307 307 306 306 306 304 301 297 295 295 293 291 291 290 291 291 291 291 292 291 291 290 290 290 291 291 291 290 290 289 288 289 288 286 286 286
298 302 302 303 304 305 305 304 304 302 300 301 301 297 296 293 292 291 290 290 291 291 291 290 290 291 291 292 291 290 289 290 290 290 290 290 289 288 288 286 286 285 285 285
302 304 304 303 301 301 300 300 300 299 297 294 293 292 291 289 289 288 290 291 291 290 290 290 290 290 291 292 292 290 289 289 290 289 290 288 287 286 286 289 285 285 285 284
303 303 299 300 297 299 297 296 295 293 293 292 291 291 290 290 290 291 291 291 291 290 290 291 291 291 293 293 292 291 290 286 289 290 290 289 287 286 287 287 286 287 286 285
299 301 299 298 296 294 294 292 291 290 291 291 293 292 292 291 290 290 291 291 291 291 291 291 291 291 293 294 291 291 291 291 292 292 290 288 287 286 286 287 286 286 287 285
296 296 295 293 292 291 292 292 292 292 293 293 293 291 291 290 290 290 291 291 289 288 290 287 287 290 293 293 292 292 292 288 288 290 289 287 287 287 287 287 286 286 286 286
292 289 290 289 291 292 293 293 293 292 291 290 289 289 289 289 289 289 290 291 289 286 288 288 289 292 293 293 292 293 293 291 288 289 288 288 287 286 286 287 286 286 286 287
294 294 294 294 292 292 292 291 290 289 289 289 287 286 285 285 286 288 289 290 287 287 289 291 292 292 291 292 291 291 290 289 288 288 288 288 287 287 287 286 286 285 286 287
295 293 293 293 292 290 290 289 289 289 287 287 285 285 286 286 287 286 286 285 285 286 288 290 287 288 289 289 288 290 288 287 287 287 287 286 286 286 285 286 286 286 286 286
292 291 290 290 290 290 288 289 290 289 289 286 285 284 283 284 284 284 284 283 286 287 287 287 287 287 288 288 286 288 287 287 286 286 286 286 285 285 285 285 285 285 285 285
289 289 288 288 287 287 286 286 285 285 285 282 282 281 281 282 284 283 283 282 284 286 285 285 287 288 288 287 286 286 287 285 285 285 285 285 285 285 285 285 284 285 285 285
289 287 287 288 288 287 286 284 283 282 281 281 281 281 280 280 281 282 283 282 284 282 284 284 285 285 286 285 286 285 286 286 285 284 284 283 282 282 282 282 283 283 284 285
289 288 286 285 286 285 283 282 282 281 280 279 279 279 279 280 280 279 278 281 281 281 282 282 283 281 281 283 284 284 284 283 282 281 280 279 279 279 278 278 278 279 280 281
289 288 286 285 283 282 281 281 281 281 281 280 280 279 278 278 278 280 281 280 279 279 280 282 278 277 278 281 280 280 280 280 278 277 277 277 277 276 276 276 275 276 277 278
286 284 283 282 282 281 280 279 279 279 279 278 278 278 278 279 277 278 278 278 276 276 277 277 275 273 276 276 276 275 275 275 274 274 274 274 274 273 274 274 273 274 275 275
284 284 282 280 279 279 278 278 277 278 277 277 277 277 277 278 277 276 276 275 275 274 274 274 273 272 272 272 272 272 272 272 271 270 270 271 271 271 271 270 270 271 272 273
280 280 281 280 279 277 276 276 275 275 275 275 273 276 276 276 275 275 274 274 273 273 273 273 272 271 270 269 270 270 269 269 268 267 268 268 268 268 268 268 268 269 270 271

GFSNGP_sfc_thetae_048.txt.gz
Theta_e
298 299 300 299 299 299 297 298 294 297 296 299 302 303 305 307 307 307 308 311 313 314 314 313 312 311 309 306 305 304 304 301 300 300 300 299 299 298 298 297 296 296 295 295
297 300 299 296 298 298 298 298 297 298 297 304 305 306 304 304 304 305 306 310 312 313 312 311 310 308 305 305 304 304 301 299 299 298 298 298 297 297 296 296 295 295 294 293
293 296 294 289 296 297 298 300 299 294 300 304 303 303 303 305 305 306 306 308 311 311 311 310 308 306 303 303 302 299 299 298 297 297 296 296 296 295 295 294 294 293 291 290
294 289 284 296 300 299 297 298 299 299 301 301 303 304 305 307 306 307 309 308 311 311 310 308 306 305 303 300 299 299 297 296 295 295 295 295 295 294 293 293 292 291 290 290
290 290 293 295 297 296 295 295 300 299 300 302 303 304 305 307 307 306 308 310 311 310 308 305 303 301 299 298 298 296 294 293 294 294 293 294 293 293 293 292 291 289 290 289
293 289 284 297 299 302 300 292 300 301 301 301 302 297 301 307 307 307 309 310 309 305 303 301 298 299 297 294 294 293 293 293 294 294 293 292 292 292 292 291 290 289 288 289
292 291 295 301 301 302 291 295 303 303 303 304 301 304 306 308 308 309 308 307 304 302 299 298 297 296 294 294 292 293 294 294 293 293 292 292 292 292 291 290 288 286 286 286
296 288 286 302 300 295 302 305 304 305 305 306 307 307 307 306 307 306 301 300 299 297 296 296 295 293 290 291 293 294 293 292 292 292 292 292 292 291 290 288 285 285 283 284
298 297 305 304 303 306 306 304 305 305 305 306 305 305 306 305 303 300 297 295 296 294 292 293 293 292 290 292 292 292 291 291 291 292 292 291 290 290 287 286 284 283 283 282
300 300 301 303 306 307 306 305 306 307 306 306 305 306 305 303 297 295 294 293 293 292 291 291 292 292 292 292 292 291 290 290 290 290 290 290 290 289 287 284 283 283 283 282
299 301 302 304 305 305 306 307 306 305 303 303 305 302 299 295 293 292 291 291 291 291 290 291 293 292 292 292 292 290 290 290 290 289 289 289 289 288 285 286 285 284 283 283
299 303 303 300 302 304 301 300 301 299 296 296 296 294 293 291 291 290 290 291 291 292 292 291 291 290 291 292 291 290 289 289 287 287 287 287 287 286 288 286 287 286 286 284
302 305 303 300 300 301 299 298 297 296 295 292 293 291 290 289 290 289 291 291 291 290 290 290 290 290 291 292 291 289 287 287 287 286 287 287 285 286 285 286 287 286 286 286
303 304 299 300 295 297 296 295 295 294 293 292 292 292 292 291 290 291 291 291 291 290 290 290 290 290 292 292 291 288 289 287 287 288 287 288 287 286 285 284 282 284 286 285
300 301 299 298 296 294 294 294 292 291 292 292 293 292 291 290 289 289 290 291 291 290 290 290 289 289 291 291 290 289 289 289 289 288 288 287 285 285 284 284 284 284 285 283
297 297 296 294 293 292 293 292 291 291 292 291 290 290 289 289 289 289 290 290 287 286 287 284 285 288 290 292 291 290 290 288 287 288 287 286 287 285 285 284 284 284 283 283
293 291 291 290 291 292 292 292 291 289 289 288 287 287 288 287 287 287 289 288 286 285 286 286 287 291 289 291 290 288 288 288 287 287 287 287 286 285 285 285 283 283 283 284
296 294 294 293 292 291 290 289 290 288 287 287 284 284 283 283 284 285 284 284 283 282 285 287 286 286 286 287 286 286 285 285 286 286 286 286 285 286 285 284 283 283 284 283
295 293 293 292 292 290 289 288 288 287 284 283 283 283 283 283 282 283 284 280 280 282 284 285 283 284 285 286 285 285 285 285 284 285 285 285 285 284 284 283 283 283 284 283
292 291 290 290 290 288 287 287 287 287 284 282 279 278 279 278 278 279 280 281 283 281 281 282 282 282 282 283 283 283 284 283 283 283 284 284 285 284 283 283 283 283 284 284
289 288 287 286 285 284 283 283 282 282 282 278 278 277 276 278 279 278 279 279 281 280 280 279 280 281 281 278 279 282 283 282 282 283 283 284 283 281 280 280 281 281 281 282
288 286 285 286 285 284 283 283 282 279 279 276 275 274 274 278 277 278 277 278 279 277 278 278 278 274 275 275 280 280 280 280 280 281 280 280 279 278 277 277 277 276 277 277
287 287 286 285 284 283 282 281 279 279 277 275 276 276 277 277 278 276 275 278 278 275 276 277 274 271 271 275 275 275 275 276 275 275 276 276 276 276 275 275 275 275 274 275
288 287 286 284 283 282 281 280 280 281 277 278 276 275 276 276 276 278 278 275 273 273 274 275 272 270 270 272 272 272 272 272 271 271 271 272 273 272 273 272 271 271 272 272
286 284 283 283 282 281 280 279 279 279 278 278 278 277 277 278 275 276 276 275 274 274 274 273 272 270 270 270 270 269 269 270 268 268 268 268 268 269 269 269 268 268 269 269
285 283 281 280 279 279 278 277 277 277 276 276 276 276 277 277 276 275 275 273 274 273 272 272 272 271 270 269 269 268 268 267 266 266 266 266 266 267 266 266 266 267 267 267
280 281 281 280 278 277 276 276 275 274 275 274 272 274 276 275 275 273 272 272 272 271 271 270 270 270 269 268 268 267 267 266 265 266 265 264 265 264 264 265 265 266 266 266

GFSNGP_sfc_thetae_051.txt.gz
Theta_e
294 296 297 296 295 295 294 293 287 291 293 296 296 297 297 300 301 301 303 306 307 308 309 309 309 307 304 303 303 303 302 300 296 297 297 297 296 295 295 295 295 294 294 293
291 297 295 292 294 295 294 294 293 293 292 297 298 299 298 298 299 300 301 305 307 309 309 308 307 303 302 302 302 302 297 297 297 297 297 295 294 294 294 294 293 293 292 291
285 290 290 283 291 293 294 295 293 288 293 297 297 298 298 298 300 300 301 303 306 307 307 306 303 302 301 301 299 297 296 297 296 296 294 294 294 293 292 292 292 291 290 289
283 283 276 291 297 295 293 294 294 294 296 297 297 299 299 299 299 300 303 304 305 303 301 301 301 301 299 298 297 296 295 294 294 293 293 293 293 293 291 291 290 289 288 288
281 281 288 292 294 294 291 290 295 294 296 297 299 300 299 302 301 301 302 303 301 300 298 295 295 296 296 296 294 292 291 291 293 293 292 292 292 291 291 290 289 288 288 287
283 279 275 290 295 299 296 284 297 297 297 298 297 289 294 301 303 302 302 299 297 294 294 293 292 293 291 291 291 290 292 292 293 293 292 291 291 290 290 290 288 287 286 286
278 278 285 298 298 299 283 286 298 299 298 298 296 297 300 303 297 297 297 294 294 293 291 291 292 291 290 290 290 292 293 293 293 293 291 290 290 290 289 288 286 284 284 284
284 284 281 299 297 290 295 298 299 299 299 299 299 301 301 298 294 292 291 291 291 290 289 289 290 291 290 289 292 293 292 292 291 291 290 290 289 289 288 286 283 283 278 281
290 288 298 300 299 301 301 299 299 300 301 301 301 301 298 291 291 291 290 290 291 290 290 291 291 291 290 290 291 291 290 289 289 289 289 288 287 286 284 283 280 281 281 279
292 297 298 301 302 302 302 301 301 299 299 301 300 299 292 291 290 290 290 290 291 290 290 290 291 291 290 292 291 289 287 287 287 287 286 286 287 286 284 280 279 281 280 280
293 298 299 299 300 301 300 300 295 295 295 294 293 291 290 289 289 289 289 290 291 290 289 289 290 291 290 289 289 287 287 287 286 286 285 285 286 285 283 282 281 280 280 281
288 298 296 295 298 299 296 295 295 293 291 292 291 290 290 288 289 289 289 291 289 289 289 288 287 287 288 288 288 286 286 285 283 283 282 283 283 285 286 285 286 287 286 283
297 298 296 295 295 296 294 293 293 292 291 288 289 288 289 289 289 290 289 289 289 287 287 286 286 286 287 288 287 285 283 283 283 283 283 283 283 283 285 285 287 287 287 287
300 298 293 294 291 293 293 292 292 291 290 290 289 289 288 287 288 288 288 287 288 287 287 287 286 286 288 288 287 285 284 284 284 284 284 284 284 284 285 284 283 283 284 285
296 297 294 293 293 292 292 291 290 289 289 289 289 288 287 286 286 287 288 288 287 287 286 286 285 285 287 287 287 285 285 283 283 282 283 283 285 284 284 284 282 282 282 281
294 293 292 290 291 292 291 289 287 289 288 287 286 286 286 287 286 287 286 284 282 281 282 278 281 284 286 287 285 284 284 282 281 283 283 284 283 283 285 284 284 284 282 281
290 289 290 289 290 290 291 290 289 287 286 284 282 282 283 283 283 282 282 282 279 277 280 280 280 282 282 284 283 282 282 282 281 282 282 282 282 283 284 284 282 283 282 279
293 292 293 292 289 288 288 287 285 284 282 282 282 282 280 277 278 279 280 279 275 275 279 280 279 280 280 281 280 280 280 280 281 281 281 280 280 282 283 283 282 278 278 278
294 293 293 291 289 288 286 284 283 282 280 281 277 276 275 274 279 279 278 271 273 275 277 278 278 278 278 278 276 276 277 278 279 280 281 281 280 282 283 283 281 276 278 277
289 289 288 287 286 285 284 284 282 280 280 277 273 271 273 270 269 269 270 274 276 276 277 277 277 274 274 274 273 275 276 276 277 278 279 279 280 281 280 279 278 276 277 277
286 285 283 283 282 281 280 279 279 278 278 272 271 267 266 269 269 267 272 274 276 274 275 274 273 271 272 271 274 273 273 273 272 272 273 273 274 276 276 276 275 273 273 273
286 284 282 282 281 280 280 279 278 275 273 269 264 264 266 273 270 272 268 273 275 268 272 274 272 267 269 269 271 270 269 270 268 269 269 269 271 271 272 272 271 271 271 271
285 284 283 281 279 279 280 278 273 272 269 267 266 268 270 273 273 270 270 274 274 270 273 271 265 264 264 267 267 267 266 267 266 266 266 267 268 268 269 268 268 268 268 269
284 283 281 281 280 279 277 278 278 277 269 272 268 266 271 267 265 273 273 268 265 264 264 267 265 264 261 260 261 263 263 265 264 264 264 265 265 266 266 266 266 266 267 267
283 282 281 279 278 277 277 277 277 276 275 276 274 275 274 273 266 267 265 265 267 266 263 264 265 264 260 257 257 258 258 261 261 263 262 263 263 263 263 264 264 264 265 266
280 278 277 277 276 275 275 275 273 273 272 268 268 263 267 268 267 267 264 264 265 265 263 260 260 259 260 259 257 257 258 263 260 262 262 260 260 261 261 262 262 263 264 264
278 277 276 275 276 275 274 272 269 267 267 262 263 263 268 266 262 265 261 259 259 262 258 257 259 258 259 263 258 259 257 258 257 261 260 255 258 258 259 260 261 262 262 263

GFSNGP_sfc_thetae_057.txt.gz
Theta_e
291 292 292 291 292 292 290 289 285 288 288 292 294 295 295 295 296 301 304 305 304 303 305 306 305 303 303 303 305 305 304 303 303 302 300 296 294 293 295 294 294 293 293 292
288 291 291 289 292 291 291 290 290 290 289 293 293 294 294 295 297 298 301 302 305 305 306 306 303 301 303 303 304 304 302 299 297 296 296 295 295 294 293 293 293 293 291 290
283 287 287 283 288 291 291 292 291 286 291 292 292 294 293 295 297 299 301 303 304 305 304 302 301 302 300 298 296 295 297 296 296 296 294 293 293 293 293 292 291 290 290 288
281 282 275 289 294 293 291 290 291 291 292 293 293 294 295 296 297 297 297 296 296 297 297 296 294 294 294 294 295 295 294 293 293 293 293 294 295 294 291 290 288 287 287 287
280 281 285 290 290 290 289 287 292 292 293 294 295 295 295 295 293 291 290 290 290 291 292 292 292 292 291 291 293 292 292 293 295 295 295 295 292 290 289 287 286 286 286 286
279 278 277 289 293 294 293 283 294 294 294 294 293 286 291 291 291 289 289 289 289 289 289 289 288 290 289 289 291 291 292 294 295 294 293 291 289 287 287 286 285 285 284 284
276 277 283 291 295 294 283 285 294 296 295 294 292 291 291 290 288 288 288 287 289 289 288 288 290 290 289 289 290 293 294 293 293 291 290 289 287 286 285 284 283 283 283 283
279 275 280 295 293 287 290 294 296 296 296 295 290 290 289 288 287 287 286 287 288 288 288 289 290 290 289 289 291 291 290 289 288 288 287 287 285 284 284 283 282 282 278 281
287 286 294 296 294 295 296 296 296 296 297 294 290 288 288 287 287 287 287 286 288 289 289 289 290 290 287 288 289 288 287 286 286 286 285 285 283 283 282 282 280 281 281 281
290 294 295 296 297 296 297 295 296 297 296 292 289 289 287 287 287 287 287 288 290 289 289 289 290 289 287 287 287 286 284 284 284 283 283 283 283 283 282 280 280 282 282 282
290 293 296 296 294 293 292 293 292 292 292 290 289 288 287 286 287 288 289 289 290 288 287 285 285 285 285 285 285 284 283 283 283 282 282 283 283 282 283 283 283 283 284 283
288 295 294 294 293 293 292 291 291 289 288 289 289 287 287 287 288 289 289 288 286 285 284 283 284 284 285 285 284 283 282 282 281 281 281 281 281 282 285 285 286 286 286 284
295 298 293 292 292 292 290 289 289 288 288 286 287 288 288 288 288 287 286 285 284 283 283 283 282 281 281 282 283 281 279 280 280 280 280 280 280 280 279 282 285 285 285 286
294 293 289 290 288 289 289 289 289 288 288 288 287 287 285 285 285 284 284 283 282 282 282 280 279 278 280 281 280 279 278 279 278 277 277 278 277 278 279 279 278 279 283 283
292 293 292 289 289 288 288 288 286 285 285 284 285 285 285 282 280 280 280 282 281 279 278 278 277 277 279 279 278 278 276 276 276 275 275 276 277 277 279 279 279 279 280 280
290 289 289 287 287 287 287 285 283 283 283 283 283 283 282 281 280 280 280 280 278 275 275 272 276 277 278 276 275 275 275 274 274 275 275 276 276 276 276 276 276 276 276 278
287 286 287 286 286 286 285 285 285 283 282 282 281 281 280 280 280 279 277 277 275 274 275 275 274 275 275 275 274 274 273 273 272 274 272 272 272 272 273 274 273 273 274 275
292 291 291 289 288 286 285 284 283 282 281 280 279 277 277 277 277 276 275 274 273 272 275 274 274 273 273 273 273 273 271 270 271 269 270 269 268 270 269 270 270 270 270 272
292 291 291 290 288 286 284 282 282 281 278 278 277 276 276 275 277 275 274 270 269 271 274 273 273 272 271 271 271 270 267 266 266 267 266 265 265 266 266 266 266 266 267 269
289 289 287 285 285 283 281 281 280 279 278 276 275 274 273 271 272 271 271 271 272 273 274 272 271 270 269 269 266 267 265 264 264 263 262 262 262 261 263 263 263 264 263 265
286 285 283 282 280 280 280 279 277 276 276 274 273 271 271 271 271 269 270 271 272 272 273 270 270 269 269 266 267 262 258 257 257 259 258 259 259 259 261 260 260 261 261 262
284 282 281 280 279 278 279 278 276 274 273 271 268 269 270 271 269 269 266 271 273 266 270 270 269 262 265 261 265 257 261 259 257 256 256 256 257 257 259 258 258 260 260 260
283 282 281 279 278 278 278 276 274 273 271 270 270 270 271 273 271 268 268 272 272 266 270 265 261 259 257 254 253 251 252 253 252 252 253 250 251 253 257 256 256 258 258 259
281 281 280 279 277 276 275 275 276 274 271 271 267 265 271 267 264 271 270 263 260 258 259 258 257 258 255 251 250 250 250 250 249 248 255 252 248 251 253 254 255 256 256 258
280 279 279 278 278 276 277 276 274 274 273 273 272 273 272 270 265 265 261 261 263 261 258 256 257 255 250 250 249 250 249 249 248 248 249 247 248 250 250 251 252 254 254 256
279 278 277 277 276 276 275 274 273 272 270 266 266 260 264 264 265 265 261 259 260 259 257 252 251 250 250 251 251 251 252 253 249 249 248 247 248 249 250 251 251 252 254 255
276 275 275 274 274 273 272 271 269 268 267 262 263 260 264 263 261 262 255 253 252 252 251 251 250 252 252 250 250 252 253 251 248 249 246 245 247 247 248 249 250 251 253 254

GFSNGP_sfc_thetae_060.txt.gz
Theta_e
289 290 291 290 290 289 288 288 285 287 286 291 293 292 293 293 294 296 298 304 304 304 305 306 305 302 301 301 302 303 303 302 302 302 301 299 296 296 296 296 295 294 293 292
287 289 290 288 291 290 290 289 288 288 288 293 291 292 293 294 296 299 299 301 303 302 304 304 302 302 302 302 301 302 301 300 300 299 297 296 296 295 294 293 293 293 292 291
284 286 287 283 288 290 291 291 290 286 290 292 291 292 291 294 296 298 298 300 301 301 301 300 299 301 299 298 298 297 297 297 297 296 294 294 293 294 294 294 294 292 291 289
281 281 275 289 292 292 291 290 290 289 290 291 292 293 292 292 294 293 293 293 294 294 293 292 293 293 294 295 294 295 294 293 293 293 294 295 295 295 294 292 290 287 287 286
281 280 284 288 290 289 288 287 291 290 291 293 294 293 292 290 289 288 288 288 288 289 290 290 290 291 292 292 292 293 294 295 295 295 294 294 294 293 289 287 286 285 285 284
279 278 277 287 292 292 291 283 292 292 292 293 292 285 289 288 288 287 287 287 287 287 288 288 288 290 291 291 292 292 294 295 295 295 295 292 289 288 286 284 284 284 283 284
276 277 283 292 292 293 283 286 292 294 295 293 290 289 288 287 286 286 286 287 287 287 287 286 288 289 289 291 291 294 294 294 292 290 289 287 285 284 284 283 282 282 282 282
279 277 281 293 292 288 290 291 293 293 294 292 288 287 286 286 285 286 285 286 287 287 287 288 288 289 287 289 290 290 289 288 287 286 286 285 283 283 283 282 281 281 279 281
289 288 294 294 292 293 294 294 295 295 295 291 288 287 286 285 285 285 285 286 288 287 287 287 287 288 288 287 287 287 285 285 284 284 283 283 282 282 281 281 279 280 281 281
290 292 294 295 295 295 295 295 296 296 292 291 288 287 286 285 285 285 286 286 287 287 285 283 286 286 285 285 285 284 283 283 282 282 282 282 282 282 280 278 279 281 281 281
290 293 295 296 294 293 292 293 293 292 291 289 288 286 286 285 286 286 286 287 286 284 284 284 285 284 284 283 283 282 281 281 281 280 280 280 280 280 281 280 280 281 281 281
291 296 295 294 292 293 292 291 291 290 288 288 288 286 286 286 286 286 284 285 284 284 284 283 281 280 281 282 280 279 279 279 278 278 278 278 277 278 281 282 283 283 283 281
296 297 292 292 291 291 290 289 289 288 288 286 286 287 287 286 284 285 285 284 283 283 282 279 278 278 279 280 280 279 277 278 277 276 276 276 276 276 275 278 282 282 282 282
293 293 290 291 288 289 288 288 288 287 287 287 286 286 284 283 284 283 282 283 283 280 278 278 277 277 278 278 278 277 276 275 274 274 274 275 275 276 277 276 274 274 278 278
290 291 291 289 288 287 287 287 285 284 284 284 284 283 283 281 281 281 282 280 278 277 277 277 276 276 276 277 276 275 275 274 274 272 272 274 273 272 272 272 272 273 273 274
288 289 289 286 286 286 286 285 283 283 284 283 282 281 281 281 280 280 280 280 277 275 275 272 274 274 275 275 275 274 274 273 272 272 271 271 270 270 270 270 271 270 270 269
286 285 285 285 285 284 284 285 284 283 283 282 281 280 281 280 278 278 276 276 275 275 274 273 273 274 274 274 274 272 271 271 269 270 269 268 267 268 267 268 266 266 266 267
291 291 290 288 285 284 283 284 284 284 282 281 280 279 278 278 277 276 274 274 273 273 273 273 273 273 272 272 272 270 268 268 267 267 266 265 264 265 264 265 264 264 264 265
290 289 288 287 286 284 283 283 282 281 279 278 278 277 277 277 276 275 273 271 270 272 272 272 273 271 270 270 269 267 266 263 263 265 262 261 260 262 260 262 261 261 262 262
289 288 287 285 285 283 282 281 280 279 278 277 276 275 275 274 273 271 271 271 272 273 273 271 270 269 269 268 265 266 263 258 262 259 257 258 254 254 255 259 259 259 259 259
285 284 283 282 281 281 280 279 278 277 277 276 275 273 273 272 271 270 270 271 272 273 272 270 269 268 268 265 266 260 256 254 254 254 254 251 250 253 253 253 253 256 257 258
283 281 280 280 279 278 278 278 277 275 274 272 272 272 271 271 270 270 268 271 272 268 270 270 269 262 264 260 264 256 260 257 254 252 252 250 248 248 250 251 251 254 255 256
282 281 280 279 278 277 276 275 274 273 272 271 271 271 272 272 271 269 268 272 271 266 269 265 262 258 256 253 252 250 251 251 250 249 248 247 246 245 248 251 252 252 253 254
281 280 279 278 277 276 274 275 275 273 271 271 268 267 271 268 266 271 270 264 260 258 259 258 256 257 254 250 249 249 248 248 247 246 250 249 244 244 248 248 250 251 252 252
280 279 278 277 277 276 276 275 274 273 273 273 272 272 271 270 265 266 261 262 263 260 258 255 256 255 249 248 249 248 249 249 247 245 246 245 244 246 247 247 248 249 251 251
277 276 276 276 275 275 275 274 272 271 270 267 268 264 263 265 265 264 259 259 259 258 256 252 251 249 248 249 248 248 250 255 250 247 246 245 243 247 246 248 248 249 249 251
275 275 274 273 273 273 272 272 271 270 268 267 266 265 265 264 262 261 255 253 252 251 250 251 252 251 251 248 248 249 250 250 250 249 246 243 242 242 244 245 247 248 249 250

GFSNGP_sfc_thetae_063.txt.gz
Theta_e
292 292 294 294 294 293 293 294 291 294 291 296 299 300 300 298 299 300 303 304 310 311 314 315 313 310 309 309 308 308 306 305 304 304 304 301 299 299 300 298 298 299 297 296
291 293 292 292 293 293 294 293 293 292 292 298 299 298 298 298 301 303 304 306 307 308 310 309 307 307 306 306 307 307 306 303 302 301 300 297 298 297 296 296 295 295 294 294
288 290 291 287 292 293 294 295 295 291 297 297 296 296 297 299 302 301 301 302 303 304 305 306 305 305 304 304 304 304 303 301 299 298 296 295 294 295 295 297 296 295 296 297
287 285 282 294 295 296 295 296 296 294 295 296 297 296 296 296 300 298 298 298 298 299 299 300 301 301 301 301 300 298 296 294 294 295 296 296 297 297 296 296 296 296 295 294
286 286 289 291 293 294 293 294 297 296 295 296 297 297 294 292 294 294 294 294 294 296 296 297 298 299 298 297 295 295 295 295 296 296 296 297 296 296 296 294 293 292 292 292
284 284 283 292 295 296 297 289 297 296 296 296 296 295 297 292 291 291 292 293 293 293 294 294 295 297 296 295 295 295 295 295 297 296 296 295 294 293 293 292 291 291 290 291
283 287 289 294 296 297 289 293 297 298 298 298 296 296 294 291 290 291 291 291 292 293 292 292 295 296 295 295 294 296 296 293 292 292 291 291 291 291 290 290 290 289 288 290
285 285 285 296 293 292 298 296 298 298 299 298 292 290 290 289 289 289 290 290 291 291 291 293 294 294 292 291 291 290 290 290 290 290 289 289 289 290 289 289 288 287 287 287
292 293 299 297 300 299 298 299 298 299 299 294 291 289 289 288 288 289 290 290 291 290 289 290 291 291 289 289 289 289 289 288 287 287 286 286 286 285 285 285 284 283 283 284
294 297 297 298 300 299 299 299 300 300 297 295 291 289 288 288 288 289 289 289 289 288 287 286 288 287 288 288 288 287 285 285 284 284 283 283 283 283 282 282 282 282 282 281
294 296 297 299 299 299 297 297 296 296 296 294 291 289 288 288 288 289 289 288 288 287 286 285 285 284 284 284 285 283 283 282 281 281 281 281 281 281 281 282 282 281 281 281
293 299 299 301 301 298 296 296 295 293 291 292 291 289 288 288 289 288 287 287 287 286 283 281 282 281 282 282 282 282 280 280 279 279 279 279 279 279 280 280 281 281 280 280
299 299 295 294 293 295 294 293 293 292 291 289 289 289 289 288 287 286 286 286 284 281 280 280 280 279 280 281 280 279 278 278 278 278 278 277 277 277 277 279 278 278 278 278
295 295 293 293 293 292 291 290 290 289 289 289 289 289 287 285 285 285 284 283 281 280 280 280 279 277 278 279 278 278 277 275 277 277 277 276 276 275 276 275 274 276 276 275
291 293 293 290 289 288 289 289 287 287 287 287 287 286 285 284 283 282 282 280 280 279 279 278 276 276 277 278 277 276 276 276 276 275 275 274 274 274 274 273 273 273 273 273
289 290 290 288 287 287 288 287 286 285 285 285 284 284 283 283 281 280 279 280 278 276 276 274 274 276 276 276 276 275 275 273 273 273 273 272 272 272 271 271 271 270 270 270
287 285 286 286 286 286 286 287 286 285 284 283 282 282 282 281 279 278 277 277 275 275 274 274 274 275 275 275 274 273 273 273 270 271 270 269 269 269 269 269 269 268 268 268
294 291 291 289 287 285 285 285 284 284 282 282 281 279 279 279 277 276 275 275 274 273 274 273 274 273 273 272 272 271 270 269 269 269 268 267 267 267 267 266 267 266 266 267
290 289 288 287 286 286 285 284 282 281 280 280 280 279 278 278 277 276 275 274 273 272 272 273 273 272 271 271 270 269 268 267 267 267 266 265 265 265 264 264 265 264 264 264
287 286 286 285 285 284 281 282 282 280 280 279 278 277 276 275 274 273 274 274 274 274 274 272 271 270 270 269 268 268 267 266 265 265 265 264 263 263 263 262 262 262 262 263
284 284 283 282 281 281 281 281 279 278 278 278 277 276 275 274 273 273 273 272 273 273 273 271 271 270 270 269 269 268 267 266 265 264 263 262 262 262 261 261 261 261 261 261
282 281 280 280 280 279 279 279 278 277 276 274 274 274 273 273 272 272 272 273 274 272 272 272 271 266 268 265 268 267 267 266 264 263 263 262 261 260 260 260 259 259 260 260
281 281 280 279 278 277 277 276 275 275 274 274 273 274 274 274 273 272 271 273 273 270 272 271 266 263 261 267 266 265 264 263 263 262 262 261 260 259 259 258 258 258 258 259
280 279 278 278 277 276 275 275 275 274 273 273 272 272 274 272 272 273 273 268 266 269 269 268 265 262 260 265 264 264 263 263 262 262 261 257 260 258 258 257 256 257 257 257
279 279 278 277 276 275 275 275 274 274 274 273 273 273 273 272 273 271 270 269 268 268 268 261 260 259 264 264 263 263 263 262 262 261 260 260 259 257 257 257 256 256 256 256
277 276 276 276 276 276 275 275 273 272 272 271 271 271 270 271 270 269 268 266 267 265 266 264 263 263 263 263 262 261 261 262 261 261 259 259 258 257 256 255 255 255 255 255
275 275 274 273 273 273 274 274 273 271 271 271 271 271 270 269 268 267 265 266 265 264 263 263 263 262 262 261 261 261 260 260 258 259 259 257 256 256 255 254 254 254 254 254

GFSNGP_sfc_thetae_066.txt.gz
Theta_e
298 298 298 297 297 298 297 297 294 297 297 301 304 306 308 307 306 306 308 309 314 319 322 323 323 323 323 317 311 311 308 307 306 306 305 303 302 301 301 299 299 299 299 298
295 298 297 295 298 298 299 299 299 299 298 305 307 307 305 305 305 307 309 311 313 316 319 318 317 317 316 315 311 310 307 305 304 303 303 303 300 299 300 299 297 296 296 296
292 296 296 291 296 298 300 301 301 297 301 305 305 305 305 305 307 307 309 310 312 314 315 314 314 314 313 312 311 308 305 304 304 304 301 299 297 295 296 296 297 296 298 299
293 291 286 297 301 303 301 302 303 303 304 305 305 305 305 305 308 307 307 307 308 310 310 311 312 311 310 310 309 307 305 304 303 300 297 297 297 297 298 299 299 301 300 298
292 291 295 297 296 299 299 299 305 303 305 305 304 303 302 303 307 307 306 306 307 308 308 309 308 308 306 304 302 301 300 298 298 298 297 297 297 297 299 300 299 298 296 295
292 289 287 297 302 305 303 294 305 305 304 304 302 299 304 302 302 302 303 303 304 305 306 306 306 305 303 301 300 298 298 298 299 300 299 298 298 297 298 298 295 295 294 295
293 293 296 301 300 303 293 297 306 306 306 305 302 304 304 301 300 301 301 301 303 303 303 303 304 303 301 301 299 300 300 297 296 296 296 295 295 295 296 295 294 294 292 293
293 291 289 300 298 297 305 307 307 307 307 306 305 301 299 299 298 298 298 299 300 300 300 302 303 302 299 298 298 297 295 293 294 294 293 293 294 294 293 292 290 289 290 288
297 298 305 304 306 307 307 308 306 307 307 308 300 298 298 297 297 298 298 298 299 298 297 298 299 298 295 295 295 294 293 292 292 291 290 289 289 288 288 288 287 286 285 286
298 303 303 305 307 306 306 306 306 307 307 305 301 299 298 297 297 297 297 296 296 295 294 293 295 294 294 293 293 292 290 289 289 286 287 286 287 286 286 286 285 284 284 284
300 304 302 303 307 308 306 306 305 306 306 303 301 298 297 297 296 296 295 295 295 294 292 290 290 289 290 290 290 288 287 285 285 285 284 285 285 285 284 285 283 282 283 282
298 307 305 307 307 310 307 305 304 303 302 302 300 298 297 296 296 295 293 294 292 291 289 288 286 285 286 287 287 286 284 284 283 284 284 284 284 284 280 280 279 279 279 279
304 302 303 301 300 302 305 305 303 302 303 300 300 298 297 295 294 292 293 292 290 288 287 286 284 284 284 284 284 283 282 282 282 282 282 282 282 282 281 281 278 278 277 277
302 301 301 298 300 299 299 299 299 299 298 297 296 296 295 293 291 292 291 290 288 286 284 283 282 281 282 283 282 281 280 278 282 282 282 281 280 280 280 279 278 279 278 276
298 299 300 298 297 296 297 296 294 294 294 294 295 294 292 290 290 290 288 286 285 284 283 282 281 280 282 281 280 280 280 280 280 280 279 278 279 278 278 277 277 277 277 276
297 297 296 296 295 295 296 295 293 292 293 292 291 291 291 290 288 285 284 283 281 280 280 278 278 279 280 280 279 279 278 275 275 278 278 277 277 276 276 275 275 275 275 274
295 293 293 293 292 292 293 294 293 291 290 290 289 289 286 283 281 279 279 278 277 276 277 277 277 278 278 278 277 278 278 276 272 276 276 275 275 274 274 273 273 273 273 273
298 296 295 295 293 290 290 290 288 287 286 285 282 281 281 280 278 277 276 276 275 275 275 275 276 275 275 275 275 275 275 275 275 274 274 273 272 273 272 272 272 271 271 271
296 295 291 291 288 286 285 284 283 283 282 282 282 281 280 279 278 277 276 275 274 273 274 275 274 274 274 273 274 274 274 273 273 273 272 269 272 271 271 270 270 270 270 270
289 288 286 285 285 283 282 283 283 282 282 281 280 279 277 277 277 276 277 276 277 276 275 274 274 273 273 271 271 273 273 272 271 271 271 270 270 269 269 267 267 268 269 269
283 283 282 282 282 283 283 283 282 281 281 281 279 278 276 276 276 276 276 275 274 275 274 274 274 274 273 273 273 273 272 272 271 270 270 269 268 269 268 267 267 267 267 267
282 282 282 283 282 282 282 282 280 279 279 278 277 276 275 275 275 275 276 276 276 274 275 275 274 270 271 269 273 272 271 270 270 270 269 268 268 267 266 266 265 266 266 266
283 282 281 280 280 280 280 279 278 278 277 277 277 277 277 277 277 276 275 275 276 274 275 274 269 267 266 271 271 270 270 268 268 268 268 267 267 266 265 265 264 264 264 264
281 281 280 281 280 279 277 277 277 276 275 275 276 276 277 277 276 277 275 273 272 274 273 272 270 265 265 270 269 269 268 268 268 267 267 265 266 266 265 264 263 263 263 263
281 281 280 279 278 277 277 277 277 277 276 276 276 276 276 277 277 276 275 273 271 271 273 266 265 264 269 269 268 267 267 267 267 266 266 266 265 264 264 264 262 262 261 261
279 278 278 279 279 279 278 278 277 277 277 276 276 276 276 276 275 274 273 271 271 269 270 270 269 268 269 268 267 266 266 266 266 265 264 264 264 264 263 262 261 261 261 261
277 277 277 276 276 276 277 277 276 275 275 275 275 275 275 274 273 272 270 271 270 269 269 269 269 267 267 266 266 266 266 265 264 263 262 263 263 262 262 261 260 260 259 259

GFSNGP_sfc_thetae_069.txt.gz
Theta_e
299 300 300 299 298 299 298 299 296 298 298 301 304 305 307 310 311 310 310 311 314 318 321 324 326 327 322 317 315 313 310 308 306 306 305 305 302 302 301 301 301 300 299 299
296 299 299 297 298 299 299 299 299 299 298 306 308 308 307 308 309 308 310 312 313 316 322 323 324 324 316 313 311 310 308 306 306 304 303 302 302 301 301 300 300 299 298 298
293 298 298 294 297 298 299 301 301 297 302 306 305 306 307 308 309 309 312 313 314 318 321 321 320 318 313 311 309 306 305 305 305 305 302 301 300 299 297 297 297 297 300 300
295 293 287 298 304 303 301 302 304 303 304 305 306 308 309 311 310 311 312 313 315 317 317 318 318 316 313 311 308 307 306 305 304 302 299 299 298 297 297 299 301 302 302 301
293 293 295 298 300 300 299 299 304 304 305 306 308 308 307 309 311 312 312 313 314 315 315 315 314 314 313 311 309 307 305 303 302 302 299 298 297 298 300 300 302 300 299 297
296 289 287 297 302 306 306 296 306 306 306 306 306 301 303 308 311 310 310 311 311 312 312 311 311 310 308 307 306 303 302 301 301 300 300 301 301 302 300 299 297 296 295 295
294 293 296 302 305 307 295 297 307 308 308 307 305 306 309 308 308 309 309 309 310 310 309 309 309 308 305 304 302 302 302 301 300 300 301 300 298 297 296 296 295 295 293 294
296 293 290 306 302 298 306 310 310 310 310 309 310 308 307 307 306 306 306 306 308 307 307 308 308 306 304 302 303 302 300 298 298 297 295 296 296 295 294 294 292 291 290 289
298 299 308 307 307 309 310 310 311 311 311 311 309 306 305 304 304 304 304 305 306 305 305 306 306 305 302 300 299 299 298 296 295 294 293 293 292 291 290 290 289 288 287 287
300 303 306 308 309 310 311 310 311 311 311 311 309 306 304 303 303 303 303 303 304 303 302 301 301 300 299 298 298 296 294 293 292 291 289 289 289 289 289 289 288 286 285 285
299 302 304 307 308 311 311 311 310 310 310 310 308 305 304 303 302 302 301 301 301 300 299 297 297 296 296 296 295 292 291 289 289 288 288 287 287 286 286 285 283 283 284 283
298 304 306 306 309 310 311 311 311 309 308 309 308 305 304 303 302 301 300 300 298 297 296 294 293 292 293 293 292 289 287 287 287 287 286 286 286 285 281 281 280 279 278 279
304 306 307 307 304 305 306 310 311 310 309 307 307 305 303 302 301 296 298 297 296 294 292 291 289 288 288 288 288 287 286 285 283 284 285 284 284 284 283 280 280 279 278 277
307 305 304 306 304 303 304 305 304 307 307 307 305 304 302 299 296 297 295 295 294 291 289 288 285 284 285 285 284 283 282 280 284 284 283 283 283 281 281 281 280 281 279 277
306 305 305 304 303 302 302 301 301 301 302 301 301 300 299 297 295 295 294 292 290 287 285 283 282 282 283 283 283 282 282 282 282 282 281 279 280 280 280 279 279 279 279 279
304 302 302 302 301 300 300 300 299 298 298 298 298 298 296 296 293 290 289 287 284 281 279 279 279 280 281 281 280 280 278 276 277 279 279 278 278 278 278 277 277 277 277 277
301 300 299 299 299 299 299 299 298 297 297 295 294 295 290 287 284 281 280 280 279 278 278 278 277 278 279 278 279 279 279 278 273 277 277 277 276 276 276 276 275 276 276 276
303 302 301 301 299 297 295 295 294 292 289 285 283 282 281 280 277 277 277 277 276 276 276 276 276 276 276 276 277 277 277 276 276 276 275 276 275 275 275 274 274 274 275 275
298 295 296 294 292 289 286 284 283 282 283 282 280 279 279 279 278 277 277 276 275 274 274 275 275 275 274 274 275 276 275 275 275 275 274 273 274 274 274 274 273 273 272 272
287 286 285 284 284 283 282 283 283 282 282 281 280 279 277 277 277 277 278 277 277 276 276 275 275 274 274 273 273 275 275 275 274 273 274 272 273 273 272 271 271 271 271 271
282 283 283 283 283 284 284 284 284 282 283 282 280 278 277 278 279 278 277 275 275 276 275 275 276 275 275 274 274 275 275 274 273 273 272 272 272 271 271 271 270 270 270 270
284 284 283 284 283 283 283 283 282 281 280 279 278 278 277 277 277 277 279 277 276 276 277 276 275 272 272 271 274 274 273 273 272 272 271 271 270 270 269 269 269 268 268 268
283 283 283 282 281 281 281 281 280 280 279 279 279 279 279 279 279 278 275 277 277 275 277 275 271 270 270 273 273 272 272 271 271 270 270 270 269 268 268 268 267 267 267 267
283 283 282 282 282 280 278 278 278 278 278 278 278 279 280 279 278 278 277 275 275 275 274 273 271 269 268 272 272 271 270 270 270 270 269 268 268 268 268 267 266 267 266 265
282 282 282 281 280 279 279 279 279 279 278 278 278 278 278 278 278 277 276 274 273 274 274 269 269 269 271 271 270 269 269 269 269 268 267 267 267 266 266 266 266 265 264 264
280 280 280 280 280 280 280 280 278 279 278 277 277 277 277 277 276 275 274 273 272 272 272 272 271 270 270 270 269 268 268 268 267 267 266 266 266 265 265 265 265 264 263 263
279 279 278 277 277 277 277 277 276 275 276 277 275 276 276 276 274 274 273 273 272 272 271 271 271 269 268 268 267 267 267 267 266 266 265 264 264 264 264 264 263 263 262 261

GFSNGP_sfc_thetae_072.txt.gz
Theta_e
299 299 299 298 298 299 297 299 295 299 298 301 304 305 307 309 311 310 310 310 312 313 319 322 323 322 320 319 317 315 311 308 306 305 304 303 304 304 303 302 301 300 299 298
296 299 299 296 299 299 299 298 298 299 298 305 306 307 307 307 308 309 310 312 313 314 320 323 321 316 313 311 310 310 306 304 304 303 303 302 301 301 300 300 299 298 298 298
291 298 296 290 297 298 299 300 299 295 301 305 305 305 307 309 308 308 311 313 314 316 322 322 316 314 310 308 308 306 304 304 304 303 302 301 301 300 299 298 298 297 297 298
291 292 285 297 303 302 300 300 302 302 303 305 305 307 309 310 311 310 312 314 316 320 320 317 314 312 309 307 306 305 304 304 303 301 300 299 298 297 296 297 297 298 299 299
290 290 295 297 300 300 299 298 304 302 304 305 307 309 308 310 311 313 313 315 316 318 318 316 313 311 309 307 306 305 303 302 301 300 298 297 296 296 298 299 300 300 299 295
292 288 285 297 303 306 305 293 305 305 305 306 307 301 305 309 311 313 313 314 314 315 315 314 313 312 309 307 305 303 302 302 301 300 299 298 298 299 300 300 299 295 294 294
290 289 295 302 304 306 292 295 306 307 307 308 305 308 309 311 311 312 311 312 313 312 310 310 310 309 307 305 302 303 302 301 300 300 301 301 300 298 295 294 294 290 289 288
292 289 288 306 304 296 302 310 310 310 311 311 309 309 308 309 308 308 308 309 310 308 307 308 308 307 304 302 302 302 301 300 300 299 297 296 294 293 293 292 288 286 285 285
296 297 308 309 307 309 310 310 311 312 312 312 309 308 308 307 307 307 307 307 309 307 306 307 307 306 302 301 302 300 298 296 295 294 294 294 292 289 288 288 285 284 283 283
295 301 304 308 310 312 310 310 312 313 312 312 309 308 307 306 305 305 306 305 306 305 304 304 305 304 301 299 299 298 295 293 292 290 289 288 288 288 287 285 283 283 282 282
297 300 302 303 306 310 310 312 312 311 312 310 311 307 306 305 304 304 304 304 304 303 302 301 300 298 298 298 297 294 292 290 288 287 287 286 284 283 283 281 281 280 280 280
298 304 304 305 308 308 310 311 313 311 310 310 311 308 306 305 305 304 302 303 302 300 298 296 295 294 295 295 293 290 288 287 285 286 284 285 284 282 282 281 280 280 279 279
304 308 308 309 307 307 306 308 310 311 312 309 310 308 306 304 304 298 301 300 297 295 294 292 291 289 288 289 288 287 284 284 283 284 283 282 282 282 280 279 280 279 279 278
306 308 306 307 305 304 305 305 305 307 308 308 307 306 304 302 299 299 298 297 295 293 290 287 285 284 285 284 283 282 282 283 283 282 282 282 281 281 281 280 279 278 279 278
308 307 306 306 304 302 302 303 302 302 303 303 303 301 298 297 296 296 295 293 290 287 284 283 281 281 283 283 282 281 280 280 280 280 278 278 279 279 279 279 278 278 278 278
307 304 304 303 302 301 301 301 298 298 299 299 298 298 295 291 286 283 284 284 280 278 279 278 278 278 281 282 279 278 277 277 277 279 279 278 278 277 277 277 277 276 276 276
301 300 301 300 299 300 299 299 299 297 296 291 285 284 283 281 280 278 278 278 278 277 277 277 277 278 279 279 279 278 278 276 274 278 277 276 276 276 276 275 274 274 273 272
303 303 303 301 298 296 289 288 287 285 283 283 281 280 278 277 275 276 276 277 276 275 276 276 276 276 276 276 276 276 276 276 276 275 275 275 274 273 273 273 273 272 273 273
295 292 290 289 288 286 284 283 283 282 282 281 279 278 278 277 277 277 276 275 274 273 274 276 276 275 273 274 275 276 275 275 275 275 274 273 273 273 273 272 272 271 270 270
286 286 285 284 284 282 281 281 281 281 281 279 278 277 276 276 277 277 277 275 276 275 275 275 275 274 274 273 273 275 275 274 274 273 274 272 271 272 271 270 271 270 270 269
282 283 282 282 282 282 282 282 281 281 281 279 278 277 277 277 277 277 275 273 275 276 276 275 275 275 274 272 273 275 274 273 273 272 272 271 271 271 270 270 270 269 268 268
283 282 282 282 281 281 281 281 280 279 278 277 277 277 277 276 276 276 277 275 275 275 276 275 273 270 270 269 274 273 273 272 271 271 271 270 270 269 268 268 267 267 267 266
282 282 281 280 280 280 280 280 279 279 278 278 278 278 278 278 279 277 274 276 277 275 274 272 269 268 267 271 272 272 271 270 270 270 269 269 268 268 267 266 267 266 265 265
282 281 281 281 280 279 277 277 278 278 276 276 275 277 279 277 276 277 276 273 272 273 271 270 269 267 264 271 271 270 269 269 268 268 268 265 266 267 266 266 265 265 265 264
281 281 280 279 278 278 278 279 279 278 278 277 276 276 276 276 275 275 275 273 271 272 270 267 268 266 269 269 269 268 268 268 267 266 266 266 265 265 265 265 265 264 263 262
279 279 279 280 279 279 279 279 277 278 276 275 276 276 276 276 275 274 273 272 272 270 271 271 270 269 268 268 266 266 266 267 266 266 265 264 263 263 263 263 263 262 262 261
278 278 277 276 276 276 276 275 274 274 276 275 273 274 274 274 273 272 271 271 271 270 269 269 269 267 267 266 266 266 265 265 265 264 263 263 262 262 262 261 261 260 260 259

GFSNGP_sfc_thetae_075.txt.gz
Theta_e
295 297 298 296 296 295 293 295 292 294 295 299 299 299 301 303 304 305 305 305 305 309 311 317 316 314 312 310 309 309 308 306 304 305 305 304 303 302 302 301 301 300 299 299
292 296 296 295 296 296 296 297 295 295 296 302 301 300 301 303 305 305 305 308 308 311 318 317 314 310 309 307 307 307 305 304 304 304 302 301 301 301 301 300 299 299 298 297
287 294 294 286 292 296 296 298 296 292 296 299 298 300 299 302 302 303 307 308 310 318 318 314 310 308 306 306 306 304 303 303 303 302 301 301 301 300 298 297 297 297 297 297
286 288 282 293 299 298 297 299 298 298 298 299 299 299 302 303 304 307 308 309 314 314 312 310 307 306 305 305 305 304 303 303 302 301 300 300 299 298 297 297 297 296 295 295
286 286 291 295 297 296 295 294 300 298 299 300 301 302 300 305 305 306 308 309 312 312 310 308 306 306 305 304 304 304 302 301 300 299 298 297 296 296 295 294 295 296 298 290
287 283 281 293 300 302 301 288 300 300 300 300 301 293 297 303 308 308 309 310 311 311 309 307 306 306 304 304 303 301 301 300 300 299 298 296 295 294 296 298 298 293 290 288
283 284 289 299 302 302 288 288 302 303 301 300 298 299 302 306 306 307 308 309 309 310 308 307 307 306 303 303 301 302 301 300 299 298 297 296 297 297 295 291 289 285 284 285
287 285 284 302 300 294 297 301 304 303 301 302 303 302 304 305 305 306 306 307 306 304 303 304 306 304 301 299 302 301 299 297 297 298 299 296 292 290 290 288 284 283 282 282
293 289 300 304 302 305 304 304 304 303 306 306 303 303 304 303 303 303 304 304 304 302 302 302 302 302 299 298 300 300 299 296 292 294 293 292 288 286 285 284 282 281 282 281
292 296 298 303 304 305 306 305 307 307 305 306 303 303 302 302 302 302 302 302 302 301 300 300 300 300 299 299 298 295 292 290 288 286 285 285 285 286 283 281 280 281 281 280
293 296 298 302 302 303 304 306 307 308 306 305 305 302 302 301 300 300 300 300 301 299 295 294 296 296 297 296 293 290 287 286 285 286 283 281 282 283 281 280 281 280 278 279
289 298 298 300 303 306 305 306 307 307 305 305 305 303 302 300 300 299 298 299 295 293 292 290 286 285 289 291 289 286 285 284 284 283 283 283 281 280 281 281 281 281 280 278
298 302 304 304 303 304 303 304 304 304 305 305 305 302 301 299 298 295 295 293 291 287 284 283 282 282 284 285 285 284 282 283 282 282 281 281 281 281 278 279 280 280 279 279
299 303 300 301 299 302 301 301 302 302 301 302 301 299 298 297 295 293 290 288 284 282 281 281 281 281 283 283 283 282 281 281 280 280 279 279 279 279 279 279 277 277 280 279
303 302 302 301 300 299 300 299 297 296 296 295 296 295 294 292 290 287 283 282 281 280 280 279 279 279 281 281 280 279 279 280 280 278 277 277 278 278 278 278 277 277 278 278
302 301 301 298 298 298 297 297 295 291 285 285 283 282 281 280 280 280 280 280 278 277 277 277 277 278 280 280 278 277 277 277 277 278 278 277 277 276 277 276 275 275 274 274
297 296 296 296 295 293 288 288 286 285 283 282 281 280 279 278 278 277 277 277 277 276 276 275 275 277 278 279 278 278 277 276 276 277 276 276 276 275 274 273 273 272 271 268
293 296 298 293 289 285 284 283 282 281 279 279 279 278 278 276 275 274 274 275 274 274 275 276 276 276 276 276 276 276 276 276 276 275 275 273 272 273 271 271 271 270 269 270
287 286 286 285 284 283 281 280 280 280 280 279 277 276 276 275 275 275 275 274 273 272 274 276 275 274 274 275 276 275 274 273 273 273 272 270 268 269 268 267 266 265 266 267
284 283 283 282 282 281 280 280 279 278 278 277 277 276 275 275 275 274 274 273 274 274 276 275 275 273 273 272 270 274 272 269 271 269 267 267 264 265 265 267 269 267 264 264
282 282 281 281 280 280 280 279 278 278 278 277 276 275 275 275 275 274 273 272 274 275 273 272 271 271 270 269 271 269 268 266 265 265 263 262 266 266 264 263 263 262 262 261
280 279 279 279 278 278 279 279 278 277 276 276 276 276 275 274 274 273 273 273 275 272 271 270 269 265 267 266 271 266 268 266 264 264 266 265 263 263 262 259 256 257 257 255
279 279 278 278 277 277 278 278 277 276 276 275 275 274 274 276 275 272 271 274 273 269 270 267 264 263 263 264 265 264 262 261 261 261 263 261 259 258 260 264 263 260 259 260
278 278 278 278 278 277 275 276 277 276 275 275 273 275 274 272 271 272 272 270 267 266 264 262 262 263 261 265 264 262 259 258 259 259 259 258 261 261 258 257 261 262 260 259
279 278 278 277 276 276 277 277 276 275 274 274 274 274 273 273 271 270 269 268 269 268 266 266 263 261 258 255 254 256 257 259 261 263 262 259 254 253 254 259 260 260 259 259
277 276 277 277 277 277 277 276 274 274 273 271 271 271 271 271 271 270 268 265 266 263 262 258 260 260 260 259 258 259 257 257 256 259 257 255 254 256 255 256 256 256 254 251
275 275 274 273 274 273 273 272 271 271 271 269 268 269 269 268 266 266 262 262 261 260 259 259 259 258 256 254 255 255 254 254 256 256 252 250 250 252 255 252 250 249 250 251

GFSNGP_sfc_thetae_078.txt.gz
Theta_e
293 295 296 294 294 295 294 293 289 292 292 296 299 300 301 301 301 302 302 303 305 307 309 314 312 312 312 312 311 311 310 309 306 307 307 307 306 306 305 304 303 303 302 300
289 295 295 293 295 296 295 294 293 295 293 301 302 300 299 301 302 301 302 304 305 306 315 314 311 308 309 309 308 308 306 304 304 304 304 303 303 303 301 301 300 299 298 298
284 293 293 286 292 296 295 296 295 290 294 299 299 298 298 299 301 302 303 305 309 312 315 312 309 308 307 307 307 306 305 305 305 304 302 301 301 301 300 299 299 298 298 298
283 287 281 291 298 299 297 297 297 296 296 297 298 299 299 300 301 302 303 308 313 313 308 306 307 307 306 306 305 304 304 304 303 302 300 300 300 298 298 298 298 297 297 297
283 284 289 293 296 295 295 293 298 297 298 299 299 298 297 302 304 304 306 311 311 309 306 304 304 305 305 304 305 304 303 302 301 300 299 298 297 297 297 297 297 296 295 289
283 282 278 290 298 301 300 288 299 299 299 299 298 291 295 302 305 307 309 311 309 307 306 305 304 304 303 303 303 301 301 300 300 300 299 298 297 296 297 297 296 292 288 286
282 283 287 297 300 301 289 288 299 301 300 299 296 297 300 304 306 308 310 310 308 307 305 304 304 304 301 302 301 301 301 300 299 299 298 297 297 297 295 289 287 286 283 283
285 283 282 300 300 293 296 299 302 303 302 302 300 300 302 304 305 306 306 307 307 305 303 303 303 302 300 300 301 300 299 298 298 298 297 297 294 292 289 286 284 282 281 280
289 288 299 300 301 303 302 302 303 304 304 304 301 302 304 304 304 304 304 302 304 303 301 301 301 301 297 297 298 299 298 297 295 294 293 291 290 288 287 285 282 282 281 279
292 296 298 299 300 303 303 303 305 305 304 303 301 302 301 301 301 301 302 300 302 301 298 298 301 300 298 297 298 294 290 288 287 286 286 286 286 285 284 283 283 283 282 279
291 295 296 298 299 301 303 305 307 307 304 304 303 301 301 299 300 300 300 300 298 294 292 291 295 296 296 294 291 287 286 285 284 284 284 283 281 282 280 281 282 281 280 281
287 296 295 297 299 303 303 304 305 305 304 304 303 301 300 299 299 299 294 293 286 286 285 285 286 286 288 288 287 285 283 283 283 282 282 282 281 280 282 281 281 281 281 279
296 299 299 301 302 303 302 302 302 302 303 303 303 301 300 296 294 291 287 285 283 282 282 282 283 283 284 285 284 283 282 282 281 281 281 281 281 280 279 280 281 280 280 279
299 301 298 300 299 300 300 299 298 296 296 298 298 296 293 290 286 283 282 282 282 281 280 281 280 280 282 283 282 281 281 281 280 280 279 279 279 279 279 278 277 279 280 280
301 301 301 299 299 298 297 295 289 287 287 286 292 290 285 281 280 280 280 280 280 280 280 280 280 279 281 281 280 280 280 279 278 278 278 278 278 278 277 277 277 277 277 277
299 299 298 297 296 296 293 289 286 283 283 281 280 280 280 280 279 279 279 279 278 276 277 276 277 279 280 279 278 277 277 278 278 278 278 277 276 276 275 275 275 274 273 273
294 293 294 292 289 287 286 285 283 282 281 279 279 279 279 277 277 276 275 276 275 274 275 275 275 278 278 278 278 277 277 276 276 276 276 275 274 273 273 272 271 271 269 268
293 293 292 289 285 283 281 281 280 280 278 279 278 277 276 275 273 273 273 274 274 273 274 275 276 276 276 276 276 275 275 275 275 274 274 272 271 271 269 269 270 270 269 270
287 286 285 285 283 281 280 279 279 278 277 276 275 275 275 275 274 274 274 273 272 272 273 274 275 274 273 275 275 274 272 271 271 271 270 268 268 269 268 267 267 266 268 268
282 282 282 281 281 280 278 278 278 277 277 277 276 275 273 273 274 273 273 272 273 273 274 272 272 271 272 272 272 271 269 268 268 267 266 266 265 264 264 265 265 263 260 261
280 280 279 278 278 278 278 278 277 276 277 276 275 273 273 274 273 273 272 270 271 271 271 270 270 270 271 271 270 268 265 264 262 262 263 262 258 260 262 260 260 260 260 259
278 278 277 277 277 277 278 278 277 276 276 275 275 273 272 272 272 272 272 270 271 269 269 269 268 265 267 267 266 264 264 262 261 259 257 257 257 256 257 256 260 262 260 258
278 277 277 276 276 276 276 276 275 275 274 274 274 274 273 273 273 270 268 270 270 268 268 266 264 263 262 262 260 259 258 258 259 258 257 253 252 253 255 255 254 255 258 259
277 277 277 278 277 276 274 275 275 275 274 274 273 272 271 269 269 270 269 266 265 265 265 263 262 260 258 257 256 256 255 253 253 251 254 254 249 249 249 249 253 255 253 251
277 277 277 276 275 274 275 275 274 273 273 272 272 272 272 271 268 268 268 268 267 265 262 260 259 257 255 253 253 252 250 250 250 253 250 249 248 248 250 250 249 249 248 249
276 275 275 277 276 275 274 274 271 271 271 269 269 269 269 269 267 266 264 263 263 261 259 256 255 254 254 254 251 252 252 254 251 251 248 247 247 249 248 248 247 248 248 248
274 274 273 272 272 273 273 271 269 268 268 267 266 266 265 264 263 262 259 258 257 256 254 252 252 253 252 250 251 250 250 250 249 249 246 246 247 247 245 245 245 246 247 248

GFSNGP_sfc_thetae_081.txt.gz
Theta_e
291 292 294 293 292 293 291 291 288 290 292 297 298 298 299 301 299 299 300 302 303 305 306 308 310 312 315 316 317 317 317 314 314 311 311 311 311 310 309 310 309 310 306 303
288 291 293 292 294 294 293 293 293 292 293 299 299 299 299 300 299 300 301 301 304 305 306 311 311 310 309 308 309 309 311 307 306 306 307 306 306 305 305 304 304 303 301 300
283 291 292 286 291 294 294 294 293 289 294 299 298 298 299 299 299 299 300 301 302 305 308 311 308 309 310 308 309 307 306 305 305 305 304 303 303 302 300 299 300 298 298 298
281 284 280 290 297 297 295 296 297 296 297 298 298 300 300 299 299 300 300 301 304 308 307 307 308 307 307 307 306 306 305 305 305 304 302 302 300 299 298 299 298 298 298 299
283 282 286 290 294 294 293 293 299 296 297 297 298 297 296 299 298 300 301 303 309 306 307 309 307 307 306 306 305 304 303 303 303 302 300 299 298 298 298 298 297 297 295 293
285 282 277 287 295 300 299 288 299 299 298 298 298 292 295 300 302 302 306 309 306 304 305 305 305 306 305 304 304 302 301 301 301 300 299 298 298 298 298 297 296 292 288 288
285 284 285 293 298 301 287 288 300 300 300 298 296 298 299 301 303 305 309 307 306 305 304 303 304 305 303 303 301 302 301 300 299 300 299 298 297 297 294 291 288 285 284 284
285 283 280 297 299 292 295 299 299 301 301 299 298 300 300 302 304 307 306 306 305 303 302 303 302 302 301 300 300 300 299 298 297 297 297 296 293 291 289 288 285 283 282 281
289 287 296 298 299 303 303 300 302 302 304 304 300 300 302 303 304 305 305 305 305 303 301 301 301 301 297 297 299 298 297 293 291 291 291 292 290 288 286 286 284 283 282 280
290 294 296 299 301 301 304 302 303 305 304 302 299 301 300 302 302 301 301 302 302 301 299 297 298 298 297 296 294 291 288 287 287 286 285 285 285 285 284 284 283 283 281 279
291 294 296 297 298 300 301 304 304 306 304 303 303 302 302 300 299 299 297 296 295 293 293 294 295 294 293 290 289 286 285 285 284 283 282 280 280 280 280 282 283 282 281 280
288 296 294 295 298 300 300 302 304 304 303 305 304 300 299 297 297 293 289 288 287 286 285 285 286 286 287 287 287 285 283 282 282 282 281 281 280 280 282 281 282 282 281 280
292 296 296 298 300 301 300 300 300 300 302 303 301 300 297 288 286 285 284 283 283 282 283 282 282 282 283 284 284 282 281 281 281 281 281 281 281 281 279 280 282 281 281 280
297 295 296 299 298 299 298 294 293 294 294 294 292 290 287 284 283 282 281 281 282 281 281 281 281 281 283 283 283 281 280 280 280 279 279 279 279 279 279 278 277 278 280 280
296 296 297 298 297 295 293 291 286 284 283 283 285 283 282 280 279 279 280 281 281 280 280 280 279 278 280 281 280 279 278 278 278 277 277 277 277 276 276 276 276 275 276 276
293 295 296 295 293 291 289 287 283 281 280 280 279 279 279 279 278 278 279 279 277 276 277 276 277 278 278 278 277 277 277 277 277 276 276 275 274 273 273 273 273 273 272 271
291 291 291 290 288 286 284 283 281 280 279 279 278 278 278 277 276 275 275 275 275 274 275 275 275 277 277 277 277 276 275 275 274 274 273 272 271 271 271 269 269 269 267 266
289 290 289 287 282 281 280 280 280 279 278 278 277 276 275 273 272 272 273 273 272 272 273 274 275 276 275 275 275 274 273 273 272 271 270 269 269 270 268 267 267 267 267 268
285 284 283 282 281 280 279 278 277 277 277 276 275 273 273 273 273 273 273 272 270 269 271 274 275 274 273 273 272 271 270 269 269 268 268 265 265 265 265 264 263 261 263 263
281 281 281 280 280 279 277 277 277 277 277 276 275 274 272 272 272 271 271 269 270 270 272 273 272 271 270 270 270 268 267 265 266 264 262 262 259 258 258 259 260 259 258 260
279 279 279 278 277 277 277 277 276 275 275 275 273 272 272 272 272 271 269 267 269 271 270 270 270 269 268 267 267 265 264 263 261 259 258 254 254 254 253 251 253 252 255 256
277 277 277 277 276 276 277 277 276 274 273 272 273 272 271 270 269 269 269 268 269 269 268 267 266 264 264 264 264 262 262 260 258 258 255 253 250 249 249 250 252 252 252 252
276 276 276 275 274 274 275 275 274 274 273 273 272 272 272 271 271 267 265 268 268 266 265 264 262 261 260 260 258 257 257 256 254 253 250 247 247 246 247 247 249 249 248 250
276 276 276 276 276 274 273 273 273 273 271 271 271 271 270 267 266 268 267 266 264 263 262 262 260 259 257 256 254 253 253 251 249 247 249 248 244 245 246 245 247 247 247 248
276 276 276 275 273 272 273 273 272 272 271 270 270 270 270 270 267 267 266 265 264 262 259 258 258 256 254 251 251 251 249 247 247 246 245 244 245 245 245 245 244 245 246 246
276 275 275 275 274 273 273 272 270 270 269 267 267 267 266 266 265 265 263 262 261 259 258 255 254 251 250 250 248 247 248 250 247 247 245 245 245 246 244 245 244 244 244 245
273 273 272 272 272 272 271 270 268 267 267 266 264 265 264 263 262 261 259 258 256 255 251 248 250 252 251 247 248 248 248 247 246 247 243 244 244 243 242 243 243 244 244 245

GFSNGP_sfc_thetae_084.txt.gz
Theta_e
290 291 291 291 291 291 290 290 286 288 290 294 296 298 299 300 299 298 297 301 304 307 307 309 309 311 312 312 312 311 311 311 311 312 312 313 311 311 313 316 316 317 313 309
286 288 290 289 292 292 292 291 290 290 289 296 299 298 296 299 300 299 298 299 302 304 306 306 308 309 309 309 309 311 311 311 309 309 310 309 308 308 307 307 306 305 304 302
281 286 288 284 288 292 292 292 292 288 292 296 296 297 297 299 299 299 300 299 300 304 305 305 307 307 306 308 309 309 307 307 307 307 305 305 305 304 303 302 301 300 299 300
282 285 280 289 294 295 293 294 294 293 294 296 297 299 300 300 300 300 300 299 300 302 305 306 305 306 308 309 307 306 305 305 305 305 303 302 302 301 299 299 299 298 298 298
281 282 286 289 293 292 291 292 296 295 295 297 299 296 295 299 299 302 301 302 301 304 305 306 306 308 307 306 306 305 304 304 303 302 301 300 298 298 298 298 298 296 295 295
284 280 278 288 293 298 297 287 297 296 296 297 296 289 293 298 299 298 299 305 305 306 307 307 307 307 306 305 304 302 302 302 301 302 300 298 298 298 298 295 292 290 288 288
283 282 285 294 297 298 285 286 298 298 297 298 296 296 300 300 303 304 306 304 305 305 304 305 306 306 304 303 300 300 300 300 299 300 298 297 296 295 292 289 286 285 284 284
285 282 280 296 295 291 295 298 299 300 300 300 299 300 299 301 305 305 303 303 303 302 302 304 305 304 301 298 299 299 298 297 296 296 296 294 292 291 289 287 284 283 282 281
286 286 295 296 296 298 301 301 300 301 302 303 302 300 301 302 304 304 304 303 303 302 301 301 301 301 297 297 297 294 292 291 290 290 290 290 289 288 286 286 283 282 281 280
288 291 293 295 297 299 300 302 305 303 304 303 301 300 301 302 301 302 302 301 301 300 297 296 297 297 297 295 293 292 289 287 287 285 284 284 285 285 285 284 283 282 281 279
288 293 296 297 298 299 298 300 303 304 304 304 303 300 300 298 294 293 293 294 295 295 293 292 291 289 289 289 288 285 284 283 282 281 281 280 280 281 282 282 283 282 281 280
285 293 292 293 296 298 298 298 300 302 303 303 301 298 293 289 289 289 288 288 286 285 284 284 284 284 285 286 285 283 282 282 281 281 282 282 281 280 282 282 282 282 281 280
292 295 294 296 297 298 297 293 295 295 296 299 298 293 288 285 285 284 284 283 283 283 283 283 282 282 283 284 284 283 282 282 282 282 281 281 281 280 278 281 282 282 281 281
295 295 293 294 296 294 293 293 292 289 288 288 287 286 284 282 282 282 281 282 282 282 281 282 281 281 283 283 282 280 279 279 278 277 277 277 277 277 277 276 275 276 279 279
295 296 295 296 295 291 291 288 285 283 283 282 283 282 282 281 280 280 281 281 281 280 279 279 278 278 280 280 279 279 278 277 276 276 276 275 275 274 274 274 273 273 274 274
292 293 294 294 290 289 287 285 282 280 280 279 279 279 279 278 278 278 278 279 277 275 276 275 276 277 278 277 277 276 276 276 275 274 273 272 272 271 271 270 269 269 268 268
288 290 289 289 286 283 282 281 280 279 278 278 278 278 277 276 275 274 274 274 274 274 274 274 274 276 277 276 275 274 274 273 272 271 271 270 269 268 268 266 266 266 266 266
287 287 289 288 282 280 280 280 280 279 278 278 276 275 273 272 271 271 271 272 272 273 273 274 274 274 274 274 274 273 272 271 270 268 267 266 266 266 264 264 264 264 262 264
284 281 282 282 281 280 278 277 277 276 275 275 274 273 272 272 271 271 271 271 270 270 271 273 274 272 271 271 271 269 268 266 266 265 264 261 261 262 260 259 258 257 259 260
281 281 280 279 279 278 276 277 276 275 275 274 273 271 270 270 270 269 270 269 271 271 272 271 270 269 268 268 268 266 265 264 263 260 260 259 256 254 255 257 257 254 253 255
278 278 278 277 277 277 277 276 275 274 273 273 271 270 269 270 270 269 268 267 269 270 269 268 268 267 267 266 265 263 261 259 258 257 256 252 252 253 251 249 251 250 250 249
277 276 276 276 275 274 275 275 274 273 272 271 270 269 268 267 267 267 268 267 268 267 267 266 265 263 263 263 263 261 260 259 257 256 253 252 250 247 245 246 246 246 246 245
275 275 275 274 273 273 274 273 273 272 271 271 270 270 269 269 268 266 264 266 266 265 264 263 261 260 259 259 258 257 256 254 253 251 248 245 244 244 245 245 245 244 246 247
275 275 274 274 274 272 270 271 271 271 270 270 269 269 268 265 265 266 265 264 263 262 262 260 259 258 257 256 256 253 252 250 246 245 247 245 242 242 244 243 245 244 244 245
275 274 274 273 272 271 271 271 270 270 269 269 269 269 269 268 265 264 264 263 263 261 258 257 257 256 254 253 252 249 246 245 245 244 243 243 243 242 242 242 242 242 243 243
273 273 273 273 272 272 271 270 268 268 267 265 265 265 265 265 264 263 262 261 260 259 257 254 252 252 252 250 246 246 247 249 245 245 243 244 243 244 242 243 242 242 242 243
272 272 271 270 270 270 270 269 267 266 266 264 263 263 263 262 261 260 259 258 257 255 252 251 250 252 249 246 247 246 246 245 244 245 242 242 241 240 240 240 240 241 242 243

GFSNGP_sfc_thetae_087.txt.gz
Theta_e
289 290 290 290 289 290 290 292 288 291 292 297 300 302 304 306 305 304 304 304 307 312 314 315 315 316 317 317 316 316 315 315 315 317 317 317 319 320 321 321 322 323 322 321
284 289 290 287 290 291 292 293 293 293 292 300 303 304 302 303 304 304 305 305 305 308 312 313 314 315 315 316 315 315 315 315 316 316 316 318 319 319 320 320 319 318 317 315
281 287 288 283 289 291 293 295 294 290 296 300 299 300 301 303 304 304 305 306 306 305 308 312 314 314 314 314 315 314 314 314 313 313 313 313 312 312 312 311 307 305 304 303
280 284 276 288 295 296 294 295 297 297 298 300 301 303 304 304 304 305 305 306 306 306 307 310 311 312 312 312 312 311 311 310 310 309 308 307 307 305 302 301 301 300 299 299
279 280 285 287 294 293 292 292 299 297 299 300 302 302 302 304 304 305 307 307 308 307 309 309 310 311 311 310 309 308 307 306 306 305 303 302 300 299 299 298 295 294 294 292
282 278 277 288 296 299 299 289 299 300 300 300 301 296 300 305 303 304 303 306 308 309 309 309 310 311 309 307 305 303 302 302 302 302 300 299 298 297 294 292 290 289 287 287
280 278 284 295 297 300 287 289 297 299 301 302 299 301 304 304 307 306 306 308 309 309 308 308 309 309 305 303 300 301 301 300 299 299 298 297 295 293 290 288 286 284 283 284
282 279 279 297 297 291 295 298 298 300 302 303 304 304 304 307 306 305 302 304 305 305 305 306 306 304 300 298 299 299 298 297 296 295 295 294 291 290 288 286 284 283 282 281
288 288 296 298 298 301 301 299 299 299 303 305 304 302 305 302 303 303 302 302 304 303 301 302 302 301 297 297 297 295 293 291 290 289 289 290 289 288 286 285 284 282 281 280
289 292 294 297 299 299 301 300 301 302 304 305 303 303 303 302 301 301 301 300 299 298 296 296 298 298 297 297 295 292 289 286 285 284 284 285 285 285 285 284 283 282 281 279
289 293 295 296 299 299 298 300 301 303 305 304 302 299 296 295 293 293 293 294 293 290 288 288 289 290 292 291 290 287 285 284 283 283 283 282 282 282 282 283 284 283 282 283
287 294 293 294 298 299 298 299 298 302 305 304 302 295 291 289 289 289 288 288 287 287 286 285 287 287 287 288 287 285 283 283 283 283 283 282 281 281 283 282 282 282 282 282
293 297 298 298 298 300 300 296 295 295 304 295 294 291 289 286 285 285 285 284 284 284 284 284 284 283 285 285 285 284 283 282 282 282 281 281 282 281 278 280 280 280 281 281
296 296 295 296 295 299 297 291 290 289 290 290 288 287 285 284 284 283 282 282 282 282 281 281 281 280 282 282 281 280 279 279 280 280 280 280 280 280 279 278 277 276 276 276
295 297 298 298 297 295 292 290 287 284 284 285 285 284 283 281 280 280 281 281 280 279 279 279 278 278 280 280 279 278 278 278 278 277 277 277 277 276 276 275 274 274 274 273
294 294 295 294 296 292 289 287 285 283 283 282 281 280 279 278 277 277 278 278 276 275 275 275 275 277 278 277 276 276 276 275 275 275 275 274 274 273 273 272 272 271 270 270
290 292 293 293 290 286 285 284 283 281 281 279 278 278 277 276 275 274 274 274 274 273 274 274 274 276 276 277 276 275 274 273 273 273 272 272 271 271 270 270 270 269 268 267
287 287 287 288 288 283 281 281 281 281 279 278 277 275 274 273 272 272 272 273 272 272 273 273 274 274 275 274 274 273 272 271 271 270 269 269 268 268 268 267 267 267 267 266
285 283 283 283 284 282 280 279 278 277 275 274 273 272 272 272 272 272 272 271 270 269 270 273 273 272 271 271 271 270 269 268 268 267 266 265 266 266 265 265 264 264 264 264
281 281 281 280 280 279 277 277 277 275 274 273 272 271 270 270 271 270 271 269 270 271 271 270 270 269 268 268 269 268 267 266 265 264 264 264 264 263 263 261 262 262 262 262
278 279 278 277 276 277 276 276 274 272 273 272 271 269 269 270 270 270 269 267 269 270 269 269 268 268 267 267 266 265 265 263 263 263 263 262 262 262 261 261 261 260 260 260
276 276 275 275 274 274 274 274 273 272 270 270 269 269 268 267 267 267 268 267 267 267 267 266 266 265 265 265 265 264 263 263 262 262 262 261 261 260 259 259 259 259 259 259
275 275 274 273 272 272 272 272 271 270 269 270 269 269 269 269 269 266 264 266 266 265 265 264 262 262 262 263 262 262 261 261 260 260 259 259 259 259 259 258 258 258 257 257
274 273 273 273 272 271 269 270 270 270 269 269 268 268 267 265 265 266 266 264 264 264 263 263 261 261 261 261 261 260 260 260 259 259 258 256 258 258 258 256 256 256 255 255
274 273 273 272 270 270 270 270 269 269 268 268 268 268 268 267 265 265 265 264 263 263 262 260 260 260 261 261 260 259 259 259 259 259 258 258 257 257 256 256 254 255 254 254
273 272 272 272 271 271 270 269 267 267 266 265 265 265 265 265 265 264 263 262 262 261 261 260 260 260 260 259 259 258 259 258 258 258 257 257 256 256 255 254 254 254 254 254
272 271 270 269 270 270 269 268 267 266 266 265 263 264 263 263 262 262 261 260 260 259 259 260 260 259 259 259 258 258 258 258 256 258 257 256 255 255 253 253 253 253 253 253

GFSNGP_sfc_thetae_090.txt.gz
Theta_e
289 290 290 290 290 292 291 293 290 294 295 299 301 302 304 306 309 310 309 310 315 318 320 322 322 323 324 324 323 323 321 320 320 322 322 321 321 322 321 321 320 321 322 323
286 290 290 288 290 291 292 294 294 295 296 303 305 305 304 306 308 309 310 311 312 314 318 320 321 323 323 323 323 323 322 321 321 321 321 321 321 321 322 322 322 323 323 323
282 288 288 284 290 291 292 295 296 293 299 304 303 303 304 306 308 309 310 311 312 313 313 318 321 322 323 323 323 322 321 321 321 321 320 321 321 321 321 322 322 316 307 304
283 284 276 288 295 296 294 297 299 300 301 303 304 306 308 309 308 309 310 311 312 313 314 315 319 322 322 323 321 320 320 319 320 319 319 318 318 315 308 305 303 301 298 295
281 282 285 288 293 292 294 294 301 300 302 305 305 306 306 310 310 309 310 311 313 314 315 317 317 320 320 319 320 318 316 314 314 316 311 306 303 302 299 297 294 292 292 290
283 279 277 291 296 302 301 290 301 302 302 302 305 300 303 309 309 310 311 312 311 313 315 316 317 318 317 314 313 310 308 306 305 304 302 300 298 295 294 292 289 288 287 287
282 280 285 292 295 301 287 291 300 302 302 302 300 304 310 311 312 310 311 312 313 314 314 315 316 316 310 306 302 303 302 301 300 300 298 295 293 291 289 287 285 284 283 283
284 281 279 296 297 291 297 301 301 302 301 300 304 307 309 310 309 305 306 309 311 310 309 311 311 308 302 299 300 299 297 296 295 295 294 292 290 289 288 286 283 282 282 281
289 289 296 299 297 300 302 301 301 301 303 302 302 304 308 304 304 303 303 305 306 304 303 304 304 302 297 296 295 294 292 290 290 290 290 290 289 287 286 285 283 282 282 281
291 294 295 297 300 302 303 302 301 303 304 306 303 305 303 302 302 302 301 300 299 296 295 296 297 298 297 296 295 292 289 287 287 287 286 286 286 286 285 284 283 283 282 281
291 294 296 297 299 300 301 301 302 303 302 305 307 302 300 297 296 298 296 294 293 291 290 291 293 293 295 295 293 288 287 286 285 284 283 282 283 282 282 282 284 284 284 285
290 296 296 297 300 302 300 301 301 299 301 308 309 301 294 290 291 291 290 290 289 290 290 291 292 293 292 292 291 289 287 286 285 284 283 282 281 280 282 282 282 282 282 282
296 299 300 301 302 302 301 300 296 297 301 302 299 295 292 287 285 285 285 285 286 284 286 286 286 286 289 289 287 285 284 284 284 284 283 282 281 281 278 279 279 280 279 279
300 299 297 299 298 301 300 296 294 293 294 292 291 290 288 286 285 284 282 282 282 281 281 281 281 280 282 283 282 282 282 282 283 283 284 284 284 283 282 280 277 276 276 276
298 300 300 300 301 301 299 295 293 291 290 289 287 285 284 282 280 279 280 280 280 280 279 279 279 279 281 281 281 280 281 281 282 282 282 281 281 280 279 279 278 277 277 275
296 298 299 299 299 298 296 294 291 288 288 286 283 281 279 279 278 278 278 278 277 275 276 276 276 278 278 278 278 278 279 279 279 279 278 278 278 278 277 276 275 274 273 272
292 292 294 294 296 295 293 292 291 289 286 284 281 280 278 276 275 274 273 274 274 274 275 275 275 277 279 279 278 277 277 277 277 277 277 276 276 275 275 274 273 272 269 269
292 292 290 290 291 293 290 289 288 286 284 281 279 277 276 274 272 272 272 273 272 272 274 275 276 276 277 277 276 276 275 274 273 273 273 273 272 272 272 272 271 270 270 268
287 286 286 285 287 289 287 285 284 281 278 277 276 274 274 273 273 273 273 272 272 271 273 275 275 275 274 275 275 275 274 273 272 271 271 270 271 271 270 270 269 269 269 268
284 283 282 282 282 282 279 278 278 277 277 275 274 273 272 272 273 272 272 270 271 271 273 272 272 271 271 271 272 272 272 271 270 270 270 270 269 268 267 266 267 268 268 267
280 280 279 278 277 277 277 276 275 273 274 274 272 271 270 271 272 272 271 269 270 272 271 271 271 271 270 271 271 271 270 269 269 269 268 268 268 268 267 267 267 266 266 266
278 276 276 275 274 273 274 274 273 272 272 271 270 269 268 268 269 269 271 270 270 270 270 270 269 268 269 269 270 269 269 269 268 268 267 267 267 266 266 266 265 265 265 265
277 276 275 274 273 272 273 272 272 272 271 271 271 271 270 270 271 270 266 268 269 268 268 267 266 266 267 269 268 268 267 266 266 266 266 266 266 265 265 264 265 264 264 263
275 275 274 274 273 272 270 270 271 270 269 269 269 269 268 267 267 268 267 267 267 267 267 266 265 265 266 267 266 266 266 266 266 265 263 263 265 264 264 263 263 264 262 262
274 274 274 273 272 271 271 271 270 269 269 268 268 268 269 269 267 267 267 266 266 266 265 263 264 264 266 266 265 265 265 265 265 265 264 264 264 263 264 263 262 261 261 261
275 274 274 273 273 272 271 270 268 268 267 265 266 266 266 266 266 266 266 265 265 265 265 265 265 265 265 265 264 264 264 264 264 263 263 263 263 263 262 261 261 261 260 260
272 272 271 271 271 271 270 270 268 267 267 267 266 266 266 266 266 265 265 265 265 265 265 265 265 264 264 264 264 263 264 263 261 263 263 263 262 262 260 260 260 260 259 259

GFSNGP_sfc_thetae_093.txt.gz
Theta_e
289 290 291 291 291 293 292 293 291 294 295 300 303 304 305 307 308 308 311 312 314 318 321 323 324 325 326 326 325 324 322 322 324 325 326 325 326 327 326 326 325 325 325 325
286 290 290 288 290 291 292 293 294 295 294 302 304 305 304 305 306 307 309 310 314 315 319 321 323 325 325 326 327 327 324 323 323 324 323 324 325 325 325 324 323 323 322 322
283 289 289 286 290 291 292 293 294 291 296 301 303 304 305 306 306 306 309 311 313 314 316 318 322 324 325 326 327 326 325 324 323 323 322 324 322 322 322 322 321 311 305 301
284 286 277 289 295 295 292 295 297 295 299 303 304 306 307 308 308 308 310 312 314 315 316 317 319 324 326 326 326 325 324 324 323 323 322 322 322 321 313 309 303 297 294 292
282 283 287 289 293 295 292 292 302 301 303 304 306 308 308 310 311 312 313 314 314 315 316 317 318 321 324 324 324 324 323 323 323 323 321 316 307 302 298 294 291 290 289 288
284 280 279 292 296 298 299 290 301 301 302 302 304 298 304 311 313 313 314 315 315 316 316 316 319 321 322 321 321 320 321 318 316 310 305 300 297 293 291 289 287 286 285 285
284 282 286 294 297 298 288 291 300 301 300 302 300 301 307 309 310 315 314 313 315 316 316 317 319 320 320 317 308 306 304 302 300 298 296 293 291 289 287 285 284 284 283 284
285 281 280 297 298 292 298 301 302 302 302 301 304 306 306 306 310 309 308 310 314 315 315 317 318 311 303 299 299 298 296 294 293 292 291 290 288 288 286 284 283 283 282 282
289 288 297 301 300 302 302 301 302 302 302 304 303 304 305 303 309 304 304 305 307 307 306 306 304 301 295 294 293 292 290 290 290 289 289 289 287 286 285 285 283 282 281 281
292 295 297 299 300 301 301 302 302 302 304 303 301 306 305 306 306 302 300 299 300 299 297 297 297 295 294 293 292 290 288 287 286 285 285 285 286 286 285 284 283 282 282 281
292 295 297 299 300 301 301 303 303 304 302 303 305 306 304 299 296 294 294 294 295 294 293 293 294 293 292 291 290 287 286 286 284 284 282 282 282 282 282 284 285 284 284 283
291 297 297 298 301 303 301 302 303 300 299 306 303 301 298 293 293 289 287 289 291 291 292 293 294 293 293 293 291 289 286 285 283 282 282 281 280 280 282 282 282 282 281 280
296 300 300 301 302 303 302 303 301 299 301 301 295 294 290 289 286 284 283 282 283 283 284 285 286 287 291 292 291 287 285 284 283 282 282 280 279 278 276 278 279 279 279 278
301 300 298 300 299 302 302 302 298 296 296 292 291 289 287 286 284 283 282 281 281 281 280 280 280 281 283 284 284 284 284 284 285 284 284 283 282 280 280 278 275 274 276 276
300 302 301 302 302 302 302 300 298 295 294 289 288 285 283 281 280 280 280 280 279 278 278 278 278 278 281 282 282 282 283 283 283 283 284 283 282 281 280 279 277 276 276 275
298 299 299 300 299 301 300 299 297 295 293 289 284 282 280 278 277 277 277 278 277 275 276 277 277 278 280 280 280 280 280 280 280 281 280 280 279 278 278 277 275 273 271 272
294 294 294 294 295 295 296 298 296 295 293 288 282 280 278 276 275 274 274 275 275 276 276 277 277 279 280 281 280 279 279 279 278 279 278 277 277 276 276 275 273 271 270 270
293 293 293 293 292 291 292 295 293 291 288 284 280 278 276 274 273 272 273 274 274 274 276 277 278 278 279 279 279 279 278 277 277 276 276 276 276 275 275 274 273 272 271 270
289 288 287 287 287 288 287 284 284 282 280 279 276 275 274 274 274 273 274 274 273 273 274 276 276 277 277 277 277 277 276 275 274 274 274 273 273 273 273 272 272 271 271 270
284 285 284 282 282 282 280 280 280 278 277 276 274 273 273 272 272 272 272 272 273 273 275 275 275 274 275 275 275 275 275 274 274 273 273 272 271 270 270 270 271 271 270 270
280 280 279 279 277 278 277 277 276 275 275 274 272 271 271 271 272 272 270 269 272 273 274 273 274 273 274 274 274 274 274 273 272 271 271 271 271 271 270 270 270 270 269 269
279 278 277 276 275 275 275 274 273 272 271 270 270 270 269 269 269 269 271 271 272 272 272 272 272 271 272 273 273 273 272 272 272 272 271 271 270 269 269 269 268 268 268 268
278 277 276 275 274 274 274 273 273 273 272 272 272 272 272 272 270 269 267 270 270 269 270 270 269 270 271 272 272 271 271 270 270 270 269 269 269 269 268 267 268 267 267 266
276 276 275 275 275 273 272 272 272 271 271 271 271 271 269 268 268 269 269 268 268 268 268 269 269 269 269 271 270 270 270 269 269 268 267 267 268 267 267 266 265 267 266 265
276 275 275 274 273 272 272 272 271 270 270 269 269 270 270 270 268 268 268 267 267 267 267 267 267 268 269 269 269 269 269 269 269 268 267 267 266 266 266 266 265 264 264 264
276 275 275 275 274 273 273 272 271 270 269 267 267 268 268 268 268 268 267 267 267 267 268 268 268 268 268 268 268 267 267 267 267 265 266 266 265 265 265 264 264 264 264 263
274 274 273 273 273 273 273 272 270 269 269 268 267 268 267 267 267 267 267 267 267 267 268 267 267 267 267 267 267 267 267 265 263 265 265 265 265 265 264 263 263 263 263 262

GFSNGP_sfc_thetae_096.txt.gz
Theta_e
288 290 290 289 290 292 291 293 289 292 294 298 301 301 303 305 307 307 307 309 312 315 318 321 323 324 323 322 322 322 320 321 322 322 323 323 322 322 323 323 322 322 321 321
285 288 288 287 289 290 291 291 291 293 293 301 302 303 303 304 305 305 306 308 309 312 317 320 321 323 324 323 322 321 320 319 322 323 323 323 323 323 322 322 322 322 322 319
282 288 287 284 288 289 290 291 291 288 294 299 300 301 303 304 306 306 307 308 309 312 315 319 322 324 324 324 324 322 320 321 321 322 322 322 322 322 321 321 319 312 301 297
283 285 277 289 294 294 292 293 294 298 297 297 300 305 306 307 308 309 311 312 313 314 314 315 317 323 325 326 325 324 322 321 321 321 321 321 321 319 309 303 298 293 291 290
281 281 285 288 292 293 293 293 300 299 301 303 304 305 303 308 309 308 310 313 313 314 315 316 315 315 323 324 324 324 323 322 322 321 319 318 309 299 296 293 290 288 288 287
284 279 278 290 295 297 297 288 299 299 299 299 300 295 299 306 307 308 311 312 311 312 314 315 315 317 318 321 322 321 321 320 318 314 305 298 295 292 289 288 286 286 285 285
283 282 286 294 296 298 285 289 299 300 300 299 297 300 303 307 308 309 310 309 310 312 313 315 317 317 315 310 306 306 303 301 300 298 294 291 289 287 286 285 284 284 284 284
284 281 279 297 296 291 296 300 300 301 301 301 302 303 303 304 307 307 306 305 307 308 309 308 308 306 301 298 299 298 295 293 292 291 290 288 287 286 285 284 282 282 281 281
287 287 297 299 300 302 302 299 300 301 301 302 301 301 303 306 306 304 303 301 301 301 302 300 301 300 294 293 293 293 291 289 288 288 287 287 285 285 284 284 282 281 281 280
290 294 296 299 301 302 301 300 301 302 302 300 299 303 305 305 301 297 296 295 296 297 296 293 294 294 292 292 291 289 287 287 287 286 285 286 286 285 284 283 282 282 282 281
292 295 297 299 300 301 301 302 302 303 301 300 304 303 300 297 294 292 290 292 292 292 292 291 291 290 291 290 289 286 285 284 283 283 282 282 282 282 282 283 284 281 280 279
289 297 296 298 300 302 301 301 302 300 299 302 300 297 295 290 289 287 285 284 283 283 285 290 291 290 289 289 287 285 283 282 282 281 280 280 278 278 281 281 281 281 280 278
296 299 299 300 301 302 301 301 300 299 299 297 294 292 289 286 285 284 283 281 280 280 281 281 283 284 286 287 286 284 281 281 280 280 278 277 277 275 274 277 279 279 278 278
299 300 298 300 298 301 302 302 300 298 295 293 290 288 285 284 283 282 281 282 282 281 280 281 281 281 284 285 285 284 283 282 281 280 279 278 277 276 275 273 272 273 276 275
299 300 299 300 301 300 301 301 299 298 295 290 287 285 283 280 279 278 278 279 279 278 278 279 279 279 282 282 282 282 281 281 282 282 281 280 279 277 276 274 273 273 273 275
296 298 298 297 296 297 297 297 297 297 295 288 284 280 279 278 277 277 278 278 277 276 277 278 278 280 281 280 280 280 280 280 280 279 279 278 277 275 274 273 271 271 271 271
290 290 291 291 292 293 293 294 295 295 291 285 281 279 278 276 275 275 275 276 277 277 277 277 277 279 279 279 279 278 278 278 278 278 277 276 275 274 273 271 269 268 268 269
290 290 290 288 287 288 289 289 288 288 285 282 279 277 275 273 272 273 274 275 275 275 276 277 278 278 279 279 278 277 277 277 276 275 275 274 274 274 273 271 269 268 268 269
286 285 285 284 284 284 283 282 281 280 279 277 275 274 274 274 274 274 274 273 273 272 274 277 278 277 276 277 276 276 275 274 273 273 273 273 272 272 271 270 270 269 269 268
282 282 282 280 280 281 280 279 279 277 276 275 274 273 271 271 272 272 272 271 272 273 275 275 275 275 275 276 276 275 274 273 272 272 271 270 269 268 269 269 269 269 268 267
279 279 278 278 277 277 277 277 276 275 274 273 272 271 271 271 271 271 270 268 271 273 273 274 274 274 275 274 274 273 272 272 271 270 270 270 269 269 269 268 268 267 267 266
278 277 275 275 274 274 274 274 273 272 271 270 270 270 270 269 270 270 270 269 271 271 271 271 272 273 273 273 273 272 272 271 271 270 270 269 268 268 267 267 266 267 266 266
277 277 275 274 273 273 273 273 273 273 272 272 272 272 271 271 271 268 265 269 270 270 270 270 271 271 272 272 271 271 270 270 269 269 268 268 267 267 265 265 265 265 264 262
275 275 275 275 274 272 270 271 271 271 271 270 270 270 269 267 267 268 268 268 268 268 268 269 270 271 271 270 270 269 269 268 267 267 267 266 266 265 264 262 263 264 262 261
275 275 274 273 272 271 271 271 270 269 269 268 269 269 270 270 267 267 268 267 268 267 267 268 269 269 269 269 268 268 267 267 268 267 266 265 264 264 265 263 262 260 260 261
275 274 274 274 274 273 273 271 269 269 268 267 267 268 268 269 268 268 268 268 268 268 268 268 268 268 268 268 268 267 267 266 265 265 264 264 263 263 261 261 260 261 261 259
274 274 273 273 273 273 272 271 269 268 268 267 266 268 268 268 268 268 268 268 268 267 267 267 267 267 267 267 267 266 264 262 259 264 264 263 263 262 260 260 260 259 259 258

GFSNGP_sfc_thetae_099.txt.gz
Theta_e
287 288 287 286 286 289 288 290 288 290 291 296 299 300 300 301 305 306 307 308 307 306 316 318 317 317 318 318 318 318 318 318 317 317 319 318 318 318 318 319 320 319 318 318
285 289 288 285 287 287 288 289 288 289 289 295 298 300 298 305 306 306 308 310 311 311 311 313 319 318 318 318 318 319 318 318 319 319 319 318 318 318 317 318 319 318 318 318
281 287 286 281 286 287 288 289 288 284 290 295 294 299 302 302 303 304 306 308 309 309 310 311 313 320 318 318 319 318 317 318 319 319 319 319 319 318 317 315 316 302 298 296
281 284 275 287 293 292 289 292 293 295 297 298 299 301 302 303 303 304 306 308 308 308 309 310 312 312 320 320 319 318 317 317 318 320 319 319 319 318 313 302 297 293 291 290
279 278 284 287 291 292 291 291 296 295 297 297 299 301 299 303 304 305 306 307 307 308 309 311 310 311 310 318 319 318 317 316 317 318 318 317 308 297 295 292 290 288 288 287
281 277 274 289 294 296 294 287 297 297 296 296 296 289 294 301 303 305 306 306 305 307 309 307 306 308 309 309 314 315 316 316 316 316 314 300 295 292 290 288 286 286 285 286
280 280 284 293 295 297 283 286 297 298 297 296 293 295 299 302 305 306 304 304 304 304 305 303 303 301 298 299 298 300 298 300 299 297 295 292 290 289 287 286 285 284 284 284
281 277 277 296 295 290 294 295 295 297 296 296 297 298 299 303 303 301 298 299 300 300 300 299 299 297 294 293 294 296 296 295 293 293 292 291 288 286 285 285 283 283 282 282
284 283 293 297 297 300 298 296 295 296 296 296 295 296 301 301 298 295 293 293 295 296 297 296 295 294 292 292 292 292 291 290 290 290 289 288 286 284 284 284 283 282 281 280
288 292 294 296 299 300 299 298 299 298 297 299 299 300 299 296 293 290 290 290 291 293 292 291 291 291 291 291 290 289 288 287 287 286 286 286 285 285 284 283 282 281 280 280
290 293 294 297 298 299 299 300 299 298 299 299 299 295 294 291 290 289 286 286 286 285 289 289 289 289 289 288 288 285 284 283 282 282 281 280 281 283 282 282 281 279 278 278
287 295 294 295 299 301 300 298 297 297 297 293 293 291 291 288 287 285 283 283 283 283 284 285 288 287 287 287 285 283 282 281 280 279 279 279 278 278 281 280 281 281 280 278
293 298 297 298 299 299 297 296 296 294 294 290 290 289 287 285 284 283 282 282 281 281 282 283 284 284 284 284 283 281 279 279 278 278 277 276 276 275 273 277 279 279 280 280
299 298 296 296 294 297 298 297 296 293 291 288 287 286 284 281 280 279 278 279 280 280 281 282 283 283 284 284 282 281 280 279 278 277 276 275 274 274 273 272 271 273 277 277
295 295 295 295 295 294 295 295 294 291 287 284 283 282 281 279 278 278 279 279 279 279 278 279 279 280 283 283 282 282 280 279 279 278 277 276 275 274 273 273 273 273 273 274
292 291 291 290 290 290 291 291 290 291 285 281 279 279 278 278 277 277 278 279 277 276 277 277 277 279 281 281 280 280 279 280 279 278 277 276 275 274 273 272 271 270 271 271
286 285 286 285 286 286 287 287 286 287 283 279 278 278 277 276 275 275 275 276 276 276 277 277 277 278 279 279 279 278 278 277 277 276 275 274 272 270 270 269 269 269 269 270
285 285 284 283 282 284 284 284 283 282 280 279 277 276 274 274 273 273 274 274 275 275 276 277 277 278 278 278 278 277 276 276 275 275 274 272 271 270 269 268 268 268 268 268
282 281 281 280 280 281 281 280 279 278 277 276 274 273 274 274 273 273 273 272 272 272 273 276 277 276 276 276 275 275 274 273 273 272 272 271 270 270 269 268 267 267 267 266
280 279 279 278 277 277 276 277 277 275 275 274 273 272 271 271 272 271 271 270 272 273 275 275 275 275 275 275 275 273 272 271 270 269 269 268 268 267 267 267 266 265 263 263
277 276 275 275 274 273 273 273 274 273 272 272 271 270 270 270 270 270 269 268 271 274 274 274 274 274 274 273 273 272 271 270 269 269 268 267 266 266 265 264 264 262 261 261
273 270 269 270 270 269 271 271 271 270 270 270 271 270 269 268 268 268 269 268 270 271 272 272 272 272 272 273 272 271 270 269 268 268 267 266 264 263 261 261 261 260 258 258
272 270 269 269 269 269 270 270 269 270 269 269 269 268 268 268 268 266 265 269 270 270 271 271 271 271 270 270 270 269 268 268 267 266 265 264 262 260 259 260 259 257 255 257
267 269 269 268 269 269 267 268 269 269 268 268 268 268 267 265 265 267 268 268 268 269 269 270 270 270 269 269 268 267 267 266 266 265 265 264 262 261 259 258 259 252 252 254
270 269 270 269 268 268 268 268 268 267 267 267 267 268 268 268 266 266 267 267 269 268 268 268 268 267 266 266 265 265 265 266 265 264 262 262 262 259 256 256 253 252 253 255
272 271 272 271 271 271 270 269 267 267 266 265 266 267 267 267 267 267 267 267 267 267 267 266 266 267 267 266 266 264 264 264 263 263 261 260 259 257 254 254 253 254 251 249
272 272 271 270 271 271 270 269 267 266 267 266 265 267 267 267 267 266 267 266 266 265 265 265 266 266 265 265 263 262 261 260 260 260 258 258 258 254 252 251 250 249 249 250

GFSNGP_sfc_thetae_102.txt.gz
Theta_e
285 287 288 286 286 286 287 287 283 288 290 295 299 301 302 303 306 305 308 308 308 309 311 312 316 316 317 317 317 317 316 315 315 317 318 317 316 315 315 315 315 314 314 314
282 287 288 286 287 287 288 288 287 287 286 295 301 302 301 302 303 304 306 306 307 307 308 310 312 316 317 317 317 317 316 315 316 316 317 316 316 315 315 315 315 314 314 313
279 286 286 280 285 287 287 289 289 284 293 297 299 299 299 299 301 303 305 305 306 306 308 309 309 311 311 317 318 317 316 317 317 316 316 316 316 315 315 314 315 316 312 306
278 282 274 286 292 291 292 293 293 294 294 297 298 299 300 300 300 303 305 305 304 305 307 307 306 306 309 316 318 317 316 317 318 317 316 316 316 315 315 309 303 297 294 292
276 276 282 286 291 290 290 290 295 294 295 296 298 298 296 301 304 304 304 304 303 304 306 304 302 303 303 304 308 317 316 316 317 318 316 316 315 313 298 295 293 291 290 288
278 275 272 286 292 295 293 285 296 296 295 295 296 287 291 301 304 303 302 301 300 301 302 300 300 301 299 299 300 300 304 315 315 316 316 313 301 296 293 291 288 287 286 286
276 275 282 291 294 295 282 284 296 296 295 295 293 294 297 303 300 299 298 296 297 298 298 297 297 298 296 296 295 297 298 303 302 303 300 297 293 290 288 286 285 285 284 285
277 274 275 293 294 287 292 294 295 295 295 294 295 298 301 298 295 293 292 293 294 295 296 294 294 295 294 292 294 294 294 294 295 296 293 291 289 288 287 286 284 284 283 283
282 282 291 294 295 300 298 294 293 294 295 297 298 299 298 294 292 290 289 290 291 292 293 292 292 292 291 291 292 291 290 289 289 289 289 288 286 285 284 285 284 282 282 280
286 290 292 295 297 300 299 296 296 297 299 299 296 295 293 291 289 287 285 285 287 288 290 289 290 289 289 289 289 288 287 287 287 286 286 286 286 285 284 283 282 281 280 279
290 293 294 297 297 297 298 298 298 296 295 294 293 290 290 287 286 284 283 284 285 285 285 288 288 287 287 287 286 283 283 282 281 281 281 280 281 281 281 282 281 279 279 279
286 293 292 295 299 299 297 296 297 294 290 291 291 290 288 285 284 282 281 282 283 283 284 285 286 286 286 286 284 282 281 280 280 280 280 280 280 279 282 281 281 281 281 280
291 296 296 296 296 298 295 294 294 292 291 288 287 285 284 282 281 281 280 280 280 281 282 283 283 282 283 283 282 280 278 278 278 278 277 277 277 277 276 279 281 281 281 281
294 296 292 292 290 293 294 293 291 288 287 285 284 282 280 278 279 278 278 279 279 279 278 279 279 281 282 282 281 279 279 279 278 277 276 276 275 275 275 274 274 276 280 279
291 292 291 291 290 289 291 291 290 286 283 281 281 280 279 279 278 278 279 279 279 278 278 278 278 279 281 282 280 279 278 277 276 275 275 274 274 274 274 273 273 272 273 274
288 287 287 286 286 286 287 286 286 284 281 280 278 278 278 278 277 277 277 278 276 275 276 276 276 279 280 280 279 278 278 277 276 275 275 274 274 273 273 272 271 270 269 269
283 281 282 281 282 283 285 285 285 284 281 280 279 278 277 276 275 275 275 276 276 275 275 276 276 278 278 279 278 277 276 276 275 274 273 272 272 271 271 271 270 269 268 269
282 281 280 279 279 281 282 282 282 281 279 279 277 276 275 274 273 273 273 274 274 273 274 275 276 276 277 277 277 276 276 275 274 272 272 271 270 270 270 269 268 268 267 267
280 279 279 277 277 278 278 278 278 277 276 275 274 273 274 273 273 273 273 273 272 272 273 276 277 276 275 276 275 275 274 273 272 271 270 270 269 269 268 267 267 267 266 265
277 277 277 276 275 275 275 275 276 275 275 274 273 271 270 271 271 271 272 271 272 273 275 275 275 274 274 274 274 273 272 271 270 270 270 269 268 266 266 265 265 263 262 262
273 274 273 273 271 271 271 272 272 272 272 272 271 268 268 270 271 271 269 268 271 273 274 274 274 273 273 273 272 271 271 270 269 268 267 266 265 264 263 263 262 261 262 261
269 268 267 268 268 268 269 270 270 269 269 268 268 267 267 267 267 268 269 269 271 272 272 272 272 272 272 272 271 270 270 269 268 267 266 266 265 263 262 261 261 259 259 256
267 268 266 265 265 265 266 267 266 266 266 266 267 267 267 267 268 267 265 270 271 271 271 270 270 270 270 269 269 268 267 267 266 265 264 263 263 262 261 259 257 257 255 254
266 267 267 268 268 267 264 266 267 267 266 266 266 267 267 265 266 268 269 269 269 269 269 269 269 269 268 268 267 267 266 266 265 264 263 262 262 261 259 257 255 253 253 254
267 265 265 265 265 266 266 267 266 266 266 266 266 267 267 268 266 267 268 268 269 267 267 267 267 267 266 266 265 266 265 265 264 263 263 261 260 259 257 257 254 253 252 250
271 270 268 267 268 267 267 267 265 266 266 265 265 266 266 267 267 267 267 267 267 266 266 266 266 266 266 265 264 264 264 264 263 262 261 259 258 257 256 254 254 252 250 248
268 268 268 268 269 269 268 267 266 265 266 265 265 266 266 266 266 266 266 265 265 265 265 265 266 265 264 263 262 262 262 261 260 260 258 256 254 252 252 251 251 250 249 249

GFSNGP_sfc_thetae_105.txt.gz
Theta_e
285 287 288 287 285 286 287 286 282 285 286 293 297 297 301 304 304 305 305 305 305 305 310 311 312 316 316 316 315 314 313 313 314 315 315 316 313 312 312 313 312 311 311 311
282 287 287 286 287 287 288 289 289 290 286 296 299 300 300 302 305 304 304 305 305 305 307 308 308 309 311 316 316 316 314 313 314 316 315 314 314 313 312 312 312 312 311 311
277 284 283 280 285 287 287 290 291 286 291 297 296 297 299 300 302 302 303 304 304 304 305 305 304 306 306 309 316 317 316 316 315 315 315 315 315 315 313 311 312 310 309 309
280 281 273 285 292 292 291 292 292 293 296 297 296 297 298 301 303 302 303 302 302 303 304 303 302 302 304 306 310 317 316 316 316 315 315 316 314 314 314 313 310 307 300 296
278 278 281 285 290 288 289 289 295 293 295 296 297 297 297 304 303 302 301 300 301 302 303 299 299 299 300 301 303 305 315 316 317 316 316 315 314 313 309 302 298 294 292 291
278 274 270 282 290 293 294 284 296 296 295 295 296 289 292 302 301 298 297 297 296 297 299 295 295 297 298 298 298 298 300 305 315 317 316 314 314 302 295 295 290 288 286 287
276 273 279 288 292 294 282 285 296 296 295 294 290 291 298 299 295 295 293 293 294 295 294 292 294 296 296 295 293 295 297 299 300 311 314 308 299 296 292 288 286 285 284 285
275 273 273 291 292 285 290 294 296 294 294 293 296 297 295 294 291 289 289 289 290 292 291 291 292 292 292 290 292 293 293 292 292 294 296 298 294 290 288 286 284 283 283 282
280 279 287 292 293 297 296 293 293 293 296 298 296 293 293 289 288 287 286 287 288 289 290 290 290 289 288 289 290 290 289 288 288 288 289 290 290 288 286 286 285 283 282 281
283 286 290 293 296 297 297 295 297 298 298 295 292 291 289 288 286 284 285 285 286 286 286 287 288 288 287 287 288 287 285 286 286 285 285 285 286 286 285 284 282 281 280 279
287 291 293 295 296 297 298 297 294 293 293 292 291 290 288 286 284 283 283 283 284 284 285 285 286 286 286 286 285 283 282 282 281 281 281 281 281 282 282 282 282 280 280 280
284 290 292 294 294 299 297 295 293 291 289 288 288 286 285 283 282 282 281 282 282 282 283 283 283 283 284 285 284 282 281 281 280 280 280 280 280 280 282 282 283 283 282 281
287 294 293 292 293 295 292 291 290 289 288 285 284 283 282 280 277 278 277 279 279 278 279 280 280 280 281 281 281 280 278 279 279 279 280 280 279 278 277 280 283 283 283 283
293 291 288 288 286 290 291 289 288 285 284 283 281 281 279 276 275 278 277 278 277 275 274 277 279 279 279 279 279 279 278 277 277 277 277 277 277 277 277 276 275 276 280 280
288 289 288 288 287 288 288 288 286 283 282 280 280 279 278 277 278 277 275 272 271 273 272 274 275 278 278 278 276 276 275 275 275 275 275 275 275 275 274 274 274 273 274 275
287 285 284 283 283 285 285 284 284 282 280 279 278 277 277 276 277 276 277 276 273 273 273 274 274 277 277 278 277 276 276 276 275 275 274 274 274 273 272 271 270 270 269 268
281 279 279 279 279 281 282 283 283 283 281 279 278 277 276 275 274 273 273 274 273 273 274 273 273 276 277 277 276 275 275 274 273 273 273 272 272 272 271 270 269 268 267 267
280 280 278 277 277 279 279 279 280 280 278 278 276 271 268 267 269 272 273 274 274 273 274 275 276 276 276 277 276 275 274 273 272 271 272 271 271 271 270 269 268 267 266 266
277 277 277 276 275 276 276 276 276 277 276 276 274 272 271 269 271 272 273 272 272 271 272 275 277 276 275 276 275 274 273 271 271 270 270 270 269 269 268 267 266 266 265 264
275 275 275 274 273 273 272 273 273 272 274 273 272 271 270 269 269 270 270 269 271 272 274 274 274 273 273 273 273 272 272 271 270 269 269 268 267 266 266 265 264 263 262 261
272 272 271 271 270 270 269 270 269 270 269 271 270 269 268 268 268 267 268 268 270 273 273 273 273 272 272 272 272 271 270 269 268 268 267 266 265 265 264 263 263 262 262 261
266 266 265 266 266 266 267 268 269 268 267 267 266 266 266 266 267 267 268 268 270 271 271 271 271 271 271 271 270 269 269 268 267 267 266 265 265 263 263 262 261 260 259 257
266 266 265 264 264 263 265 265 265 265 265 264 265 265 266 267 268 266 265 270 270 270 270 269 269 269 269 269 268 267 267 266 265 265 264 264 263 263 262 260 260 259 256 256
264 264 264 265 265 264 262 264 265 265 265 266 265 266 267 265 266 268 269 268 268 268 268 268 268 268 268 267 267 266 266 265 264 264 263 263 262 261 260 258 257 256 255 255
265 263 263 264 264 264 264 264 264 265 265 265 265 267 267 268 266 267 267 267 268 267 266 267 267 266 266 266 265 265 264 264 264 263 262 261 261 260 259 258 256 255 254 254
269 266 263 264 264 264 264 264 263 263 264 264 264 265 266 267 267 267 266 266 266 266 266 266 266 265 264 264 264 264 264 263 263 262 261 260 258 257 257 256 256 255 252 250
266 267 266 267 267 266 264 262 261 263 264 263 264 266 266 266 266 266 265 265 265 265 265 265 265 264 264 263 263 263 262 262 262 261 260 259 258 257 257 255 253 252 249 250

GFSNGP_sfc_thetae_108.txt.gz
Theta_e
284 286 287 287 286 285 285 284 281 283 283 288 297 297 298 302 304 304 304 305 304 305 304 306 308 312 315 314 313 313 313 314 315 315 315 314 313 311 312 313 314 315 314 314
280 284 283 284 286 285 287 287 287 286 286 295 298 300 300 303 303 303 304 304 304 305 303 303 303 305 307 309 314 314 312 312 314 315 314 314 313 312 311 311 311 311 312 313
277 282 282 278 284 286 287 289 288 283 289 296 295 298 299 300 301 302 303 302 302 303 303 301 301 301 302 305 308 314 313 313 313 314 314 313 313 312 311 311 312 310 309 307
279 281 272 284 291 289 289 291 290 292 294 296 296 298 299 302 301 301 300 300 299 299 300 298 298 298 300 303 304 306 314 315 314 314 314 314 313 313 312 311 310 310 307 305
277 277 280 283 289 288 287 288 293 294 294 296 299 300 299 300 300 297 296 296 296 297 297 295 295 297 299 299 300 301 301 307 315 315 314 314 313 313 312 310 306 302 299 297
278 275 272 282 288 292 293 283 296 296 295 296 297 289 294 296 296 294 293 293 293 295 294 293 293 295 296 296 295 295 296 298 301 306 314 312 313 311 301 303 293 290 288 288
276 275 280 286 290 292 281 283 295 297 296 296 291 292 296 294 291 291 290 289 291 293 291 291 291 292 292 291 290 293 293 294 295 297 307 314 310 299 296 290 287 285 284 285
275 272 273 288 290 285 290 293 296 295 294 296 296 294 292 290 288 286 286 288 289 290 290 290 289 289 288 287 289 291 291 290 290 290 292 297 298 293 290 288 285 284 283 282
280 278 286 290 291 295 296 293 293 293 298 297 295 292 290 288 287 286 286 286 286 286 288 287 288 287 286 286 287 288 287 287 287 287 288 289 289 288 287 287 285 283 282 281
283 286 288 292 294 296 297 295 296 296 295 293 290 289 288 287 285 284 284 283 284 285 285 284 286 286 285 286 285 284 283 282 283 283 284 285 285 285 285 285 284 283 281 280
285 289 291 292 293 295 295 294 292 292 292 290 288 287 287 285 284 283 281 283 284 283 283 282 283 283 284 284 284 282 282 282 281 281 282 281 282 282 282 283 284 282 281 281
284 290 291 290 292 295 292 291 291 289 286 286 286 285 284 282 282 281 280 281 281 280 280 281 280 280 281 282 282 281 280 281 281 281 281 281 280 281 284 283 284 283 283 282
285 289 288 289 289 291 289 289 288 287 286 282 282 282 281 279 279 279 279 279 278 277 278 280 279 279 279 280 280 279 279 279 280 280 280 279 279 279 278 282 283 283 283 282
288 287 285 285 284 287 289 287 286 283 282 281 281 280 279 277 279 278 277 277 276 273 275 277 278 275 275 274 275 275 276 276 277 277 277 277 277 277 277 276 275 276 280 280
287 286 284 285 285 285 286 287 284 282 281 279 279 278 278 277 277 277 277 275 273 273 273 276 276 274 273 272 273 274 274 274 275 275 275 275 275 275 275 274 273 273 273 273
285 282 282 280 280 282 283 283 283 282 281 279 277 276 276 276 275 275 275 275 274 272 271 273 275 274 273 271 274 274 274 275 275 275 274 273 273 272 271 270 269 269 268 268
279 278 277 276 277 278 279 280 281 281 280 279 278 277 275 273 273 272 273 272 270 269 269 270 273 274 272 273 272 272 273 273 273 273 272 272 272 270 269 268 267 266 266 267
278 278 278 276 275 276 277 277 278 278 277 276 275 274 272 270 268 268 268 273 271 270 272 273 274 274 274 274 274 273 272 272 273 272 272 271 270 270 269 268 267 265 265 265
276 275 275 275 274 275 273 273 274 276 275 275 273 272 272 271 270 269 269 267 265 267 271 274 276 274 274 274 274 273 272 271 270 270 270 269 269 268 267 266 266 265 265 264
274 273 273 272 271 271 270 271 271 270 272 273 272 271 270 270 269 267 268 268 269 271 273 273 273 272 272 273 273 272 271 270 270 269 268 267 267 265 265 265 264 263 262 262
269 270 269 269 268 267 267 269 268 268 267 267 268 268 267 267 267 267 267 267 269 272 272 272 272 271 271 271 271 270 269 268 267 267 266 265 265 264 264 263 262 262 261 260
264 264 263 263 265 263 265 266 266 265 265 265 265 265 265 265 266 267 268 267 270 270 270 270 270 270 270 270 269 268 267 267 266 266 265 264 263 262 263 262 261 261 260 259
265 266 264 262 262 263 264 264 264 264 264 264 264 265 265 266 267 266 265 269 270 269 269 268 268 268 267 267 266 265 265 264 264 264 263 263 263 262 261 261 261 260 259 258
263 264 262 263 264 264 262 262 263 264 263 264 264 265 266 265 266 268 268 267 267 267 267 267 267 267 266 265 265 264 264 263 263 263 262 262 261 261 260 260 259 258 257 258
264 262 262 262 263 262 262 262 261 261 262 263 264 266 267 267 265 266 266 266 268 266 265 266 266 265 265 264 264 264 263 263 263 263 262 261 260 260 260 260 259 258 257 257
266 264 262 263 263 263 263 262 261 260 261 261 263 262 264 266 266 266 266 266 266 266 265 264 264 264 264 263 263 263 263 263 262 262 262 261 260 260 259 259 258 257 256 255
264 266 265 264 264 263 262 261 260 261 262 260 261 264 264 265 265 265 265 265 265 265 264 264 264 263 263 263 262 262 262 262 262 261 261 260 259 259 258 258 257 256 255 253

GFSNGP_sfc_thetae_111.txt.gz
Theta_e
284 285 287 287 286 287 285 287 283 286 288 296 299 301 302 305 305 305 305 306 306 305 304 303 303 304 307 312 316 319 319 318 317 318 318 317 315 316 316 316 316 316 316 315
281 285 284 283 287 287 287 289 289 289 290 298 301 303 303 303 304 304 304 304 304 305 302 300 300 300 303 305 307 313 317 318 318 317 317 317 316 315 315 316 316 315 315 314
278 284 283 280 285 287 287 289 290 287 293 299 299 301 302 302 303 302 301 301 300 300 299 298 297 298 299 303 306 308 315 316 317 317 317 317 317 315 314 314 315 314 314 314
279 282 273 284 292 291 288 289 293 295 297 299 299 301 302 303 301 299 298 297 297 298 295 295 296 297 299 302 302 304 303 309 315 317 317 317 317 315 316 315 313 312 311 311
277 278 281 286 288 288 287 289 294 295 297 300 300 300 297 299 297 295 295 295 296 296 294 294 293 296 298 297 297 298 297 299 300 304 315 316 316 315 316 313 313 313 310 308
279 275 273 283 289 292 293 286 297 297 298 297 297 291 296 295 295 293 292 293 294 294 293 292 292 294 294 292 293 292 293 295 296 298 300 312 315 315 313 312 308 299 295 299
278 276 281 288 290 295 283 286 297 298 298 297 293 294 294 293 291 291 291 291 292 293 291 290 290 292 291 289 288 290 291 292 292 293 295 298 312 308 305 296 292 289 288 289
279 276 274 290 292 287 292 296 298 298 297 297 294 293 292 290 289 289 289 288 289 289 289 289 289 289 288 287 287 288 289 289 289 289 290 292 295 294 292 290 287 285 284 284
281 281 288 294 294 297 297 296 296 298 299 297 294 291 290 289 288 287 286 286 287 287 287 287 287 287 285 285 286 286 285 285 285 286 286 287 288 288 287 287 286 284 283 281
284 288 290 292 296 295 296 295 297 298 296 294 290 290 288 287 286 285 285 285 286 286 284 283 284 284 284 285 286 284 283 283 283 283 283 284 285 286 286 285 284 283 281 281
285 288 291 289 292 294 293 292 291 291 291 290 289 288 287 285 284 283 283 284 283 282 282 282 282 282 283 284 284 283 283 283 282 282 282 282 283 283 283 284 284 282 281 281
281 286 288 285 288 291 290 291 290 288 287 288 288 285 285 283 283 282 282 282 281 281 281 281 281 280 281 282 283 283 282 281 281 281 282 282 281 281 284 284 284 283 283 281
283 287 286 288 287 288 287 286 286 285 284 283 283 283 283 282 281 281 280 279 279 278 279 280 279 278 278 279 280 281 281 281 280 281 281 281 280 279 278 281 283 282 282 281
286 285 283 283 283 285 287 285 285 283 283 282 282 282 281 280 280 278 277 277 276 276 277 278 276 275 276 277 277 277 279 279 280 279 278 278 278 278 278 277 276 277 280 280
284 284 283 283 283 284 285 287 284 282 281 280 280 280 280 279 278 277 277 275 276 274 275 276 275 275 276 276 276 277 278 278 279 278 278 277 276 275 274 273 273 274 274 275
283 281 280 279 280 281 281 281 282 281 280 279 278 277 277 277 276 276 276 276 275 273 272 274 274 275 275 275 276 277 277 276 278 278 277 277 276 275 274 273 272 271 271 271
278 277 277 276 276 278 278 279 279 279 279 279 278 277 276 275 274 273 274 274 274 273 274 274 275 275 275 275 276 277 277 277 276 277 276 275 275 273 273 272 270 269 269 270
277 277 276 275 275 276 275 276 277 277 277 277 276 274 273 273 272 271 272 272 272 273 274 276 276 276 276 276 277 277 277 276 276 275 275 274 274 273 272 271 270 268 268 267
275 274 274 273 273 274 273 273 273 274 275 275 274 273 273 273 272 272 272 271 272 272 273 275 276 276 276 275 276 276 276 275 274 273 273 272 272 272 271 270 269 268 268 267
273 273 272 271 270 270 269 270 272 271 271 273 273 272 271 270 271 271 271 270 272 273 274 274 275 274 274 274 275 275 274 274 273 272 272 272 271 270 269 268 268 267 266 266
269 270 269 268 268 267 267 269 268 268 268 268 269 268 269 269 270 270 271 270 271 273 273 273 274 274 274 273 274 273 273 272 271 271 270 269 269 269 268 267 267 266 265 265
267 266 265 265 266 265 266 266 267 266 266 266 266 267 268 268 269 269 269 270 272 271 272 272 272 271 272 272 272 272 271 271 270 270 269 269 268 267 267 267 266 265 265 265
267 267 266 264 264 264 264 265 264 265 265 265 266 267 268 269 270 270 268 270 271 270 271 270 269 269 269 270 270 270 269 269 269 268 268 268 268 267 267 266 265 265 264 264
266 266 265 266 266 266 264 265 265 266 265 267 266 267 269 268 268 270 270 268 268 269 269 269 269 268 269 269 269 268 268 268 268 268 267 266 266 266 266 265 264 264 263 263
267 266 266 266 266 266 265 266 266 266 266 266 266 268 268 269 268 268 269 269 269 268 268 267 267 267 268 268 268 267 268 268 268 267 267 266 266 265 265 265 264 264 263 263
269 268 267 266 267 267 267 267 266 266 266 266 266 267 268 268 268 268 268 268 268 267 267 267 267 267 267 267 267 266 266 266 267 266 266 265 265 265 264 263 263 263 263 262
268 267 268 267 267 267 267 266 266 265 265 266 266 267 267 267 267 267 267 267 267 266 266 266 266 266 266 266 265 265 265 265 265 265 265 264 264 264 263 263 263 262 261 261

GFSNGP_sfc_thetae_114.txt.gz
Theta_e
285 286 287 288 288 288 288 289 286 289 290 296 301 304 307 309 309 309 308 309 309 307 305 302 301 302 302 305 308 317 318 319 319 321 322 322 322 323 323 322 320 319 318 317
282 285 288 285 289 290 290 290 291 291 290 298 304 307 307 307 307 307 306 306 307 306 305 301 298 300 301 303 305 309 312 319 320 319 319 320 321 321 321 322 322 322 320 316
279 285 285 283 288 289 290 292 293 290 295 302 301 303 305 306 306 305 304 303 303 302 301 302 299 298 300 300 302 305 305 315 318 317 317 317 320 319 319 319 320 319 318 318
280 283 275 286 293 293 290 292 295 295 299 300 300 300 301 304 304 302 302 302 302 301 300 300 301 299 300 298 299 299 300 301 303 310 317 318 317 317 319 319 318 318 318 318
278 280 282 286 288 290 289 290 296 296 299 299 300 301 297 301 301 300 300 300 300 300 299 299 298 299 298 296 296 295 294 296 297 299 302 308 317 317 319 318 318 317 316 315
281 276 275 285 290 294 294 286 298 299 300 299 300 294 295 297 299 298 299 298 299 299 298 296 296 298 293 293 292 291 292 293 295 295 296 300 302 316 317 319 318 314 311 309
281 278 281 289 293 297 285 287 298 300 297 297 296 294 295 296 296 297 296 295 297 297 295 294 294 295 293 291 288 290 291 291 293 292 292 295 297 303 312 306 299 294 289 289
282 278 276 293 293 288 293 299 298 298 298 298 297 295 294 294 293 293 294 294 294 294 292 292 292 291 290 289 288 289 289 289 290 290 290 291 293 293 294 293 289 287 286 285
284 284 292 295 293 297 299 297 298 299 300 300 296 294 293 291 291 290 292 292 292 292 291 290 289 288 287 287 288 287 287 287 287 288 288 288 288 289 288 287 286 285 284 283
285 289 289 289 293 296 295 296 298 300 299 298 294 293 292 292 291 290 289 289 289 289 288 287 288 286 286 287 288 287 286 285 285 285 285 285 286 286 286 285 284 283 282 281
285 287 287 286 287 291 292 292 291 294 294 294 293 291 290 289 289 288 288 288 287 286 285 285 286 284 285 286 287 285 284 284 284 284 284 283 283 284 284 284 285 282 281 281
281 285 286 284 287 289 287 287 289 290 289 290 291 289 289 287 287 287 286 286 285 284 284 283 284 283 284 285 286 285 283 283 283 283 283 283 282 281 283 283 283 282 282 280
283 287 286 287 287 289 286 285 285 285 287 286 287 288 287 285 283 282 282 281 281 280 281 281 281 280 281 282 283 283 283 282 282 282 282 281 281 280 278 280 282 281 281 281
286 285 284 283 283 285 288 287 287 287 286 285 287 287 285 283 282 280 279 279 279 279 279 279 279 278 280 281 282 282 282 282 283 282 281 281 280 279 279 278 277 278 281 280
285 285 283 284 285 284 286 288 285 284 284 283 284 285 285 283 281 280 280 279 279 278 277 278 277 277 279 281 281 282 282 281 282 281 281 280 280 279 279 278 276 276 277 278
284 283 282 281 282 282 283 283 284 283 282 281 281 280 280 281 281 281 280 279 278 277 277 277 277 277 279 281 281 281 281 280 281 281 281 280 280 279 279 279 279 278 277 277
280 278 278 278 279 279 279 280 281 281 281 281 280 279 279 278 278 277 277 277 277 278 278 278 277 278 279 280 281 281 281 281 280 281 280 280 280 279 279 278 277 276 275 276
279 278 278 277 277 278 278 278 278 279 279 278 278 277 276 276 276 275 275 276 277 277 277 278 278 279 279 280 281 282 281 280 280 279 280 279 279 278 278 277 276 274 273 273
277 276 276 275 275 276 275 275 275 275 276 277 276 276 275 275 276 275 276 276 277 278 276 278 277 279 279 278 280 281 280 280 279 278 278 277 277 277 277 277 276 275 274 273
275 275 274 273 273 272 272 273 274 274 274 276 275 274 274 273 274 274 275 274 274 276 277 277 278 278 278 278 279 280 279 279 278 278 278 277 276 276 275 274 274 274 273 272
272 272 271 271 270 270 270 272 271 271 271 272 273 272 272 273 273 274 276 275 274 275 276 276 277 278 277 278 279 279 278 278 277 277 276 275 275 274 274 273 273 272 272 271
271 270 268 269 269 269 269 270 271 270 270 271 270 271 272 273 273 273 272 274 275 274 276 276 275 274 275 276 278 277 277 277 276 276 276 275 274 274 273 273 272 272 271 271
272 271 269 268 268 269 269 269 269 270 269 270 270 272 272 273 274 274 273 274 275 274 275 274 272 272 274 276 276 276 276 275 275 275 274 274 274 273 272 272 271 271 270 270
271 270 270 270 270 270 269 269 270 270 270 271 270 270 273 273 273 274 274 272 271 272 272 272 272 272 273 275 275 274 275 274 274 274 273 272 272 272 271 270 270 270 269 268
270 270 270 270 271 271 270 270 271 271 271 271 271 272 272 273 273 273 273 272 271 273 272 270 271 272 274 274 273 273 273 273 273 273 272 272 271 271 270 270 269 269 268 268
273 273 272 270 271 272 272 273 272 272 273 271 272 272 272 272 272 273 272 271 271 271 272 271 271 272 272 272 272 271 271 271 271 271 271 271 270 269 269 268 268 268 268 267
272 270 273 273 273 273 272 272 272 271 271 272 271 272 272 272 271 271 271 271 271 271 271 271 271 270 271 271 270 270 270 269 269 269 269 269 269 268 267 267 267 267 266 265

GFSNGP_sfc_thetae_120.txt.gz
Theta_e
284 285 286 286 287 289 287 288 284 287 288 292 298 300 304 306 308 308 307 307 307 306 305 304 303 303 302 303 303 304 306 308 315 319 321 321 322 323 322 320 317 316 316 315
283 286 286 284 288 289 289 289 289 290 290 299 300 299 301 302 306 306 305 304 305 305 305 304 303 302 301 300 300 301 301 301 302 305 319 322 321 321 321 320 317 316 315 314
279 284 284 282 285 287 288 292 293 288 293 297 299 299 298 295 301 303 303 303 303 302 302 302 304 302 299 298 299 298 298 298 298 299 303 309 319 321 320 319 319 316 315 314
280 283 275 286 292 291 289 289 292 293 296 299 297 298 300 300 300 300 301 301 301 301 300 301 302 302 301 299 296 295 295 295 296 296 297 300 305 317 319 319 318 317 315 315
279 279 282 286 289 288 287 288 291 292 294 297 298 298 296 299 300 300 301 301 300 300 299 299 299 300 299 297 295 293 292 292 293 294 294 296 297 301 307 317 317 315 316 315
282 277 275 284 290 294 295 284 292 293 292 295 299 287 291 297 298 298 299 299 298 298 297 296 296 298 296 294 293 290 290 291 292 292 292 292 293 295 300 305 316 314 300 297
281 280 283 287 291 295 279 282 292 290 292 291 287 292 295 297 297 298 297 297 298 296 293 293 294 295 293 291 290 291 290 290 290 290 290 290 291 294 295 300 296 292 288 288
281 279 277 288 289 283 287 291 290 288 293 294 294 294 294 294 294 294 294 294 295 294 292 292 291 292 290 288 290 290 290 288 288 287 287 288 289 290 291 291 289 287 285 284
283 282 287 288 286 288 290 289 289 288 295 295 293 292 292 292 292 292 292 292 292 291 290 290 290 289 288 288 289 288 287 286 286 285 285 285 285 285 287 287 287 285 284 282
284 286 286 286 287 287 288 287 290 289 293 293 291 291 290 290 290 289 289 289 289 288 287 286 287 287 287 288 288 286 285 284 284 283 282 282 284 284 284 285 285 284 282 280
285 286 286 288 286 286 287 287 287 290 290 291 291 289 288 286 286 286 286 286 286 285 284 284 284 284 285 286 287 285 283 283 283 282 281 281 281 281 281 282 283 282 280 280
281 286 284 286 287 287 288 286 287 287 288 289 290 287 285 284 283 283 282 283 282 282 282 282 282 282 283 285 286 284 282 282 282 282 281 280 279 279 283 282 282 282 281 279
286 287 287 287 288 287 287 288 287 286 287 288 288 287 284 282 281 281 280 279 279 279 280 280 280 280 282 284 285 283 282 282 281 281 281 280 279 278 276 280 282 282 282 281
289 288 286 285 283 286 287 288 290 288 288 287 287 287 285 283 282 280 280 280 280 279 279 279 279 279 282 283 284 283 283 282 282 281 280 279 278 277 277 276 276 277 281 281
287 289 287 288 288 287 287 286 286 285 285 284 285 284 285 282 280 280 280 281 280 279 278 278 278 279 282 283 282 283 282 282 282 281 281 280 279 278 277 277 276 276 277 279
286 288 286 284 283 284 284 283 282 282 283 282 281 282 282 282 280 279 279 279 278 277 278 278 278 279 282 283 283 283 283 283 282 282 282 282 281 280 279 279 279 278 278 278
281 280 280 280 280 281 281 281 280 280 280 279 279 280 280 280 279 278 279 279 277 278 278 278 279 279 281 283 283 283 282 282 282 282 281 280 280 278 277 276 276 276 276 277
282 281 279 278 277 278 278 278 278 277 277 278 279 278 277 277 276 277 278 280 278 276 278 279 279 279 280 282 283 282 282 282 281 280 280 279 279 278 277 276 276 275 275 276
280 278 277 276 275 276 275 275 275 276 275 277 277 276 276 276 277 277 277 276 275 275 276 280 280 280 280 281 282 282 281 280 279 279 279 279 278 278 277 276 276 275 275 274
277 276 276 275 274 273 273 274 275 274 274 275 276 275 275 275 274 275 276 274 275 276 278 278 280 279 280 281 281 282 281 280 279 279 278 278 277 277 276 275 275 274 273 273
273 273 272 273 273 273 272 274 273 273 274 273 274 274 274 275 273 273 275 274 275 277 278 277 277 278 279 281 281 281 281 280 279 278 277 277 276 276 275 275 274 273 272 272
274 272 271 271 272 272 272 273 273 273 273 272 273 273 275 275 275 272 272 273 275 275 276 276 276 276 279 280 280 280 280 279 279 278 278 277 276 275 274 273 272 272 272 271
274 274 272 271 271 272 272 273 272 272 271 270 270 271 274 274 274 273 271 274 274 274 275 275 275 276 278 280 279 279 278 278 277 277 276 276 275 274 274 273 272 272 271 270
274 273 273 274 274 274 272 273 273 273 273 273 271 271 274 274 274 275 275 274 274 273 273 274 275 276 277 277 277 277 277 276 276 275 275 274 273 273 272 272 271 270 269 268
274 274 275 274 275 275 275 275 274 275 275 274 274 274 274 275 273 273 274 274 273 274 274 273 274 274 275 274 274 274 275 275 275 275 274 273 272 272 271 271 270 269 268 268
275 274 275 273 274 275 275 275 274 274 275 274 273 274 274 275 275 274 274 273 273 273 273 273 273 274 273 273 273 273 273 273 273 273 273 272 271 270 269 269 269 269 269 267
275 274 276 276 275 274 273 273 273 273 273 273 272 274 274 274 274 274 273 273 273 273 273 272 272 272 272 272 272 271 271 270 271 272 272 271 270 270 270 269 268 267 266 265

GFSNGP_sfc_thetae_126.txt.gz
Theta_e
279 280 281 282 283 283 283 283 280 283 286 289 293 295 296 297 296 295 299 301 300 299 299 298 297 297 296 296 297 299 299 300 301 305 310 315 320 320 319 318 317 316 314 313
278 281 283 282 284 284 285 284 283 283 284 290 296 297 296 296 295 295 294 295 298 299 299 297 296 295 294 293 293 295 295 295 297 300 303 306 308 316 318 317 315 314 312 313
275 280 281 280 281 282 284 284 284 279 284 288 294 295 295 296 295 295 294 294 293 292 293 296 294 294 292 292 294 293 293 293 294 295 297 299 302 306 317 316 315 313 313 313
275 279 269 281 286 285 283 285 285 284 285 288 292 292 293 296 296 294 293 292 291 290 290 293 293 291 291 291 291 291 291 291 291 292 293 295 297 299 301 307 314 314 313 312
277 276 280 280 282 281 280 282 285 284 285 288 292 291 288 291 293 292 291 290 289 289 289 291 290 290 289 288 289 289 288 288 289 289 290 291 291 293 297 299 305 313 313 312
277 273 272 278 283 286 286 278 285 285 285 286 288 280 283 289 289 290 290 289 288 287 287 287 288 288 287 286 286 287 287 287 287 287 288 288 289 290 292 296 300 304 297 296
276 274 277 282 284 286 277 276 285 285 287 288 283 286 288 289 287 287 287 287 287 286 284 284 286 287 286 285 285 287 287 286 285 285 286 286 288 289 290 291 290 287 286 286
275 273 270 284 283 277 281 285 286 286 288 288 288 287 286 286 285 284 284 284 285 283 282 283 284 286 285 284 286 286 285 284 284 283 284 284 284 286 288 288 286 285 285 284
276 276 285 285 283 285 287 285 286 287 289 289 287 286 285 283 283 283 282 282 283 281 281 283 284 284 284 285 285 284 283 282 282 282 282 282 281 281 283 286 286 285 282 281
280 283 284 284 286 286 287 285 287 288 288 288 285 284 283 282 281 281 281 280 281 281 280 281 283 284 284 285 285 283 282 281 281 281 281 281 281 281 280 281 284 284 284 281
279 283 284 284 284 284 286 287 286 287 288 287 285 282 282 280 280 280 280 280 280 279 279 280 282 282 284 284 284 282 281 281 281 280 280 280 280 280 280 281 282 280 279 280
273 283 282 284 285 285 285 285 287 285 285 288 285 282 281 280 279 278 278 278 278 278 278 279 280 281 283 284 283 282 281 280 280 280 279 279 279 279 283 282 283 283 282 281
280 286 286 285 285 285 283 286 287 284 284 283 285 282 280 279 280 279 278 277 276 276 277 277 278 280 282 282 282 281 280 280 279 278 278 278 278 278 277 281 283 283 282 282
285 285 282 279 276 282 284 284 285 284 283 282 282 283 281 279 278 277 276 274 275 273 273 274 274 277 279 281 279 276 275 278 278 278 277 277 277 277 278 277 275 276 281 281
284 288 284 281 282 281 282 282 280 279 279 279 280 280 279 278 277 276 276 272 268 270 271 271 272 275 278 278 277 274 274 272 271 276 277 277 274 276 278 277 276 275 276 276
281 281 280 279 279 278 277 277 277 277 277 278 278 278 278 278 278 277 277 276 274 272 272 272 273 275 278 279 276 274 276 277 274 274 273 273 273 273 273 273 274 274 273 273
279 276 276 275 276 276 275 276 276 275 276 277 277 277 277 277 275 275 273 271 269 270 272 271 273 276 276 278 275 273 273 275 274 275 273 272 273 273 273 272 271 271 271 271
276 275 274 274 274 274 274 274 275 274 274 275 274 272 271 270 268 267 268 269 270 269 271 274 277 277 278 279 278 276 275 275 275 273 273 271 272 273 272 271 271 270 270 269
276 275 274 273 274 273 273 273 272 271 271 272 270 267 268 269 269 266 264 267 269 270 270 274 277 277 278 279 277 275 274 273 274 273 272 270 270 271 270 270 269 268 268 268
274 274 274 272 272 272 271 271 272 271 272 271 267 266 267 268 269 267 264 266 269 272 274 274 275 275 276 278 277 275 275 274 274 272 270 269 268 266 267 267 268 266 265 265
271 271 271 271 269 269 267 269 269 270 270 269 268 266 267 264 267 268 268 268 270 272 273 273 274 275 276 276 277 275 273 272 272 271 271 268 266 266 265 263 263 262 263 263
267 266 265 265 266 264 265 266 268 264 263 265 266 266 265 265 264 264 263 266 269 268 270 272 273 274 275 275 276 274 275 274 273 273 271 270 268 266 263 263 262 261 261 259
264 264 263 262 262 263 262 262 261 261 261 260 262 266 267 265 265 265 265 269 270 270 271 271 271 271 273 273 273 272 272 272 272 272 271 269 268 265 264 264 262 261 259 260
264 264 264 265 263 265 264 263 262 262 261 261 260 259 266 263 264 268 266 269 268 266 267 271 271 271 271 271 271 272 271 270 270 270 269 268 268 267 265 264 264 260 259 259
267 265 265 267 269 269 267 267 266 267 266 263 263 264 267 265 263 263 262 263 266 265 265 267 269 269 269 269 269 270 270 270 269 268 268 267 267 265 264 264 264 263 261 259
269 268 265 265 265 265 266 269 263 266 267 263 262 259 260 261 265 265 262 262 264 263 263 265 266 267 267 267 267 267 267 268 268 267 266 264 264 264 264 263 262 261 260 259
265 270 270 268 265 265 264 265 262 261 262 261 261 261 265 262 263 264 263 261 260 259 261 263 264 265 265 266 266 265 266 267 267 266 265 265 265 263 262 261 260 260 260 260